<?xml version="1.0" encoding="UTF-8" standalone="no" ?>
<gpx xmlns="http://www.topografix.com/GPX/1/1" xmlns:xsi="http://www.w3.org/2001/XMLSchema-instance" xsi:schemaLocation="http://www.topografix.com/GPX/1/1 http://www.topografix.com/GPX/1/1/gpx.xsd" version="1.1" creator="VisuGPX - https://www.visugpx.com">
  <metadata>
    <name>Tours_Poitiers</name>
  </metadata>
  <trk>
    <name><![CDATA[Tours_Poitiers]]></name>
    <trkseg>
      <trkpt lat="47.39003" lon="0.68884">
        <ele>54.351711</ele>
        <time>2020-07-10T01:07:39.385Z</time>
      </trkpt>
      <trkpt lat="47.39018" lon="0.68877">
        <ele>54.351711</ele>
        <time>2020-07-10T01:07:34.938Z</time>
      </trkpt>
      <trkpt lat="47.39019" lon="0.68884">
        <ele>54.351711</ele>
        <time>2020-07-10T01:07:33.847Z</time>
      </trkpt>
      <trkpt lat="47.39019" lon="0.68889">
        <ele>54.351711</ele>
        <time>2020-07-10T01:07:33.002Z</time>
      </trkpt>
      <trkpt lat="47.39022" lon="0.68896">
        <ele>54.351711</ele>
        <time>2020-07-10T01:07:31.612Z</time>
      </trkpt>
      <trkpt lat="47.38984" lon="0.6891">
        <ele>54.351711</ele>
        <time>2020-07-10T01:07:21.417Z</time>
      </trkpt>
      <trkpt lat="47.38979" lon="0.68916">
        <ele>54.351711</ele>
        <time>2020-07-10T01:07:20.096Z</time>
      </trkpt>
      <trkpt lat="47.38973" lon="0.68919">
        <ele>54.351711</ele>
        <time>2020-07-10T01:07:18.734Z</time>
      </trkpt>
      <trkpt lat="47.38971" lon="0.6892">
        <ele>54.351711</ele>
        <time>2020-07-10T01:07:18.306Z</time>
      </trkpt>
      <trkpt lat="47.38919" lon="0.68941">
        <ele>54.351711</ele>
        <time>2020-07-10T01:07:07.467Z</time>
      </trkpt>
      <trkpt lat="47.38866" lon="0.68963">
        <ele>54.351711</ele>
        <time>2020-07-10T01:06:55.889Z</time>
      </trkpt>
      <trkpt lat="47.38843" lon="0.68973">
        <ele>54.351711</ele>
        <time>2020-07-10T01:06:50.625Z</time>
      </trkpt>
      <trkpt lat="47.38834" lon="0.68977">
        <ele>54.351711</ele>
        <time>2020-07-10T01:06:48.598Z</time>
      </trkpt>
      <trkpt lat="47.38829" lon="0.68979">
        <ele>54.351711</ele>
        <time>2020-07-10T01:06:47.193Z</time>
      </trkpt>
      <trkpt lat="47.3882" lon="0.68982">
        <ele>54.351711</ele>
        <time>2020-07-10T01:06:45.130Z</time>
      </trkpt>
      <trkpt lat="47.38813" lon="0.68983">
        <ele>54.351711</ele>
        <time>2020-07-10T01:06:43.551Z</time>
      </trkpt>
      <trkpt lat="47.38809" lon="0.68988">
        <ele>54.351711</ele>
        <time>2020-07-10T01:06:42.357Z</time>
      </trkpt>
      <trkpt lat="47.38805" lon="0.68992">
        <ele>54.351711</ele>
        <time>2020-07-10T01:06:41.408Z</time>
      </trkpt>
      <trkpt lat="47.38722" lon="0.69024">
        <ele>54.25684</ele>
        <time>2020-07-10T01:06:20.732Z</time>
      </trkpt>
      <trkpt lat="47.38681" lon="0.69041">
        <ele>54.206479</ele>
        <time>2020-07-10T01:06:07.640Z</time>
      </trkpt>
      <trkpt lat="47.38674" lon="0.69043">
        <ele>54.19809</ele>
        <time>2020-07-10T01:06:05.523Z</time>
      </trkpt>
      <trkpt lat="47.38669" lon="0.69047">
        <ele>54.191756</ele>
        <time>2020-07-10T01:06:03.933Z</time>
      </trkpt>
      <trkpt lat="47.38621" lon="0.69066">
        <ele>54.157842</ele>
        <time>2020-07-10T01:05:50.079Z</time>
      </trkpt>
      <trkpt lat="47.38616" lon="0.69068">
        <ele>54.173475</ele>
        <time>2020-07-10T01:05:48.941Z</time>
      </trkpt>
      <trkpt lat="47.38587" lon="0.6908">
        <ele>54.25162</ele>
        <time>2020-07-10T01:05:42.796Z</time>
      </trkpt>
      <trkpt lat="47.38584" lon="0.69081">
        <ele>54.259377</ele>
        <time>2020-07-10T01:05:42.198Z</time>
      </trkpt>
      <trkpt lat="47.38542" lon="0.69097">
        <ele>54.371629</ele>
        <time>2020-07-10T01:05:33.184Z</time>
      </trkpt>
      <trkpt lat="47.38469" lon="0.69127">
        <ele>54.571107</ele>
        <time>2020-07-10T01:05:16.720Z</time>
      </trkpt>
      <trkpt lat="47.38462" lon="0.6913">
        <ele>54.58954</ele>
        <time>2020-07-10T01:05:15.261Z</time>
      </trkpt>
      <trkpt lat="47.38411" lon="0.6915">
        <ele>54.432796</ele>
        <time>2020-07-10T01:05:03.709Z</time>
      </trkpt>
      <trkpt lat="47.38402" lon="0.69154">
        <ele>54.396016</ele>
        <time>2020-07-10T01:05:01.712Z</time>
      </trkpt>
      <trkpt lat="47.38393" lon="0.69158">
        <ele>54.358998</ele>
        <time>2020-07-10T01:04:59.667Z</time>
      </trkpt>
      <trkpt lat="47.38368" lon="0.69169">
        <ele>54.254884</ele>
        <time>2020-07-10T01:04:53.050Z</time>
      </trkpt>
      <trkpt lat="47.38346" lon="0.69177">
        <ele>54.165227</ele>
        <time>2020-07-10T01:04:47.284Z</time>
      </trkpt>
      <trkpt lat="47.38256" lon="0.69214">
        <ele>53.77004</ele>
        <time>2020-07-10T01:04:23.116Z</time>
      </trkpt>
      <trkpt lat="47.38233" lon="0.69224">
        <ele>53.657216</ele>
        <time>2020-07-10T01:04:17.592Z</time>
      </trkpt>
      <trkpt lat="47.38227" lon="0.69226">
        <ele>53.631309</ele>
        <time>2020-07-10T01:04:16.137Z</time>
      </trkpt>
      <trkpt lat="47.3822" lon="0.69229">
        <ele>53.597182</ele>
        <time>2020-07-10T01:04:14.499Z</time>
      </trkpt>
      <trkpt lat="47.38214" lon="0.69231">
        <ele>53.565947</ele>
        <time>2020-07-10T01:04:13.021Z</time>
      </trkpt>
      <trkpt lat="47.38189" lon="0.69241">
        <ele>53.444095</ele>
        <time>2020-07-10T01:04:06.913Z</time>
      </trkpt>
      <trkpt lat="47.38137" lon="0.69263">
        <ele>53.187482</ele>
        <time>2020-07-10T01:03:53.706Z</time>
      </trkpt>
      <trkpt lat="47.3805" lon="0.69298">
        <ele>53.07131</ele>
        <time>2020-07-10T01:03:32.140Z</time>
      </trkpt>
      <trkpt lat="47.38041" lon="0.69302">
        <ele>53.075954</ele>
        <time>2020-07-10T01:03:29.937Z</time>
      </trkpt>
      <trkpt lat="47.38012" lon="0.69314">
        <ele>53.089573</ele>
        <time>2020-07-10T01:03:23.748Z</time>
      </trkpt>
      <trkpt lat="47.38009" lon="0.69315">
        <ele>53.09119</ele>
        <time>2020-07-10T01:03:22.948Z</time>
      </trkpt>
      <trkpt lat="47.37999" lon="0.69319">
        <ele>53.095834</ele>
        <time>2020-07-10T01:03:20.801Z</time>
      </trkpt>
      <trkpt lat="47.37989" lon="0.6932">
        <ele>53.100629</ele>
        <time>2020-07-10T01:03:18.673Z</time>
      </trkpt>
      <trkpt lat="47.37987" lon="0.69325">
        <ele>53.102333</ele>
        <time>2020-07-10T01:03:17.891Z</time>
      </trkpt>
      <trkpt lat="47.37985" lon="0.69327">
        <ele>53.103328</ele>
        <time>2020-07-10T01:03:17.438Z</time>
      </trkpt>
      <trkpt lat="47.37975" lon="0.69334">
        <ele>53.108326</ele>
        <time>2020-07-10T01:03:15.141Z</time>
      </trkpt>
      <trkpt lat="47.37972" lon="0.69335">
        <ele>53.109883</ele>
        <time>2020-07-10T01:03:14.370Z</time>
      </trkpt>
      <trkpt lat="47.37969" lon="0.69336">
        <ele>53.111099</ele>
        <time>2020-07-10T01:03:13.778Z</time>
      </trkpt>
      <trkpt lat="47.37965" lon="0.69335">
        <ele>53.113222</ele>
        <time>2020-07-10T01:03:12.805Z</time>
      </trkpt>
      <trkpt lat="47.37963" lon="0.69334">
        <ele>53.114077</ele>
        <time>2020-07-10T01:03:12.424Z</time>
      </trkpt>
      <trkpt lat="47.37961" lon="0.69332">
        <ele>53.115488</ele>
        <time>2020-07-10T01:03:11.782Z</time>
      </trkpt>
      <trkpt lat="47.37959" lon="0.6933">
        <ele>53.116192</ele>
        <time>2020-07-10T01:03:11.456Z</time>
      </trkpt>
      <trkpt lat="47.37957" lon="0.6933">
        <ele>53.117262</ele>
        <time>2020-07-10T01:03:10.989Z</time>
      </trkpt>
      <trkpt lat="47.37953" lon="0.6933">
        <ele>53.119289</ele>
        <time>2020-07-10T01:03:10.029Z</time>
      </trkpt>
      <trkpt lat="47.37949" lon="0.69331">
        <ele>53.120906</ele>
        <time>2020-07-10T01:03:09.304Z</time>
      </trkpt>
      <trkpt lat="47.37943" lon="0.69333">
        <ele>53.123731</ele>
        <time>2020-07-10T01:03:08.000Z</time>
      </trkpt>
      <trkpt lat="47.37935" lon="0.69335">
        <ele>53.131646</ele>
        <time>2020-07-10T01:03:06.009Z</time>
      </trkpt>
      <trkpt lat="47.37929" lon="0.69338">
        <ele>53.151196</ele>
        <time>2020-07-10T01:03:04.671Z</time>
      </trkpt>
      <trkpt lat="47.37927" lon="0.69341">
        <ele>53.159253</ele>
        <time>2020-07-10T01:03:04.133Z</time>
      </trkpt>
      <trkpt lat="47.37922" lon="0.69349">
        <ele>53.181697</ele>
        <time>2020-07-10T01:03:02.590Z</time>
      </trkpt>
      <trkpt lat="47.37842" lon="0.69383">
        <ele>53.435161</ele>
        <time>2020-07-10T01:02:45.496Z</time>
      </trkpt>
      <trkpt lat="47.37813" lon="0.69393">
        <ele>53.525199</ele>
        <time>2020-07-10T01:02:39.538Z</time>
      </trkpt>
      <trkpt lat="47.37811" lon="0.69394">
        <ele>53.532731</ele>
        <time>2020-07-10T01:02:39.026Z</time>
      </trkpt>
      <trkpt lat="47.37807" lon="0.69398">
        <ele>53.547168</ele>
        <time>2020-07-10T01:02:37.328Z</time>
      </trkpt>
      <trkpt lat="47.37799" lon="0.69402">
        <ele>53.573716</ele>
        <time>2020-07-10T01:02:34.159Z</time>
      </trkpt>
      <trkpt lat="47.37731" lon="0.6943">
        <ele>53.561879</ele>
        <time>2020-07-10T01:02:07.817Z</time>
      </trkpt>
      <trkpt lat="47.37728" lon="0.69431">
        <ele>53.552209</ele>
        <time>2020-07-10T01:02:06.615Z</time>
      </trkpt>
      <trkpt lat="47.3771" lon="0.69433">
        <ele>53.497793</ele>
        <time>2020-07-10T01:01:59.398Z</time>
      </trkpt>
      <trkpt lat="47.37705" lon="0.69435">
        <ele>53.483972</ele>
        <time>2020-07-10T01:01:57.482Z</time>
      </trkpt>
      <trkpt lat="47.3769" lon="0.69443">
        <ele>53.436608</ele>
        <time>2020-07-10T01:01:51.013Z</time>
      </trkpt>
      <trkpt lat="47.37678" lon="0.69448">
        <ele>53.397345</ele>
        <time>2020-07-10T01:01:47.548Z</time>
      </trkpt>
      <trkpt lat="47.37607" lon="0.69477">
        <ele>53.177623</ele>
        <time>2020-07-10T01:01:30.276Z</time>
      </trkpt>
      <trkpt lat="47.37594" lon="0.69482">
        <ele>53.13617</ele>
        <time>2020-07-10T01:01:27.115Z</time>
      </trkpt>
      <trkpt lat="47.37586" lon="0.69485">
        <ele>53.114732</ele>
        <time>2020-07-10T01:01:25.319Z</time>
      </trkpt>
      <trkpt lat="47.37581" lon="0.69487">
        <ele>53.10228</ele>
        <time>2020-07-10T01:01:24.051Z</time>
      </trkpt>
      <trkpt lat="47.37534" lon="0.69507">
        <ele>52.984136</ele>
        <time>2020-07-10T01:01:13.859Z</time>
      </trkpt>
      <trkpt lat="47.37516" lon="0.69511">
        <ele>52.940632</ele>
        <time>2020-07-10T01:01:07.552Z</time>
      </trkpt>
      <trkpt lat="47.37484" lon="0.69524">
        <ele>52.862128</ele>
        <time>2020-07-10T01:00:55.571Z</time>
      </trkpt>
      <trkpt lat="47.3744" lon="0.69543">
        <ele>52.749903</ele>
        <time>2020-07-10T01:00:36.884Z</time>
      </trkpt>
      <trkpt lat="47.37432" lon="0.69546">
        <ele>52.731491</ele>
        <time>2020-07-10T01:00:33.661Z</time>
      </trkpt>
      <trkpt lat="47.37429" lon="0.69557">
        <ele>52.712231</ele>
        <time>2020-07-10T01:00:30.433Z</time>
      </trkpt>
      <trkpt lat="47.37421" lon="0.69567">
        <ele>52.646659</ele>
        <time>2020-07-10T01:00:26.064Z</time>
      </trkpt>
      <trkpt lat="47.37414" lon="0.69567">
        <ele>52.582519</ele>
        <time>2020-07-10T01:00:23.388Z</time>
      </trkpt>
      <trkpt lat="47.37409" lon="0.69569">
        <ele>52.531809</ele>
        <time>2020-07-10T01:00:21.125Z</time>
      </trkpt>
      <trkpt lat="47.37392" lon="0.69574">
        <ele>52.356847</ele>
        <time>2020-07-10T01:00:13.880Z</time>
      </trkpt>
      <trkpt lat="47.37385" lon="0.69577">
        <ele>52.286397</ele>
        <time>2020-07-10T01:00:11.012Z</time>
      </trkpt>
      <trkpt lat="47.37378" lon="0.69576">
        <ele>52.217344</ele>
        <time>2020-07-10T01:00:08.282Z</time>
      </trkpt>
      <trkpt lat="47.37376" lon="0.69576">
        <ele>52.20249</ele>
        <time>2020-07-10T01:00:07.692Z</time>
      </trkpt>
      <trkpt lat="47.37372" lon="0.69576">
        <ele>52.156057</ele>
        <time>2020-07-10T01:00:05.498Z</time>
      </trkpt>
      <trkpt lat="47.37364" lon="0.69577">
        <ele>52.076521</ele>
        <time>2020-07-10T01:00:02.447Z</time>
      </trkpt>
      <trkpt lat="47.37345" lon="0.69585">
        <ele>51.884126</ele>
        <time>2020-07-10T00:59:54.453Z</time>
      </trkpt>
      <trkpt lat="47.37341" lon="0.69588">
        <ele>51.842193</ele>
        <time>2020-07-10T00:59:52.684Z</time>
      </trkpt>
      <trkpt lat="47.37338" lon="0.6959">
        <ele>51.804257</ele>
        <time>2020-07-10T00:59:50.894Z</time>
      </trkpt>
      <trkpt lat="47.37307" lon="0.69603">
        <ele>51.487367</ele>
        <time>2020-07-10T00:59:37.861Z</time>
      </trkpt>
      <trkpt lat="47.37272" lon="0.69617">
        <ele>51.128774</ele>
        <time>2020-07-10T00:59:22.859Z</time>
      </trkpt>
      <trkpt lat="47.37263" lon="0.6962">
        <ele>51.044949</ele>
        <time>2020-07-10T00:59:19.157Z</time>
      </trkpt>
      <trkpt lat="47.37258" lon="0.69615">
        <ele>50.98539</ele>
        <time>2020-07-10T00:59:16.707Z</time>
      </trkpt>
      <trkpt lat="47.37256" lon="0.69614">
        <ele>50.960399</ele>
        <time>2020-07-10T00:59:15.641Z</time>
      </trkpt>
      <trkpt lat="47.37252" lon="0.69615">
        <ele>50.923383</ele>
        <time>2020-07-10T00:59:14.064Z</time>
      </trkpt>
      <trkpt lat="47.37103" lon="0.69674">
        <ele>49.731383</ele>
        <time>2020-07-10T00:58:11.239Z</time>
      </trkpt>
      <trkpt lat="47.37023" lon="0.69708">
        <ele>49.229154</ele>
        <time>2020-07-10T00:57:39.749Z</time>
      </trkpt>
      <trkpt lat="47.37024" lon="0.69713">
        <ele>49.208593</ele>
        <time>2020-07-10T00:57:38.716Z</time>
      </trkpt>
      <trkpt lat="47.37029" lon="0.69715">
        <ele>49.183191</ele>
        <time>2020-07-10T00:57:37.587Z</time>
      </trkpt>
      <trkpt lat="47.37037" lon="0.69714">
        <ele>49.136792</ele>
        <time>2020-07-10T00:57:35.259Z</time>
      </trkpt>
      <trkpt lat="47.37043" lon="0.69726">
        <ele>49.083918</ele>
        <time>2020-07-10T00:57:32.237Z</time>
      </trkpt>
      <trkpt lat="47.37041" lon="0.69733">
        <ele>49.057391</ele>
        <time>2020-07-10T00:57:30.764Z</time>
      </trkpt>
      <trkpt lat="47.37028" lon="0.69744">
        <ele>48.979934</ele>
        <time>2020-07-10T00:57:25.928Z</time>
      </trkpt>
      <trkpt lat="47.37018" lon="0.6975">
        <ele>48.91788</ele>
        <time>2020-07-10T00:57:22.154Z</time>
      </trkpt>
      <trkpt lat="47.37022" lon="0.69769">
        <ele>48.847535</ele>
        <time>2020-07-10T00:57:18.827Z</time>
      </trkpt>
      <trkpt lat="47.37042" lon="0.69834">
        <ele>48.592057</ele>
        <time>2020-07-10T00:57:06.455Z</time>
      </trkpt>
      <trkpt lat="47.37045" lon="0.69838">
        <ele>48.582279</ele>
        <time>2020-07-10T00:57:05.169Z</time>
      </trkpt>
      <trkpt lat="47.37037" lon="0.69855">
        <ele>48.56383</ele>
        <time>2020-07-10T00:57:02.054Z</time>
      </trkpt>
      <trkpt lat="47.37035" lon="0.69878">
        <ele>48.543388</ele>
        <time>2020-07-10T00:56:58.449Z</time>
      </trkpt>
      <trkpt lat="47.37038" lon="0.69919">
        <ele>48.50628</ele>
        <time>2020-07-10T00:56:52.193Z</time>
      </trkpt>
      <trkpt lat="47.37033" lon="0.69959">
        <ele>48.469787</ele>
        <time>2020-07-10T00:56:45.973Z</time>
      </trkpt>
      <trkpt lat="47.37031" lon="0.69969">
        <ele>48.460299</ele>
        <time>2020-07-10T00:56:44.342Z</time>
      </trkpt>
      <trkpt lat="47.3703" lon="0.69978">
        <ele>48.452208</ele>
        <time>2020-07-10T00:56:42.910Z</time>
      </trkpt>
      <trkpt lat="47.37033" lon="0.70007">
        <ele>48.425103</ele>
        <time>2020-07-10T00:56:38.188Z</time>
      </trkpt>
      <trkpt lat="47.37037" lon="0.70017">
        <ele>48.415102</ele>
        <time>2020-07-10T00:56:36.583Z</time>
      </trkpt>
      <trkpt lat="47.37041" lon="0.70038">
        <ele>48.395479</ele>
        <time>2020-07-10T00:56:33.164Z</time>
      </trkpt>
      <trkpt lat="47.37065" lon="0.70084">
        <ele>48.361571</ele>
        <time>2020-07-10T00:56:24.707Z</time>
      </trkpt>
      <trkpt lat="47.37072" lon="0.70098">
        <ele>48.409742</ele>
        <time>2020-07-10T00:56:22.113Z</time>
      </trkpt>
      <trkpt lat="47.37069" lon="0.70121">
        <ele>48.474254</ele>
        <time>2020-07-10T00:56:18.885Z</time>
      </trkpt>
      <trkpt lat="47.37062" lon="0.70191">
        <ele>48.669533</ele>
        <time>2020-07-10T00:56:08.721Z</time>
      </trkpt>
      <trkpt lat="47.37067" lon="0.70242">
        <ele>48.811239</ele>
        <time>2020-07-10T00:56:01.423Z</time>
      </trkpt>
      <trkpt lat="47.37071" lon="0.70261">
        <ele>48.866812</ele>
        <time>2020-07-10T00:55:58.521Z</time>
      </trkpt>
      <trkpt lat="47.3707" lon="0.70272">
        <ele>48.895689</ele>
        <time>2020-07-10T00:55:57.173Z</time>
      </trkpt>
      <trkpt lat="47.37066" lon="0.70308">
        <ele>48.997528</ele>
        <time>2020-07-10T00:55:51.957Z</time>
      </trkpt>
      <trkpt lat="47.37047" lon="0.70354">
        <ele>49.191641</ele>
        <time>2020-07-10T00:55:44.530Z</time>
      </trkpt>
      <trkpt lat="47.37045" lon="0.70381">
        <ele>49.317066</ele>
        <time>2020-07-10T00:55:40.943Z</time>
      </trkpt>
      <trkpt lat="47.37052" lon="0.70534">
        <ele>50.022991</ele>
        <time>2020-07-10T00:55:20.360Z</time>
      </trkpt>
      <trkpt lat="47.37045" lon="0.70623">
        <ele>50.33659</ele>
        <time>2020-07-10T00:55:08.016Z</time>
      </trkpt>
      <trkpt lat="47.37052" lon="0.70655">
        <ele>50.370789</ele>
        <time>2020-07-10T00:55:03.103Z</time>
      </trkpt>
      <trkpt lat="47.37059" lon="0.70667">
        <ele>50.38848</ele>
        <time>2020-07-10T00:55:00.903Z</time>
      </trkpt>
      <trkpt lat="47.37065" lon="0.70676">
        <ele>50.401547</ele>
        <time>2020-07-10T00:54:58.754Z</time>
      </trkpt>
      <trkpt lat="47.37083" lon="0.707">
        <ele>50.438952</ele>
        <time>2020-07-10T00:54:53.679Z</time>
      </trkpt>
      <trkpt lat="47.37092" lon="0.70724">
        <ele>50.466812</ele>
        <time>2020-07-10T00:54:49.430Z</time>
      </trkpt>
      <trkpt lat="47.37093" lon="0.70806">
        <ele>50.552955</ele>
        <time>2020-07-10T00:54:37.037Z</time>
      </trkpt>
      <trkpt lat="47.371" lon="0.70846">
        <ele>50.609672</ele>
        <time>2020-07-10T00:54:30.359Z</time>
      </trkpt>
      <trkpt lat="47.37138" lon="0.70922">
        <ele>50.805753</ele>
        <time>2020-07-10T00:54:16.565Z</time>
      </trkpt>
      <trkpt lat="47.37161" lon="0.70944">
        <ele>50.890536</ele>
        <time>2020-07-10T00:54:10.959Z</time>
      </trkpt>
      <trkpt lat="47.37175" lon="0.7095">
        <ele>50.93625</ele>
        <time>2020-07-10T00:54:07.796Z</time>
      </trkpt>
      <trkpt lat="47.3717" lon="0.70965">
        <ele>50.971149</ele>
        <time>2020-07-10T00:54:05.559Z</time>
      </trkpt>
      <trkpt lat="47.37157" lon="0.70983">
        <ele>51.024541</ele>
        <time>2020-07-10T00:54:01.782Z</time>
      </trkpt>
      <trkpt lat="47.37157" lon="0.70988">
        <ele>51.036265</ele>
        <time>2020-07-10T00:54:01.054Z</time>
      </trkpt>
      <trkpt lat="47.37156" lon="0.70989">
        <ele>51.04158</ele>
        <time>2020-07-10T00:54:00.695Z</time>
      </trkpt>
      <trkpt lat="47.3715" lon="0.70994">
        <ele>51.062747</ele>
        <time>2020-07-10T00:53:59.298Z</time>
      </trkpt>
      <trkpt lat="47.37139" lon="0.71">
        <ele>51.096677</ele>
        <time>2020-07-10T00:53:57.101Z</time>
      </trkpt>
      <trkpt lat="47.37104" lon="0.71029">
        <ele>51.244758</ele>
        <time>2020-07-10T00:53:48.765Z</time>
      </trkpt>
      <trkpt lat="47.37069" lon="0.71059">
        <ele>51.404773</ele>
        <time>2020-07-10T00:53:40.200Z</time>
      </trkpt>
      <trkpt lat="47.37062" lon="0.71065">
        <ele>51.435129</ele>
        <time>2020-07-10T00:53:38.619Z</time>
      </trkpt>
      <trkpt lat="47.37078" lon="0.71094">
        <ele>51.534774</ele>
        <time>2020-07-10T00:53:32.646Z</time>
      </trkpt>
      <trkpt lat="47.37108" lon="0.71179">
        <ele>51.792108</ele>
        <time>2020-07-10T00:53:17.378Z</time>
      </trkpt>
      <trkpt lat="47.3711" lon="0.71182">
        <ele>51.804035</ele>
        <time>2020-07-10T00:53:16.551Z</time>
      </trkpt>
      <trkpt lat="47.37114" lon="0.71188">
        <ele>51.826571</ele>
        <time>2020-07-10T00:53:15.329Z</time>
      </trkpt>
      <trkpt lat="47.3712" lon="0.712">
        <ele>51.864742</ele>
        <time>2020-07-10T00:53:13.281Z</time>
      </trkpt>
      <trkpt lat="47.37123" lon="0.71217">
        <ele>51.915458</ele>
        <time>2020-07-10T00:53:10.252Z</time>
      </trkpt>
      <trkpt lat="47.37124" lon="0.71225">
        <ele>51.937338</ele>
        <time>2020-07-10T00:53:08.891Z</time>
      </trkpt>
      <trkpt lat="47.37133" lon="0.71238">
        <ele>51.989724</ele>
        <time>2020-07-10T00:53:06.119Z</time>
      </trkpt>
      <trkpt lat="47.37154" lon="0.71295">
        <ele>52.172184</ele>
        <time>2020-07-10T00:52:56.048Z</time>
      </trkpt>
      <trkpt lat="47.37162" lon="0.71324">
        <ele>52.259205</ele>
        <time>2020-07-10T00:52:50.692Z</time>
      </trkpt>
      <trkpt lat="47.37166" lon="0.71332">
        <ele>52.288115</ele>
        <time>2020-07-10T00:52:49.325Z</time>
      </trkpt>
      <trkpt lat="47.37183" lon="0.71373">
        <ele>52.421987</ele>
        <time>2020-07-10T00:52:41.433Z</time>
      </trkpt>
      <trkpt lat="47.37203" lon="0.71449">
        <ele>52.625313</ele>
        <time>2020-07-10T00:52:28.574Z</time>
      </trkpt>
      <trkpt lat="47.37213" lon="0.71497">
        <ele>52.696831</ele>
        <time>2020-07-10T00:52:21.052Z</time>
      </trkpt>
      <trkpt lat="47.37214" lon="0.71508">
        <ele>52.713048</ele>
        <time>2020-07-10T00:52:18.910Z</time>
      </trkpt>
      <trkpt lat="47.37215" lon="0.71517">
        <ele>52.726537</ele>
        <time>2020-07-10T00:52:17.406Z</time>
      </trkpt>
      <trkpt lat="47.37217" lon="0.71622">
        <ele>52.87537</ele>
        <time>2020-07-10T00:52:01.097Z</time>
      </trkpt>
      <trkpt lat="47.37217" lon="0.71638">
        <ele>52.89816</ele>
        <time>2020-07-10T00:51:58.975Z</time>
      </trkpt>
      <trkpt lat="47.37209" lon="0.71731">
        <ele>52.772866</ele>
        <time>2020-07-10T00:51:43.388Z</time>
      </trkpt>
      <trkpt lat="47.37209" lon="0.71798">
        <ele>52.419011</ele>
        <time>2020-07-10T00:51:32.010Z</time>
      </trkpt>
      <trkpt lat="47.37208" lon="0.718">
        <ele>52.406724</ele>
        <time>2020-07-10T00:51:31.707Z</time>
      </trkpt>
      <trkpt lat="47.37212" lon="0.71803">
        <ele>52.375183</ele>
        <time>2020-07-10T00:51:30.235Z</time>
      </trkpt>
      <trkpt lat="47.37204" lon="0.71821">
        <ele>52.268205</ele>
        <time>2020-07-10T00:51:26.572Z</time>
      </trkpt>
      <trkpt lat="47.37213" lon="0.71884">
        <ele>51.926232</ele>
        <time>2020-07-10T00:51:15.118Z</time>
      </trkpt>
      <trkpt lat="47.3721" lon="0.72027">
        <ele>51.175799</ele>
        <time>2020-07-10T00:50:48.143Z</time>
      </trkpt>
      <trkpt lat="47.37195" lon="0.72197">
        <ele>50.27224</ele>
        <time>2020-07-10T00:50:17.578Z</time>
      </trkpt>
      <trkpt lat="47.37192" lon="0.72205">
        <ele>50.223317</ele>
        <time>2020-07-10T00:50:16.063Z</time>
      </trkpt>
      <trkpt lat="47.37188" lon="0.72212">
        <ele>50.180326</ele>
        <time>2020-07-10T00:50:14.411Z</time>
      </trkpt>
      <trkpt lat="47.37166" lon="0.72232">
        <ele>50.173745</ele>
        <time>2020-07-10T00:50:08.296Z</time>
      </trkpt>
      <trkpt lat="47.37128" lon="0.72235">
        <ele>50.16388</ele>
        <time>2020-07-10T00:49:59.347Z</time>
      </trkpt>
      <trkpt lat="47.37107" lon="0.72243">
        <ele>50.158293</ele>
        <time>2020-07-10T00:49:54.442Z</time>
      </trkpt>
      <trkpt lat="47.37068" lon="0.72299">
        <ele>50.144204</ele>
        <time>2020-07-10T00:49:41.864Z</time>
      </trkpt>
      <trkpt lat="47.3706" lon="0.72311">
        <ele>50.141088</ele>
        <time>2020-07-10T00:49:39.277Z</time>
      </trkpt>
      <trkpt lat="47.37036" lon="0.72351">
        <ele>50.162897</ele>
        <time>2020-07-10T00:49:31.324Z</time>
      </trkpt>
      <trkpt lat="47.37014" lon="0.72385">
        <ele>50.265984</ele>
        <time>2020-07-10T00:49:24.340Z</time>
      </trkpt>
      <trkpt lat="47.37008" lon="0.72383">
        <ele>50.286899</ele>
        <time>2020-07-10T00:49:22.977Z</time>
      </trkpt>
      <trkpt lat="47.36992" lon="0.72408">
        <ele>50.361991</ele>
        <time>2020-07-10T00:49:17.881Z</time>
      </trkpt>
      <trkpt lat="47.36947" lon="0.72476">
        <ele>50.57459</ele>
        <time>2020-07-10T00:49:04.255Z</time>
      </trkpt>
      <trkpt lat="47.36919" lon="0.72518">
        <ele>50.7057</ele>
        <time>2020-07-10T00:48:55.819Z</time>
      </trkpt>
      <trkpt lat="47.36914" lon="0.72524">
        <ele>50.728344</ele>
        <time>2020-07-10T00:48:54.610Z</time>
      </trkpt>
      <trkpt lat="47.36913" lon="0.72526">
        <ele>50.780646</ele>
        <time>2020-07-10T00:48:54.160Z</time>
      </trkpt>
      <trkpt lat="47.36889" lon="0.7256">
        <ele>51.521784</ele>
        <time>2020-07-10T00:48:47.238Z</time>
      </trkpt>
      <trkpt lat="47.36853" lon="0.72605">
        <ele>52.559523</ele>
        <time>2020-07-10T00:48:38.293Z</time>
      </trkpt>
      <trkpt lat="47.36849" lon="0.72611">
        <ele>52.696703</ele>
        <time>2020-07-10T00:48:37.185Z</time>
      </trkpt>
      <trkpt lat="47.36841" lon="0.7262">
        <ele>52.915081</ele>
        <time>2020-07-10T00:48:35.502Z</time>
      </trkpt>
      <trkpt lat="47.36843" lon="0.72644">
        <ele>53.275281</ele>
        <time>2020-07-10T00:48:32.899Z</time>
      </trkpt>
      <trkpt lat="47.36843" lon="0.72688">
        <ele>53.939628</ele>
        <time>2020-07-10T00:48:28.331Z</time>
      </trkpt>
      <trkpt lat="47.36844" lon="0.72724">
        <ele>54.482173</ele>
        <time>2020-07-10T00:48:24.306Z</time>
      </trkpt>
      <trkpt lat="47.36845" lon="0.72745">
        <ele>54.828127</ele>
        <time>2020-07-10T00:48:22.146Z</time>
      </trkpt>
      <trkpt lat="47.36846" lon="0.72758">
        <ele>55.097957</ele>
        <time>2020-07-10T00:48:20.807Z</time>
      </trkpt>
      <trkpt lat="47.3684" lon="0.72765">
        <ele>55.323634</ele>
        <time>2020-07-10T00:48:18.451Z</time>
      </trkpt>
      <trkpt lat="47.36834" lon="0.72771">
        <ele>55.523885</ele>
        <time>2020-07-10T00:48:17.420Z</time>
      </trkpt>
      <trkpt lat="47.36821" lon="0.72787">
        <ele>56.036042</ele>
        <time>2020-07-10T00:48:14.827Z</time>
      </trkpt>
      <trkpt lat="47.36817" lon="0.72792">
        <ele>56.201074</ele>
        <time>2020-07-10T00:48:13.993Z</time>
      </trkpt>
      <trkpt lat="47.36813" lon="0.72796">
        <ele>56.332154</ele>
        <time>2020-07-10T00:48:12.429Z</time>
      </trkpt>
      <trkpt lat="47.3681" lon="0.728">
        <ele>56.468003</ele>
        <time>2020-07-10T00:48:11.215Z</time>
      </trkpt>
      <trkpt lat="47.36759" lon="0.72857">
        <ele>58.389301</ele>
        <time>2020-07-10T00:48:00.188Z</time>
      </trkpt>
      <trkpt lat="47.36758" lon="0.72848">
        <ele>58.566191</ele>
        <time>2020-07-10T00:47:58.155Z</time>
      </trkpt>
      <trkpt lat="47.36741" lon="0.72776">
        <ele>60.11562</ele>
        <time>2020-07-10T00:47:49.894Z</time>
      </trkpt>
      <trkpt lat="47.36709" lon="0.727">
        <ele>61.928695</ele>
        <time>2020-07-10T00:47:39.936Z</time>
      </trkpt>
      <trkpt lat="47.36707" lon="0.72691">
        <ele>62.10762</ele>
        <time>2020-07-10T00:47:38.327Z</time>
      </trkpt>
      <trkpt lat="47.36684" lon="0.72693">
        <ele>62.775635</ele>
        <time>2020-07-10T00:47:34.194Z</time>
      </trkpt>
      <trkpt lat="47.36682" lon="0.72693">
        <ele>62.852864</ele>
        <time>2020-07-10T00:47:33.231Z</time>
      </trkpt>
      <trkpt lat="47.36675" lon="0.72692">
        <ele>63.058337</ele>
        <time>2020-07-10T00:47:31.997Z</time>
      </trkpt>
      <trkpt lat="47.36642" lon="0.72682">
        <ele>64.068074</ele>
        <time>2020-07-10T00:47:26.198Z</time>
      </trkpt>
      <trkpt lat="47.36628" lon="0.7267">
        <ele>64.536118</ele>
        <time>2020-07-10T00:47:23.656Z</time>
      </trkpt>
      <trkpt lat="47.366" lon="0.72678">
        <ele>65.390089</ele>
        <time>2020-07-10T00:47:19.061Z</time>
      </trkpt>
      <trkpt lat="47.3655" lon="0.72702">
        <ele>67.852596</ele>
        <time>2020-07-10T00:47:11.148Z</time>
      </trkpt>
      <trkpt lat="47.36536" lon="0.72712">
        <ele>68.587337</ele>
        <time>2020-07-10T00:47:08.953Z</time>
      </trkpt>
      <trkpt lat="47.36531" lon="0.72716">
        <ele>68.862918</ele>
        <time>2020-07-10T00:47:08.176Z</time>
      </trkpt>
      <trkpt lat="47.36526" lon="0.7272">
        <ele>69.144715</ele>
        <time>2020-07-10T00:47:07.283Z</time>
      </trkpt>
      <trkpt lat="47.3647" lon="0.72767">
        <ele>72.219764</ele>
        <time>2020-07-10T00:46:57.561Z</time>
      </trkpt>
      <trkpt lat="47.36459" lon="0.72777">
        <ele>72.859424</ele>
        <time>2020-07-10T00:46:55.475Z</time>
      </trkpt>
      <trkpt lat="47.36453" lon="0.72782">
        <ele>73.174279</ele>
        <time>2020-07-10T00:46:54.462Z</time>
      </trkpt>
      <trkpt lat="47.36442" lon="0.72789">
        <ele>73.749017</ele>
        <time>2020-07-10T00:46:52.523Z</time>
      </trkpt>
      <trkpt lat="47.36404" lon="0.72801">
        <ele>74.836765</ele>
        <time>2020-07-10T00:46:46.520Z</time>
      </trkpt>
      <trkpt lat="47.36385" lon="0.72806">
        <ele>75.28741</ele>
        <time>2020-07-10T00:46:43.485Z</time>
      </trkpt>
      <trkpt lat="47.363" lon="0.72827">
        <ele>77.260141</ele>
        <time>2020-07-10T00:46:28.612Z</time>
      </trkpt>
      <trkpt lat="47.36036" lon="0.7296">
        <ele>79.221041</ele>
        <time>2020-07-10T00:45:28.319Z</time>
      </trkpt>
      <trkpt lat="47.3602" lon="0.72972">
        <ele>79.383004</ele>
        <time>2020-07-10T00:45:24.837Z</time>
      </trkpt>
      <trkpt lat="47.36014" lon="0.72977">
        <ele>79.443284</ele>
        <time>2020-07-10T00:45:23.538Z</time>
      </trkpt>
      <trkpt lat="47.36006" lon="0.72984">
        <ele>79.52126</ele>
        <time>2020-07-10T00:45:21.871Z</time>
      </trkpt>
      <trkpt lat="47.35996" lon="0.72993">
        <ele>79.627923</ele>
        <time>2020-07-10T00:45:19.533Z</time>
      </trkpt>
      <trkpt lat="47.35965" lon="0.73023">
        <ele>79.953783</ele>
        <time>2020-07-10T00:45:12.583Z</time>
      </trkpt>
      <trkpt lat="47.35963" lon="0.73025">
        <ele>79.974691</ele>
        <time>2020-07-10T00:45:12.159Z</time>
      </trkpt>
      <trkpt lat="47.35951" lon="0.73036">
        <ele>80.097492</ele>
        <time>2020-07-10T00:45:09.532Z</time>
      </trkpt>
      <trkpt lat="47.35939" lon="0.73048">
        <ele>80.22835</ele>
        <time>2020-07-10T00:45:06.725Z</time>
      </trkpt>
      <trkpt lat="47.35905" lon="0.73073">
        <ele>80.605722</ele>
        <time>2020-07-10T00:44:59.659Z</time>
      </trkpt>
      <trkpt lat="47.35899" lon="0.73077">
        <ele>80.678702</ele>
        <time>2020-07-10T00:44:58.463Z</time>
      </trkpt>
      <trkpt lat="47.35889" lon="0.73083">
        <ele>80.789374</ele>
        <time>2020-07-10T00:44:56.397Z</time>
      </trkpt>
      <trkpt lat="47.35767" lon="0.7315">
        <ele>82.148934</ele>
        <time>2020-07-10T00:44:31.618Z</time>
      </trkpt>
      <trkpt lat="47.35759" lon="0.73152">
        <ele>82.196929</ele>
        <time>2020-07-10T00:44:30.080Z</time>
      </trkpt>
      <trkpt lat="47.35755" lon="0.73154">
        <ele>82.204577</ele>
        <time>2020-07-10T00:44:29.185Z</time>
      </trkpt>
      <trkpt lat="47.35727" lon="0.7316">
        <ele>82.253562</ele>
        <time>2020-07-10T00:44:23.014Z</time>
      </trkpt>
      <trkpt lat="47.35692" lon="0.73171">
        <ele>82.317107</ele>
        <time>2020-07-10T00:44:14.749Z</time>
      </trkpt>
      <trkpt lat="47.35689" lon="0.73172">
        <ele>82.322416</ele>
        <time>2020-07-10T00:44:13.907Z</time>
      </trkpt>
      <trkpt lat="47.35678" lon="0.73175">
        <ele>82.341481</ele>
        <time>2020-07-10T00:44:11.465Z</time>
      </trkpt>
      <trkpt lat="47.35668" lon="0.73178">
        <ele>82.359098</ele>
        <time>2020-07-10T00:44:09.212Z</time>
      </trkpt>
      <trkpt lat="47.35665" lon="0.73179">
        <ele>82.363871</ele>
        <time>2020-07-10T00:44:08.634Z</time>
      </trkpt>
      <trkpt lat="47.35507" lon="0.73201">
        <ele>82.945735</ele>
        <time>2020-07-10T00:43:34.181Z</time>
      </trkpt>
      <trkpt lat="47.35497" lon="0.73203">
        <ele>83.004218</ele>
        <time>2020-07-10T00:43:32.128Z</time>
      </trkpt>
      <trkpt lat="47.35486" lon="0.73207">
        <ele>83.064466</ele>
        <time>2020-07-10T00:43:30.009Z</time>
      </trkpt>
      <trkpt lat="47.35446" lon="0.73224">
        <ele>83.298799</ele>
        <time>2020-07-10T00:43:21.689Z</time>
      </trkpt>
      <trkpt lat="47.35391" lon="0.73258">
        <ele>83.713297</ele>
        <time>2020-07-10T00:43:10.142Z</time>
      </trkpt>
      <trkpt lat="47.35376" lon="0.73264">
        <ele>83.849984</ele>
        <time>2020-07-10T00:43:07.187Z</time>
      </trkpt>
      <trkpt lat="47.35356" lon="0.7327">
        <ele>84.040445</ele>
        <time>2020-07-10T00:43:03.233Z</time>
      </trkpt>
      <trkpt lat="47.35309" lon="0.73282">
        <ele>84.481985</ele>
        <time>2020-07-10T00:42:53.730Z</time>
      </trkpt>
      <trkpt lat="47.353" lon="0.73284">
        <ele>84.565824</ele>
        <time>2020-07-10T00:42:52.085Z</time>
      </trkpt>
      <trkpt lat="47.35283" lon="0.73289">
        <ele>84.718269</ele>
        <time>2020-07-10T00:42:48.771Z</time>
      </trkpt>
      <trkpt lat="47.35281" lon="0.7329">
        <ele>84.744447</ele>
        <time>2020-07-10T00:42:48.192Z</time>
      </trkpt>
      <trkpt lat="47.35242" lon="0.73302">
        <ele>85.104731</ele>
        <time>2020-07-10T00:42:40.514Z</time>
      </trkpt>
      <trkpt lat="47.35233" lon="0.73304">
        <ele>85.185482</ele>
        <time>2020-07-10T00:42:38.820Z</time>
      </trkpt>
      <trkpt lat="47.35041" lon="0.73366">
        <ele>87.060998</ele>
        <time>2020-07-10T00:42:00.062Z</time>
      </trkpt>
      <trkpt lat="47.3501" lon="0.73376">
        <ele>87.583826</ele>
        <time>2020-07-10T00:41:54.240Z</time>
      </trkpt>
      <trkpt lat="47.35" lon="0.73379">
        <ele>87.768843</ele>
        <time>2020-07-10T00:41:52.150Z</time>
      </trkpt>
      <trkpt lat="47.34894" lon="0.73414">
        <ele>89.564761</ele>
        <time>2020-07-10T00:41:32.966Z</time>
      </trkpt>
      <trkpt lat="47.34885" lon="0.73417">
        <ele>89.717352</ele>
        <time>2020-07-10T00:41:31.353Z</time>
      </trkpt>
      <trkpt lat="47.3488" lon="0.73418">
        <ele>89.798107</ele>
        <time>2020-07-10T00:41:30.503Z</time>
      </trkpt>
      <trkpt lat="47.34873" lon="0.7342">
        <ele>89.923108</ele>
        <time>2020-07-10T00:41:29.299Z</time>
      </trkpt>
      <trkpt lat="47.34845" lon="0.73429">
        <ele>90.415797</ele>
        <time>2020-07-10T00:41:24.319Z</time>
      </trkpt>
      <trkpt lat="47.34827" lon="0.73435">
        <ele>90.747914</ele>
        <time>2020-07-10T00:41:20.933Z</time>
      </trkpt>
      <trkpt lat="47.34823" lon="0.73437">
        <ele>90.813117</ele>
        <time>2020-07-10T00:41:20.314Z</time>
      </trkpt>
      <trkpt lat="47.34767" lon="0.7346">
        <ele>91.8336</ele>
        <time>2020-07-10T00:41:09.924Z</time>
      </trkpt>
      <trkpt lat="47.34744" lon="0.7347">
        <ele>92.241523</ele>
        <time>2020-07-10T00:41:05.690Z</time>
      </trkpt>
      <trkpt lat="47.34743" lon="0.7347">
        <ele>92.270298</ele>
        <time>2020-07-10T00:41:05.369Z</time>
      </trkpt>
      <trkpt lat="47.34729" lon="0.73476">
        <ele>92.519728</ele>
        <time>2020-07-10T00:41:02.804Z</time>
      </trkpt>
      <trkpt lat="47.34693" lon="0.73493">
        <ele>92.947816</ele>
        <time>2020-07-10T00:40:55.558Z</time>
      </trkpt>
      <trkpt lat="47.3468" lon="0.73498">
        <ele>93.00774</ele>
        <time>2020-07-10T00:40:53.169Z</time>
      </trkpt>
      <trkpt lat="47.34675" lon="0.73499">
        <ele>93.034171</ele>
        <time>2020-07-10T00:40:52.031Z</time>
      </trkpt>
      <trkpt lat="47.34652" lon="0.73505">
        <ele>93.143169</ele>
        <time>2020-07-10T00:40:47.362Z</time>
      </trkpt>
      <trkpt lat="47.34618" lon="0.73513">
        <ele>93.303187</ele>
        <time>2020-07-10T00:40:40.349Z</time>
      </trkpt>
      <trkpt lat="47.34611" lon="0.73514">
        <ele>93.335244</ele>
        <time>2020-07-10T00:40:38.943Z</time>
      </trkpt>
      <trkpt lat="47.34585" lon="0.73514">
        <ele>93.455537</ele>
        <time>2020-07-10T00:40:33.419Z</time>
      </trkpt>
      <trkpt lat="47.3456" lon="0.73526">
        <ele>93.580139</ele>
        <time>2020-07-10T00:40:27.415Z</time>
      </trkpt>
      <trkpt lat="47.34543" lon="0.7353">
        <ele>93.659433</ele>
        <time>2020-07-10T00:40:23.543Z</time>
      </trkpt>
      <trkpt lat="47.34525" lon="0.73534">
        <ele>93.6548</ele>
        <time>2020-07-10T00:40:19.340Z</time>
      </trkpt>
      <trkpt lat="47.34497" lon="0.7354">
        <ele>93.516815</ele>
        <time>2020-07-10T00:40:12.621Z</time>
      </trkpt>
      <trkpt lat="47.34459" lon="0.73556">
        <ele>93.325289</ele>
        <time>2020-07-10T00:40:03.181Z</time>
      </trkpt>
      <trkpt lat="47.34444" lon="0.73565">
        <ele>93.242066</ele>
        <time>2020-07-10T00:39:59.011Z</time>
      </trkpt>
      <trkpt lat="47.34438" lon="0.73569">
        <ele>93.210473</ele>
        <time>2020-07-10T00:39:57.430Z</time>
      </trkpt>
      <trkpt lat="47.34436" lon="0.7357">
        <ele>93.201847</ele>
        <time>2020-07-10T00:39:56.893Z</time>
      </trkpt>
      <trkpt lat="47.34401" lon="0.736">
        <ele>93.002516</ele>
        <time>2020-07-10T00:39:46.920Z</time>
      </trkpt>
      <trkpt lat="47.34356" lon="0.73636">
        <ele>92.70553</ele>
        <time>2020-07-10T00:39:34.455Z</time>
      </trkpt>
      <trkpt lat="47.34346" lon="0.73644">
        <ele>92.603986</ele>
        <time>2020-07-10T00:39:31.458Z</time>
      </trkpt>
      <trkpt lat="47.34323" lon="0.73661">
        <ele>92.382515</ele>
        <time>2020-07-10T00:39:24.909Z</time>
      </trkpt>
      <trkpt lat="47.34271" lon="0.73699">
        <ele>91.883221</ele>
        <time>2020-07-10T00:39:09.605Z</time>
      </trkpt>
      <trkpt lat="47.34217" lon="0.73744">
        <ele>91.341999</ele>
        <time>2020-07-10T00:38:53.584Z</time>
      </trkpt>
      <trkpt lat="47.34211" lon="0.7375">
        <ele>91.278169</ele>
        <time>2020-07-10T00:38:51.553Z</time>
      </trkpt>
      <trkpt lat="47.34211" lon="0.73752">
        <ele>91.262406</ele>
        <time>2020-07-10T00:38:51.106Z</time>
      </trkpt>
      <trkpt lat="47.34212" lon="0.73755">
        <ele>91.250944</ele>
        <time>2020-07-10T00:38:50.591Z</time>
      </trkpt>
      <trkpt lat="47.34211" lon="0.73759">
        <ele>91.233395</ele>
        <time>2020-07-10T00:38:49.751Z</time>
      </trkpt>
      <trkpt lat="47.3421" lon="0.73763">
        <ele>91.215708</ele>
        <time>2020-07-10T00:38:49.045Z</time>
      </trkpt>
      <trkpt lat="47.34208" lon="0.73767">
        <ele>91.198505</ele>
        <time>2020-07-10T00:38:48.372Z</time>
      </trkpt>
      <trkpt lat="47.34206" lon="0.73768">
        <ele>91.184527</ele>
        <time>2020-07-10T00:38:47.835Z</time>
      </trkpt>
      <trkpt lat="47.34204" lon="0.73769">
        <ele>91.17022</ele>
        <time>2020-07-10T00:38:47.295Z</time>
      </trkpt>
      <trkpt lat="47.34201" lon="0.7377">
        <ele>91.153508</ele>
        <time>2020-07-10T00:38:46.665Z</time>
      </trkpt>
      <trkpt lat="47.34196" lon="0.73766">
        <ele>91.120659</ele>
        <time>2020-07-10T00:38:45.445Z</time>
      </trkpt>
      <trkpt lat="47.34194" lon="0.73763">
        <ele>91.103844</ele>
        <time>2020-07-10T00:38:44.815Z</time>
      </trkpt>
      <trkpt lat="47.34189" lon="0.73767">
        <ele>91.064931</ele>
        <time>2020-07-10T00:38:43.019Z</time>
      </trkpt>
      <trkpt lat="47.34154" lon="0.73794">
        <ele>90.830369</ele>
        <time>2020-07-10T00:38:33.457Z</time>
      </trkpt>
      <trkpt lat="47.34149" lon="0.73798">
        <ele>90.798057</ele>
        <time>2020-07-10T00:38:31.943Z</time>
      </trkpt>
      <trkpt lat="47.34054" lon="0.73871">
        <ele>90.170592</ele>
        <time>2020-07-10T00:38:05.585Z</time>
      </trkpt>
      <trkpt lat="47.34039" lon="0.73883">
        <ele>90.106575</ele>
        <time>2020-07-10T00:38:01.548Z</time>
      </trkpt>
      <trkpt lat="47.33969" lon="0.73924">
        <ele>89.8284</ele>
        <time>2020-07-10T00:37:44.009Z</time>
      </trkpt>
      <trkpt lat="47.33888" lon="0.73957">
        <ele>89.519744</ele>
        <time>2020-07-10T00:37:23.957Z</time>
      </trkpt>
      <trkpt lat="47.33881" lon="0.73956">
        <ele>89.517562</ele>
        <time>2020-07-10T00:37:21.735Z</time>
      </trkpt>
      <trkpt lat="47.33871" lon="0.73952">
        <ele>89.514757</ele>
        <time>2020-07-10T00:37:19.776Z</time>
      </trkpt>
      <trkpt lat="47.33724" lon="0.73807">
        <ele>89.780772</ele>
        <time>2020-07-10T00:36:39.520Z</time>
      </trkpt>
      <trkpt lat="47.33701" lon="0.73782">
        <ele>90.306337</ele>
        <time>2020-07-10T00:36:34.304Z</time>
      </trkpt>
      <trkpt lat="47.33682" lon="0.73761">
        <ele>90.750409</ele>
        <time>2020-07-10T00:36:29.982Z</time>
      </trkpt>
      <trkpt lat="47.33679" lon="0.73765">
        <ele>90.824911</ele>
        <time>2020-07-10T00:36:29.329Z</time>
      </trkpt>
      <trkpt lat="47.33668" lon="0.73766">
        <ele>91.041477</ele>
        <time>2020-07-10T00:36:27.278Z</time>
      </trkpt>
      <trkpt lat="47.33664" lon="0.73763">
        <ele>91.117014</ele>
        <time>2020-07-10T00:36:26.575Z</time>
      </trkpt>
      <trkpt lat="47.33646" lon="0.7379">
        <ele>91.61339</ele>
        <time>2020-07-10T00:36:22.044Z</time>
      </trkpt>
      <trkpt lat="47.33625" lon="0.73815">
        <ele>92.113563</ele>
        <time>2020-07-10T00:36:17.523Z</time>
      </trkpt>
      <trkpt lat="47.33597" lon="0.73826">
        <ele>92.659731</ele>
        <time>2020-07-10T00:36:12.557Z</time>
      </trkpt>
      <trkpt lat="47.33583" lon="0.73827">
        <ele>92.924446</ele>
        <time>2020-07-10T00:36:10.400Z</time>
      </trkpt>
      <trkpt lat="47.33571" lon="0.73829">
        <ele>93.176866</ele>
        <time>2020-07-10T00:36:08.376Z</time>
      </trkpt>
      <trkpt lat="47.33563" lon="0.73832">
        <ele>93.367286</ele>
        <time>2020-07-10T00:36:06.723Z</time>
      </trkpt>
      <trkpt lat="47.33559" lon="0.73835">
        <ele>93.448656</ele>
        <time>2020-07-10T00:36:06.151Z</time>
      </trkpt>
      <trkpt lat="47.33558" lon="0.73838">
        <ele>93.499907</ele>
        <time>2020-07-10T00:36:05.751Z</time>
      </trkpt>
      <trkpt lat="47.33556" lon="0.7384">
        <ele>93.55295</ele>
        <time>2020-07-10T00:36:05.353Z</time>
      </trkpt>
      <trkpt lat="47.33554" lon="0.73843">
        <ele>93.606802</ele>
        <time>2020-07-10T00:36:04.979Z</time>
      </trkpt>
      <trkpt lat="47.33545" lon="0.73846">
        <ele>93.813416</ele>
        <time>2020-07-10T00:36:03.325Z</time>
      </trkpt>
      <trkpt lat="47.33542" lon="0.73846">
        <ele>93.866995</ele>
        <time>2020-07-10T00:36:02.933Z</time>
      </trkpt>
      <trkpt lat="47.3354" lon="0.73845">
        <ele>93.916327</ele>
        <time>2020-07-10T00:36:02.547Z</time>
      </trkpt>
      <trkpt lat="47.33534" lon="0.73839">
        <ele>94.067592</ele>
        <time>2020-07-10T00:36:01.244Z</time>
      </trkpt>
      <trkpt lat="47.33531" lon="0.73832">
        <ele>94.186797</ele>
        <time>2020-07-10T00:36:00.352Z</time>
      </trkpt>
      <trkpt lat="47.33531" lon="0.73827">
        <ele>94.249591</ele>
        <time>2020-07-10T00:35:59.898Z</time>
      </trkpt>
      <trkpt lat="47.33531" lon="0.73822">
        <ele>94.330219</ele>
        <time>2020-07-10T00:35:59.303Z</time>
      </trkpt>
      <trkpt lat="47.33528" lon="0.73816">
        <ele>94.437535</ele>
        <time>2020-07-10T00:35:58.506Z</time>
      </trkpt>
      <trkpt lat="47.33525" lon="0.73811">
        <ele>94.529784</ele>
        <time>2020-07-10T00:35:57.766Z</time>
      </trkpt>
      <trkpt lat="47.33522" lon="0.73806">
        <ele>94.616915</ele>
        <time>2020-07-10T00:35:57.096Z</time>
      </trkpt>
      <trkpt lat="47.33511" lon="0.73795">
        <ele>94.898927</ele>
        <time>2020-07-10T00:35:54.452Z</time>
      </trkpt>
      <trkpt lat="47.33499" lon="0.7379">
        <ele>95.161185</ele>
        <time>2020-07-10T00:35:52.503Z</time>
      </trkpt>
      <trkpt lat="47.33382" lon="0.73794">
        <ele>96.504573</ele>
        <time>2020-07-10T00:35:30.396Z</time>
      </trkpt>
      <trkpt lat="47.33374" lon="0.73796">
        <ele>96.476377</ele>
        <time>2020-07-10T00:35:28.695Z</time>
      </trkpt>
      <trkpt lat="47.33369" lon="0.73797">
        <ele>96.459538</ele>
        <time>2020-07-10T00:35:26.923Z</time>
      </trkpt>
      <trkpt lat="47.33313" lon="0.7382">
        <ele>96.261213</ele>
        <time>2020-07-10T00:35:12.799Z</time>
      </trkpt>
      <trkpt lat="47.33168" lon="0.73904">
        <ele>94.747911</ele>
        <time>2020-07-10T00:34:29.614Z</time>
      </trkpt>
      <trkpt lat="47.33124" lon="0.73923">
        <ele>94.126626</ele>
        <time>2020-07-10T00:34:16.683Z</time>
      </trkpt>
      <trkpt lat="47.33103" lon="0.73928">
        <ele>93.825602</ele>
        <time>2020-07-10T00:34:10.570Z</time>
      </trkpt>
      <trkpt lat="47.33091" lon="0.73931">
        <ele>93.658634</ele>
        <time>2020-07-10T00:34:06.620Z</time>
      </trkpt>
      <trkpt lat="47.32984" lon="0.73928">
        <ele>93.202835</ele>
        <time>2020-07-10T00:33:38.715Z</time>
      </trkpt>
      <trkpt lat="47.32943" lon="0.73934">
        <ele>93.052295</ele>
        <time>2020-07-10T00:33:29.330Z</time>
      </trkpt>
      <trkpt lat="47.32868" lon="0.73944">
        <ele>93.537025</ele>
        <time>2020-07-10T00:33:14.903Z</time>
      </trkpt>
      <trkpt lat="47.32848" lon="0.73947">
        <ele>93.88866</ele>
        <time>2020-07-10T00:33:11.230Z</time>
      </trkpt>
      <trkpt lat="47.32833" lon="0.73949">
        <ele>94.156399</ele>
        <time>2020-07-10T00:33:08.392Z</time>
      </trkpt>
      <trkpt lat="47.32823" lon="0.73951">
        <ele>94.328059</ele>
        <time>2020-07-10T00:33:06.648Z</time>
      </trkpt>
      <trkpt lat="47.32801" lon="0.73958">
        <ele>94.70236</ele>
        <time>2020-07-10T00:33:02.797Z</time>
      </trkpt>
      <trkpt lat="47.32785" lon="0.73964">
        <ele>94.985845</ele>
        <time>2020-07-10T00:33:00.007Z</time>
      </trkpt>
      <trkpt lat="47.32763" lon="0.73977">
        <ele>95.404533</ele>
        <time>2020-07-10T00:32:55.831Z</time>
      </trkpt>
      <trkpt lat="47.32744" lon="0.73988">
        <ele>95.741953</ele>
        <time>2020-07-10T00:32:52.428Z</time>
      </trkpt>
      <trkpt lat="47.32698" lon="0.74017">
        <ele>96.19848</ele>
        <time>2020-07-10T00:32:43.529Z</time>
      </trkpt>
      <trkpt lat="47.32655" lon="0.74042">
        <ele>96.462829</ele>
        <time>2020-07-10T00:32:34.690Z</time>
      </trkpt>
      <trkpt lat="47.32612" lon="0.74067">
        <ele>96.720988</ele>
        <time>2020-07-10T00:32:24.983Z</time>
      </trkpt>
      <trkpt lat="47.3258" lon="0.74077">
        <ele>96.909877</ele>
        <time>2020-07-10T00:32:17.040Z</time>
      </trkpt>
      <trkpt lat="47.32563" lon="0.7408">
        <ele>97.003896</ele>
        <time>2020-07-10T00:32:12.961Z</time>
      </trkpt>
      <trkpt lat="47.32552" lon="0.74081">
        <ele>96.86862</ele>
        <time>2020-07-10T00:32:09.819Z</time>
      </trkpt>
      <trkpt lat="47.3254" lon="0.74081">
        <ele>96.682851</ele>
        <time>2020-07-10T00:32:06.786Z</time>
      </trkpt>
      <trkpt lat="47.32531" lon="0.7408">
        <ele>96.530752</ele>
        <time>2020-07-10T00:32:04.288Z</time>
      </trkpt>
      <trkpt lat="47.32512" lon="0.74077">
        <ele>96.219393</ele>
        <time>2020-07-10T00:31:58.811Z</time>
      </trkpt>
      <trkpt lat="47.32496" lon="0.74075">
        <ele>95.967516</ele>
        <time>2020-07-10T00:31:54.487Z</time>
      </trkpt>
      <trkpt lat="47.3247" lon="0.7407">
        <ele>95.543963</ele>
        <time>2020-07-10T00:31:46.686Z</time>
      </trkpt>
      <trkpt lat="47.32308" lon="0.7404">
        <ele>93.061711</ele>
        <time>2020-07-10T00:30:57.329Z</time>
      </trkpt>
      <trkpt lat="47.32254" lon="0.74036">
        <ele>92.30142</ele>
        <time>2020-07-10T00:30:42.477Z</time>
      </trkpt>
      <trkpt lat="47.32141" lon="0.74039">
        <ele>91.536147</ele>
        <time>2020-07-10T00:30:14.034Z</time>
      </trkpt>
      <trkpt lat="47.32137" lon="0.7404">
        <ele>91.533764</ele>
        <time>2020-07-10T00:30:13.223Z</time>
      </trkpt>
      <trkpt lat="47.32075" lon="0.74041">
        <ele>91.492882</ele>
        <time>2020-07-10T00:29:59.459Z</time>
      </trkpt>
      <trkpt lat="47.31824" lon="0.74063">
        <ele>92.572327</ele>
        <time>2020-07-10T00:29:08.865Z</time>
      </trkpt>
      <trkpt lat="47.31782" lon="0.74068">
        <ele>92.611886</ele>
        <time>2020-07-10T00:29:00.077Z</time>
      </trkpt>
      <trkpt lat="47.31778" lon="0.74068">
        <ele>92.615508</ele>
        <time>2020-07-10T00:28:59.263Z</time>
      </trkpt>
      <trkpt lat="47.31605" lon="0.74085">
        <ele>92.322958</ele>
        <time>2020-07-10T00:28:19.399Z</time>
      </trkpt>
      <trkpt lat="47.31468" lon="0.74096">
        <ele>91.339325</ele>
        <time>2020-07-10T00:27:43.815Z</time>
      </trkpt>
      <trkpt lat="47.31445" lon="0.74095">
        <ele>91.097432</ele>
        <time>2020-07-10T00:27:38.085Z</time>
      </trkpt>
      <trkpt lat="47.3143" lon="0.74093">
        <ele>90.927135</ele>
        <time>2020-07-10T00:27:33.657Z</time>
      </trkpt>
      <trkpt lat="47.31354" lon="0.74076">
        <ele>90.105847</ele>
        <time>2020-07-10T00:27:13.335Z</time>
      </trkpt>
      <trkpt lat="47.31315" lon="0.74075">
        <ele>89.683767</ele>
        <time>2020-07-10T00:27:02.923Z</time>
      </trkpt>
      <trkpt lat="47.31293" lon="0.74077">
        <ele>89.494464</ele>
        <time>2020-07-10T00:26:56.930Z</time>
      </trkpt>
      <trkpt lat="47.31244" lon="0.74085">
        <ele>89.153788</ele>
        <time>2020-07-10T00:26:43.990Z</time>
      </trkpt>
      <trkpt lat="47.31205" lon="0.74091">
        <ele>88.886928</ele>
        <time>2020-07-10T00:26:34.113Z</time>
      </trkpt>
      <trkpt lat="47.31127" lon="0.74118">
        <ele>88.347876</ele>
        <time>2020-07-10T00:26:14.714Z</time>
      </trkpt>
      <trkpt lat="47.3111" lon="0.74124">
        <ele>88.405564</ele>
        <time>2020-07-10T00:26:10.722Z</time>
      </trkpt>
      <trkpt lat="47.31054" lon="0.74133">
        <ele>88.590109</ele>
        <time>2020-07-10T00:25:58.547Z</time>
      </trkpt>
      <trkpt lat="47.30908" lon="0.74164">
        <ele>89.108316</ele>
        <time>2020-07-10T00:25:28.542Z</time>
      </trkpt>
      <trkpt lat="47.3085" lon="0.74173">
        <ele>89.348159</ele>
        <time>2020-07-10T00:25:16.599Z</time>
      </trkpt>
      <trkpt lat="47.30824" lon="0.74173">
        <ele>89.453055</ele>
        <time>2020-07-10T00:25:11.247Z</time>
      </trkpt>
      <trkpt lat="47.30776" lon="0.7417">
        <ele>89.653571</ele>
        <time>2020-07-10T00:25:00.834Z</time>
      </trkpt>
      <trkpt lat="47.30713" lon="0.74145">
        <ele>89.942513</ele>
        <time>2020-07-10T00:24:47.100Z</time>
      </trkpt>
      <trkpt lat="47.30642" lon="0.74109">
        <ele>90.2797</ele>
        <time>2020-07-10T00:24:31.152Z</time>
      </trkpt>
      <trkpt lat="47.30638" lon="0.74109">
        <ele>90.298619</ele>
        <time>2020-07-10T00:24:30.318Z</time>
      </trkpt>
      <trkpt lat="47.30292" lon="0.74086">
        <ele>93.057158</ele>
        <time>2020-07-10T00:23:22.679Z</time>
      </trkpt>
      <trkpt lat="47.30229" lon="0.74068">
        <ele>93.482336</ele>
        <time>2020-07-10T00:23:09.747Z</time>
      </trkpt>
      <trkpt lat="47.30181" lon="0.74046">
        <ele>93.521387</ele>
        <time>2020-07-10T00:22:59.146Z</time>
      </trkpt>
      <trkpt lat="47.3015" lon="0.74032">
        <ele>93.546442</ele>
        <time>2020-07-10T00:22:52.135Z</time>
      </trkpt>
      <trkpt lat="47.30007" lon="0.73971">
        <ele>93.100154</ele>
        <time>2020-07-10T00:22:17.975Z</time>
      </trkpt>
      <trkpt lat="47.29956" lon="0.73954">
        <ele>92.664142</ele>
        <time>2020-07-10T00:22:04.439Z</time>
      </trkpt>
      <trkpt lat="47.29871" lon="0.73936">
        <ele>91.435616</ele>
        <time>2020-07-10T00:21:41.095Z</time>
      </trkpt>
      <trkpt lat="47.29837" lon="0.73923">
        <ele>90.286506</ele>
        <time>2020-07-10T00:21:30.314Z</time>
      </trkpt>
      <trkpt lat="47.29778" lon="0.73897">
        <ele>88.257787</ele>
        <time>2020-07-10T00:21:08.833Z</time>
      </trkpt>
      <trkpt lat="47.29729" lon="0.73875">
        <ele>86.571723</ele>
        <time>2020-07-10T00:20:48.576Z</time>
      </trkpt>
      <trkpt lat="47.29669" lon="0.73843">
        <ele>82.914113</ele>
        <time>2020-07-10T00:20:20.477Z</time>
      </trkpt>
      <trkpt lat="47.29624" lon="0.73816">
        <ele>79.788755</ele>
        <time>2020-07-10T00:19:56.700Z</time>
      </trkpt>
      <trkpt lat="47.29541" lon="0.73744">
        <ele>73.844693</ele>
        <time>2020-07-10T00:19:07.455Z</time>
      </trkpt>
      <trkpt lat="47.29443" lon="0.7368">
        <ele>67.764552</ele>
        <time>2020-07-10T00:18:16.683Z</time>
      </trkpt>
      <trkpt lat="47.29367" lon="0.73619">
        <ele>63.817492</ele>
        <time>2020-07-10T00:17:43.012Z</time>
      </trkpt>
      <trkpt lat="47.29226" lon="0.73583">
        <ele>59.946517</ele>
        <time>2020-07-10T00:16:58.103Z</time>
      </trkpt>
      <trkpt lat="47.29212" lon="0.73569">
        <ele>59.570142</ele>
        <time>2020-07-10T00:16:52.825Z</time>
      </trkpt>
      <trkpt lat="47.29126" lon="0.7341">
        <ele>56.770412</ele>
        <time>2020-07-10T00:16:10.907Z</time>
      </trkpt>
      <trkpt lat="47.29121" lon="0.73408">
        <ele>56.672254</ele>
        <time>2020-07-10T00:16:08.987Z</time>
      </trkpt>
      <trkpt lat="47.29118" lon="0.73414">
        <ele>56.569427</ele>
        <time>2020-07-10T00:16:07.443Z</time>
      </trkpt>
      <trkpt lat="47.29111" lon="0.73422">
        <ele>56.384807</ele>
        <time>2020-07-10T00:16:05.072Z</time>
      </trkpt>
      <trkpt lat="47.2911" lon="0.73423">
        <ele>56.364283</ele>
        <time>2020-07-10T00:16:04.617Z</time>
      </trkpt>
      <trkpt lat="47.29104" lon="0.73433">
        <ele>56.184911</ele>
        <time>2020-07-10T00:16:02.114Z</time>
      </trkpt>
      <trkpt lat="47.29097" lon="0.73439">
        <ele>56.114876</ele>
        <time>2020-07-10T00:15:59.705Z</time>
      </trkpt>
      <trkpt lat="47.29096" lon="0.73443">
        <ele>56.095693</ele>
        <time>2020-07-10T00:15:58.461Z</time>
      </trkpt>
      <trkpt lat="47.29094" lon="0.73447">
        <ele>56.07625</ele>
        <time>2020-07-10T00:15:57.426Z</time>
      </trkpt>
      <trkpt lat="47.29091" lon="0.73449">
        <ele>56.057096</ele>
        <time>2020-07-10T00:15:56.515Z</time>
      </trkpt>
      <trkpt lat="47.29079" lon="0.73446">
        <ele>55.984353</ele>
        <time>2020-07-10T00:15:53.180Z</time>
      </trkpt>
      <trkpt lat="47.29077" lon="0.73442">
        <ele>55.965075</ele>
        <time>2020-07-10T00:15:52.294Z</time>
      </trkpt>
      <trkpt lat="47.29038" lon="0.73464">
        <ele>55.71268</ele>
        <time>2020-07-10T00:15:40.701Z</time>
      </trkpt>
      <trkpt lat="47.28942" lon="0.73522">
        <ele>55.093677</ele>
        <time>2020-07-10T00:15:16.920Z</time>
      </trkpt>
      <trkpt lat="47.28906" lon="0.73544">
        <ele>55.66461</ele>
        <time>2020-07-10T00:15:09.546Z</time>
      </trkpt>
      <trkpt lat="47.28854" lon="0.73576">
        <ele>56.590777</ele>
        <time>2020-07-10T00:14:59.342Z</time>
      </trkpt>
      <trkpt lat="47.28833" lon="0.7359">
        <ele>56.982928</ele>
        <time>2020-07-10T00:14:55.112Z</time>
      </trkpt>
      <trkpt lat="47.28824" lon="0.73596">
        <ele>57.13469</ele>
        <time>2020-07-10T00:14:53.501Z</time>
      </trkpt>
      <trkpt lat="47.28819" lon="0.73599">
        <ele>57.222643</ele>
        <time>2020-07-10T00:14:52.580Z</time>
      </trkpt>
      <trkpt lat="47.28818" lon="0.73599">
        <ele>57.249273</ele>
        <time>2020-07-10T00:14:52.286Z</time>
      </trkpt>
      <trkpt lat="47.2881" lon="0.73604">
        <ele>57.384672</ele>
        <time>2020-07-10T00:14:50.849Z</time>
      </trkpt>
      <trkpt lat="47.28803" lon="0.73608">
        <ele>57.517752</ele>
        <time>2020-07-10T00:14:49.450Z</time>
      </trkpt>
      <trkpt lat="47.28795" lon="0.73612">
        <ele>57.658161</ele>
        <time>2020-07-10T00:14:47.938Z</time>
      </trkpt>
      <trkpt lat="47.28786" lon="0.73618">
        <ele>57.805393</ele>
        <time>2020-07-10T00:14:46.404Z</time>
      </trkpt>
      <trkpt lat="47.28752" lon="0.7364">
        <ele>58.785251</ele>
        <time>2020-07-10T00:14:40.060Z</time>
      </trkpt>
      <trkpt lat="47.28747" lon="0.73643">
        <ele>58.975733</ele>
        <time>2020-07-10T00:14:39.048Z</time>
      </trkpt>
      <trkpt lat="47.2874" lon="0.73648">
        <ele>59.232959</ele>
        <time>2020-07-10T00:14:37.721Z</time>
      </trkpt>
      <trkpt lat="47.28729" lon="0.73655">
        <ele>59.61481</ele>
        <time>2020-07-10T00:14:35.682Z</time>
      </trkpt>
      <trkpt lat="47.28721" lon="0.73659">
        <ele>59.871658</ele>
        <time>2020-07-10T00:14:34.337Z</time>
      </trkpt>
      <trkpt lat="47.28706" lon="0.73666">
        <ele>60.397094</ele>
        <time>2020-07-10T00:14:31.659Z</time>
      </trkpt>
      <trkpt lat="47.287" lon="0.73669">
        <ele>60.608816</ele>
        <time>2020-07-10T00:14:30.551Z</time>
      </trkpt>
      <trkpt lat="47.28694" lon="0.73671">
        <ele>60.801671</ele>
        <time>2020-07-10T00:14:29.568Z</time>
      </trkpt>
      <trkpt lat="47.28678" lon="0.73677">
        <ele>61.322278</ele>
        <time>2020-07-10T00:14:26.913Z</time>
      </trkpt>
      <trkpt lat="47.28642" lon="0.73693">
        <ele>62.555633</ele>
        <time>2020-07-10T00:14:20.753Z</time>
      </trkpt>
      <trkpt lat="47.28628" lon="0.73699">
        <ele>63.022131</ele>
        <time>2020-07-10T00:14:18.469Z</time>
      </trkpt>
      <trkpt lat="47.28585" lon="0.73716">
        <ele>64.905401</ele>
        <time>2020-07-10T00:14:11.683Z</time>
      </trkpt>
      <trkpt lat="47.28521" lon="0.73741">
        <ele>68.699304</ele>
        <time>2020-07-10T00:14:01.768Z</time>
      </trkpt>
      <trkpt lat="47.28456" lon="0.73765">
        <ele>72.560509</ele>
        <time>2020-07-10T00:13:52.043Z</time>
      </trkpt>
      <trkpt lat="47.28446" lon="0.73769">
        <ele>73.17633</ele>
        <time>2020-07-10T00:13:50.481Z</time>
      </trkpt>
      <trkpt lat="47.28444" lon="0.73763">
        <ele>73.422289</ele>
        <time>2020-07-10T00:13:49.771Z</time>
      </trkpt>
      <trkpt lat="47.28437" lon="0.73743">
        <ele>74.317827</ele>
        <time>2020-07-10T00:13:47.333Z</time>
      </trkpt>
      <trkpt lat="47.28431" lon="0.73747">
        <ele>74.65527</ele>
        <time>2020-07-10T00:13:46.539Z</time>
      </trkpt>
      <trkpt lat="47.28373" lon="0.73766">
        <ele>77.96734</ele>
        <time>2020-07-10T00:13:37.846Z</time>
      </trkpt>
      <trkpt lat="47.28364" lon="0.73769">
        <ele>78.523329</ele>
        <time>2020-07-10T00:13:36.474Z</time>
      </trkpt>
      <trkpt lat="47.28314" lon="0.73782">
        <ele>81.359575</ele>
        <time>2020-07-10T00:13:28.980Z</time>
      </trkpt>
      <trkpt lat="47.28292" lon="0.73788">
        <ele>82.606809</ele>
        <time>2020-07-10T00:13:25.569Z</time>
      </trkpt>
      <trkpt lat="47.28282" lon="0.73793">
        <ele>83.177882</ele>
        <time>2020-07-10T00:13:24.033Z</time>
      </trkpt>
      <trkpt lat="47.28263" lon="0.73806">
        <ele>84.265733</ele>
        <time>2020-07-10T00:13:20.530Z</time>
      </trkpt>
      <trkpt lat="47.28242" lon="0.73819">
        <ele>84.715776</ele>
        <time>2020-07-10T00:13:16.963Z</time>
      </trkpt>
      <trkpt lat="47.28209" lon="0.73831">
        <ele>85.415755</ele>
        <time>2020-07-10T00:13:11.413Z</time>
      </trkpt>
      <trkpt lat="47.28169" lon="0.73843">
        <ele>86.233387</ele>
        <time>2020-07-10T00:13:04.244Z</time>
      </trkpt>
      <trkpt lat="47.28163" lon="0.73841">
        <ele>86.355833</ele>
        <time>2020-07-10T00:13:03.035Z</time>
      </trkpt>
      <trkpt lat="47.28115" lon="0.73827">
        <ele>87.363277</ele>
        <time>2020-07-10T00:12:53.610Z</time>
      </trkpt>
      <trkpt lat="47.28095" lon="0.73821">
        <ele>87.778066</ele>
        <time>2020-07-10T00:12:49.474Z</time>
      </trkpt>
      <trkpt lat="47.28074" lon="0.73811">
        <ele>87.926692</ele>
        <time>2020-07-10T00:12:44.939Z</time>
      </trkpt>
      <trkpt lat="47.28038" lon="0.73792">
        <ele>88.069726</ele>
        <time>2020-07-10T00:12:36.949Z</time>
      </trkpt>
      <trkpt lat="47.27927" lon="0.7372">
        <ele>88.524011</ele>
        <time>2020-07-10T00:12:11.320Z</time>
      </trkpt>
      <trkpt lat="47.27861" lon="0.73695">
        <ele>88.576998</ele>
        <time>2020-07-10T00:11:56.421Z</time>
      </trkpt>
      <trkpt lat="47.27818" lon="0.73686">
        <ele>88.605129</ele>
        <time>2020-07-10T00:11:46.894Z</time>
      </trkpt>
      <trkpt lat="47.27661" lon="0.73677">
        <ele>88.586889</ele>
        <time>2020-07-10T00:11:11.563Z</time>
      </trkpt>
      <trkpt lat="47.27641" lon="0.73675">
        <ele>88.57159</ele>
        <time>2020-07-10T00:11:06.948Z</time>
      </trkpt>
      <trkpt lat="47.27623" lon="0.73673">
        <ele>88.558145</ele>
        <time>2020-07-10T00:11:03.020Z</time>
      </trkpt>
      <trkpt lat="47.27465" lon="0.73632">
        <ele>88.247137</ele>
        <time>2020-07-10T00:10:26.854Z</time>
      </trkpt>
      <trkpt lat="47.2736" lon="0.73584">
        <ele>87.949807</ele>
        <time>2020-07-10T00:10:00.300Z</time>
      </trkpt>
      <trkpt lat="47.27357" lon="0.73581">
        <ele>87.940588</ele>
        <time>2020-07-10T00:09:59.410Z</time>
      </trkpt>
      <trkpt lat="47.27352" lon="0.73583">
        <ele>87.924154</ele>
        <time>2020-07-10T00:09:58.008Z</time>
      </trkpt>
      <trkpt lat="47.27308" lon="0.73562">
        <ele>87.783433</ele>
        <time>2020-07-10T00:09:47.137Z</time>
      </trkpt>
      <trkpt lat="47.273" lon="0.7356">
        <ele>87.75991</ele>
        <time>2020-07-10T00:09:45.111Z</time>
      </trkpt>
      <trkpt lat="47.27289" lon="0.73563">
        <ele>87.725184</ele>
        <time>2020-07-10T00:09:42.454Z</time>
      </trkpt>
      <trkpt lat="47.27261" lon="0.73578">
        <ele>87.635628</ele>
        <time>2020-07-10T00:09:35.191Z</time>
      </trkpt>
      <trkpt lat="47.27256" lon="0.73583">
        <ele>87.617679</ele>
        <time>2020-07-10T00:09:33.797Z</time>
      </trkpt>
      <trkpt lat="47.27252" lon="0.73581">
        <ele>87.604953</ele>
        <time>2020-07-10T00:09:32.720Z</time>
      </trkpt>
      <trkpt lat="47.27216" lon="0.73581">
        <ele>87.520857</ele>
        <time>2020-07-10T00:09:24.124Z</time>
      </trkpt>
      <trkpt lat="47.27144" lon="0.73526">
        <ele>87.635919</ele>
        <time>2020-07-10T00:09:05.921Z</time>
      </trkpt>
      <trkpt lat="47.27115" lon="0.73522">
        <ele>87.676683</ele>
        <time>2020-07-10T00:08:59.697Z</time>
      </trkpt>
      <trkpt lat="47.27074" lon="0.73531">
        <ele>87.734468</ele>
        <time>2020-07-10T00:08:50.459Z</time>
      </trkpt>
      <trkpt lat="47.27057" lon="0.73533">
        <ele>87.758086</ele>
        <time>2020-07-10T00:08:46.693Z</time>
      </trkpt>
      <trkpt lat="47.2705" lon="0.73529">
        <ele>87.760489</ele>
        <time>2020-07-10T00:08:44.863Z</time>
      </trkpt>
      <trkpt lat="47.27033" lon="0.73515">
        <ele>87.675138</ele>
        <time>2020-07-10T00:08:40.364Z</time>
      </trkpt>
      <trkpt lat="47.26999" lon="0.73438">
        <ele>87.403353</ele>
        <time>2020-07-10T00:08:25.656Z</time>
      </trkpt>
      <trkpt lat="47.26984" lon="0.73429">
        <ele>87.335378</ele>
        <time>2020-07-10T00:08:21.805Z</time>
      </trkpt>
      <trkpt lat="47.26952" lon="0.73439">
        <ele>87.189385</ele>
        <time>2020-07-10T00:08:13.087Z</time>
      </trkpt>
      <trkpt lat="47.2689" lon="0.73476">
        <ele>86.820003</ele>
        <time>2020-07-10T00:07:55.048Z</time>
      </trkpt>
      <trkpt lat="47.2687" lon="0.73476">
        <ele>86.648534</ele>
        <time>2020-07-10T00:07:49.631Z</time>
      </trkpt>
      <trkpt lat="47.26864" lon="0.73472">
        <ele>86.591563</ele>
        <time>2020-07-10T00:07:47.887Z</time>
      </trkpt>
      <trkpt lat="47.2686" lon="0.73465">
        <ele>86.535235</ele>
        <time>2020-07-10T00:07:46.066Z</time>
      </trkpt>
      <trkpt lat="47.26856" lon="0.73459">
        <ele>86.487538</ele>
        <time>2020-07-10T00:07:44.674Z</time>
      </trkpt>
      <trkpt lat="47.26846" lon="0.73438">
        <ele>86.336146</ele>
        <time>2020-07-10T00:07:40.023Z</time>
      </trkpt>
      <trkpt lat="47.26839" lon="0.73424">
        <ele>86.235847</ele>
        <time>2020-07-10T00:07:36.870Z</time>
      </trkpt>
      <trkpt lat="47.26823" lon="0.73393">
        <ele>86.008589</ele>
        <time>2020-07-10T00:07:29.903Z</time>
      </trkpt>
      <trkpt lat="47.26791" lon="0.73292">
        <ele>85.459153</ele>
        <time>2020-07-10T00:07:09.915Z</time>
      </trkpt>
      <trkpt lat="47.26765" lon="0.73256">
        <ele>85.556898</ele>
        <time>2020-07-10T00:07:00.728Z</time>
      </trkpt>
      <trkpt lat="47.2674" lon="0.7323">
        <ele>85.638605</ele>
        <time>2020-07-10T00:06:53.480Z</time>
      </trkpt>
      <trkpt lat="47.26728" lon="0.73218">
        <ele>85.679399</ele>
        <time>2020-07-10T00:06:50.074Z</time>
      </trkpt>
      <trkpt lat="47.26617" lon="0.73097">
        <ele>86.725849</ele>
        <time>2020-07-10T00:06:21.825Z</time>
      </trkpt>
      <trkpt lat="47.26551" lon="0.73046">
        <ele>87.963537</ele>
        <time>2020-07-10T00:06:07.866Z</time>
      </trkpt>
      <trkpt lat="47.26514" lon="0.72992">
        <ele>88.838798</ele>
        <time>2020-07-10T00:05:58.403Z</time>
      </trkpt>
      <trkpt lat="47.26456" lon="0.72959">
        <ele>89.676434</ele>
        <time>2020-07-10T00:05:47.264Z</time>
      </trkpt>
      <trkpt lat="47.26388" lon="0.72871">
        <ele>90.8668</ele>
        <time>2020-07-10T00:05:29.174Z</time>
      </trkpt>
      <trkpt lat="47.26382" lon="0.72864">
        <ele>90.960183</ele>
        <time>2020-07-10T00:05:27.683Z</time>
      </trkpt>
      <trkpt lat="47.26372" lon="0.7285">
        <ele>91.14637</ele>
        <time>2020-07-10T00:05:24.496Z</time>
      </trkpt>
      <trkpt lat="47.26335" lon="0.7281">
        <ele>91.160016</ele>
        <time>2020-07-10T00:05:14.220Z</time>
      </trkpt>
      <trkpt lat="47.2633" lon="0.72805">
        <ele>91.13604</ele>
        <time>2020-07-10T00:05:12.831Z</time>
      </trkpt>
      <trkpt lat="47.26326" lon="0.72801">
        <ele>91.119821</ele>
        <time>2020-07-10T00:05:11.591Z</time>
      </trkpt>
      <trkpt lat="47.26302" lon="0.72765">
        <ele>90.993322</ele>
        <time>2020-07-10T00:05:03.210Z</time>
      </trkpt>
      <trkpt lat="47.26249" lon="0.72647">
        <ele>90.639317</ele>
        <time>2020-07-10T00:04:37.389Z</time>
      </trkpt>
      <trkpt lat="47.26178" lon="0.72528">
        <ele>90.466217</ele>
        <time>2020-07-10T00:04:11.256Z</time>
      </trkpt>
      <trkpt lat="47.26118" lon="0.72489">
        <ele>90.366298</ele>
        <time>2020-07-10T00:03:56.397Z</time>
      </trkpt>
      <trkpt lat="47.25975" lon="0.72426">
        <ele>90.772512</ele>
        <time>2020-07-10T00:03:23.382Z</time>
      </trkpt>
      <trkpt lat="47.25931" lon="0.72398">
        <ele>90.930132</ele>
        <time>2020-07-10T00:03:12.852Z</time>
      </trkpt>
      <trkpt lat="47.25599" lon="0.72022">
        <ele>93.061592</ele>
        <time>2020-07-10T00:01:42.952Z</time>
      </trkpt>
      <trkpt lat="47.255" lon="0.71914">
        <ele>93.788663</ele>
        <time>2020-07-10T00:01:16.923Z</time>
      </trkpt>
      <trkpt lat="47.25395" lon="0.71798">
        <ele>94.588486</ele>
        <time>2020-07-10T00:00:49.292Z</time>
      </trkpt>
      <trkpt lat="47.25275" lon="0.717">
        <ele>95.260666</ele>
        <time>2020-07-10T00:00:20.197Z</time>
      </trkpt>
      <trkpt lat="47.25149" lon="0.71508">
        <ele>95.712038</ele>
        <time>2020-07-09T23:59:39.718Z</time>
      </trkpt>
      <trkpt lat="47.25048" lon="0.71389">
        <ele>95.795779</ele>
        <time>2020-07-09T23:59:09.087Z</time>
      </trkpt>
      <trkpt lat="47.24965" lon="0.7131">
        <ele>95.824689</ele>
        <time>2020-07-09T23:58:46.467Z</time>
      </trkpt>
      <trkpt lat="47.24882" lon="0.7124">
        <ele>96.121434</ele>
        <time>2020-07-09T23:58:25.226Z</time>
      </trkpt>
      <trkpt lat="47.24861" lon="0.71229">
        <ele>96.222881</ele>
        <time>2020-07-09T23:58:20.650Z</time>
      </trkpt>
      <trkpt lat="47.24784" lon="0.71194">
        <ele>96.589379</ele>
        <time>2020-07-09T23:58:04.350Z</time>
      </trkpt>
      <trkpt lat="47.2472" lon="0.71147">
        <ele>96.826958</ele>
        <time>2020-07-09T23:57:49.667Z</time>
      </trkpt>
      <trkpt lat="47.24703" lon="0.71129">
        <ele>96.890381</ele>
        <time>2020-07-09T23:57:45.200Z</time>
      </trkpt>
      <trkpt lat="47.24681" lon="0.71102">
        <ele>96.975997</ele>
        <time>2020-07-09T23:57:39.134Z</time>
      </trkpt>
      <trkpt lat="47.24656" lon="0.71053">
        <ele>97.100918</ele>
        <time>2020-07-09T23:57:30.151Z</time>
      </trkpt>
      <trkpt lat="47.24632" lon="0.7098">
        <ele>97.189565</ele>
        <time>2020-07-09T23:57:18.000Z</time>
      </trkpt>
      <trkpt lat="47.24605" lon="0.709">
        <ele>97.172739</ele>
        <time>2020-07-09T23:57:04.731Z</time>
      </trkpt>
      <trkpt lat="47.2456" lon="0.70766">
        <ele>97.105631</ele>
        <time>2020-07-09T23:56:41.831Z</time>
      </trkpt>
      <trkpt lat="47.24535" lon="0.70693">
        <ele>96.744139</ele>
        <time>2020-07-09T23:56:28.681Z</time>
      </trkpt>
      <trkpt lat="47.24531" lon="0.70671">
        <ele>96.642101</ele>
        <time>2020-07-09T23:56:24.779Z</time>
      </trkpt>
      <trkpt lat="47.2453" lon="0.70658">
        <ele>96.581303</ele>
        <time>2020-07-09T23:56:22.397Z</time>
      </trkpt>
      <trkpt lat="47.24533" lon="0.70488">
        <ele>95.716747</ele>
        <time>2020-07-09T23:55:52.999Z</time>
      </trkpt>
      <trkpt lat="47.24535" lon="0.70463">
        <ele>95.515503</ele>
        <time>2020-07-09T23:55:48.166Z</time>
      </trkpt>
      <trkpt lat="47.24535" lon="0.70447">
        <ele>95.384438</ele>
        <time>2020-07-09T23:55:45.016Z</time>
      </trkpt>
      <trkpt lat="47.24536" lon="0.70377">
        <ele>94.82402</ele>
        <time>2020-07-09T23:55:31.407Z</time>
      </trkpt>
      <trkpt lat="47.24539" lon="0.70303">
        <ele>94.237375</ele>
        <time>2020-07-09T23:55:17.326Z</time>
      </trkpt>
      <trkpt lat="47.24543" lon="0.70174">
        <ele>93.643714</ele>
        <time>2020-07-09T23:54:55.174Z</time>
      </trkpt>
      <trkpt lat="47.24541" lon="0.70108">
        <ele>93.477118</ele>
        <time>2020-07-09T23:54:44.685Z</time>
      </trkpt>
      <trkpt lat="47.2453" lon="0.70096">
        <ele>93.42484</ele>
        <time>2020-07-09T23:54:41.591Z</time>
      </trkpt>
      <trkpt lat="47.24502" lon="0.70063">
        <ele>93.293376</ele>
        <time>2020-07-09T23:54:33.370Z</time>
      </trkpt>
      <trkpt lat="47.24451" lon="0.69999">
        <ele>93.165897</ele>
        <time>2020-07-09T23:54:18.192Z</time>
      </trkpt>
      <trkpt lat="47.24444" lon="0.69993">
        <ele>93.162788</ele>
        <time>2020-07-09T23:54:16.624Z</time>
      </trkpt>
      <trkpt lat="47.24398" lon="0.69949">
        <ele>93.141423</ele>
        <time>2020-07-09T23:54:04.494Z</time>
      </trkpt>
      <trkpt lat="47.24374" lon="0.69925">
        <ele>93.129895</ele>
        <time>2020-07-09T23:53:57.826Z</time>
      </trkpt>
      <trkpt lat="47.24318" lon="0.69891">
        <ele>93.134267</ele>
        <time>2020-07-09T23:53:44.262Z</time>
      </trkpt>
      <trkpt lat="47.24281" lon="0.69865">
        <ele>93.240252</ele>
        <time>2020-07-09T23:53:34.642Z</time>
      </trkpt>
      <trkpt lat="47.24277" lon="0.69864">
        <ele>93.249853</ele>
        <time>2020-07-09T23:53:33.696Z</time>
      </trkpt>
      <trkpt lat="47.24271" lon="0.69861">
        <ele>93.264526</ele>
        <time>2020-07-09T23:53:32.432Z</time>
      </trkpt>
      <trkpt lat="47.24261" lon="0.69853">
        <ele>93.294101</ele>
        <time>2020-07-09T23:53:29.829Z</time>
      </trkpt>
      <trkpt lat="47.24189" lon="0.69721">
        <ele>93.610991</ele>
        <time>2020-07-09T23:53:04.889Z</time>
      </trkpt>
      <trkpt lat="47.24167" lon="0.69679">
        <ele>93.797646</ele>
        <time>2020-07-09T23:52:57.462Z</time>
      </trkpt>
      <trkpt lat="47.24154" lon="0.69629">
        <ele>93.992529</ele>
        <time>2020-07-09T23:52:49.606Z</time>
      </trkpt>
      <trkpt lat="47.24152" lon="0.69622">
        <ele>94.0202</ele>
        <time>2020-07-09T23:52:48.611Z</time>
      </trkpt>
      <trkpt lat="47.2414" lon="0.69525">
        <ele>94.372181</ele>
        <time>2020-07-09T23:52:33.938Z</time>
      </trkpt>
      <trkpt lat="47.24128" lon="0.69528">
        <ele>94.436162</ele>
        <time>2020-07-09T23:52:31.443Z</time>
      </trkpt>
      <trkpt lat="47.24111" lon="0.69548">
        <ele>94.551002</ele>
        <time>2020-07-09T23:52:26.897Z</time>
      </trkpt>
      <trkpt lat="47.24075" lon="0.69584">
        <ele>94.784643</ele>
        <time>2020-07-09T23:52:18.210Z</time>
      </trkpt>
      <trkpt lat="47.24065" lon="0.69587">
        <ele>94.838112</ele>
        <time>2020-07-09T23:52:16.144Z</time>
      </trkpt>
      <trkpt lat="47.24048" lon="0.69591">
        <ele>94.930512</ele>
        <time>2020-07-09T23:52:12.668Z</time>
      </trkpt>
      <trkpt lat="47.24043" lon="0.69591">
        <ele>94.957268</ele>
        <time>2020-07-09T23:52:11.653Z</time>
      </trkpt>
      <trkpt lat="47.24042" lon="0.69591">
        <ele>94.963196</ele>
        <time>2020-07-09T23:52:11.437Z</time>
      </trkpt>
      <trkpt lat="47.24039" lon="0.6959">
        <ele>94.979505</ele>
        <time>2020-07-09T23:52:10.816Z</time>
      </trkpt>
      <trkpt lat="47.24037" lon="0.69594">
        <ele>94.998891</ele>
        <time>2020-07-09T23:52:10.079Z</time>
      </trkpt>
      <trkpt lat="47.24029" lon="0.696">
        <ele>95.046007</ele>
        <time>2020-07-09T23:52:08.248Z</time>
      </trkpt>
      <trkpt lat="47.23999" lon="0.69627">
        <ele>95.235523</ele>
        <time>2020-07-09T23:52:00.878Z</time>
      </trkpt>
      <trkpt lat="47.23982" lon="0.69641">
        <ele>95.335165</ele>
        <time>2020-07-09T23:51:56.973Z</time>
      </trkpt>
      <trkpt lat="47.23964" lon="0.69657">
        <ele>95.447625</ele>
        <time>2020-07-09T23:51:52.648Z</time>
      </trkpt>
      <trkpt lat="47.23922" lon="0.69693">
        <ele>95.676559</ele>
        <time>2020-07-09T23:51:42.604Z</time>
      </trkpt>
      <trkpt lat="47.23903" lon="0.69708">
        <ele>95.772105</ele>
        <time>2020-07-09T23:51:38.413Z</time>
      </trkpt>
      <trkpt lat="47.23745" lon="0.69807">
        <ele>96.423035</ele>
        <time>2020-07-09T23:51:02.329Z</time>
      </trkpt>
      <trkpt lat="47.23686" lon="0.6985">
        <ele>96.568521</ele>
        <time>2020-07-09T23:50:48.100Z</time>
      </trkpt>
      <trkpt lat="47.23672" lon="0.6986">
        <ele>96.603627</ele>
        <time>2020-07-09T23:50:44.689Z</time>
      </trkpt>
      <trkpt lat="47.23606" lon="0.6989">
        <ele>96.785938</ele>
        <time>2020-07-09T23:50:29.745Z</time>
      </trkpt>
      <trkpt lat="47.23471" lon="0.69937">
        <ele>97.237448</ele>
        <time>2020-07-09T23:50:01.211Z</time>
      </trkpt>
      <trkpt lat="47.23461" lon="0.69942">
        <ele>97.272809</ele>
        <time>2020-07-09T23:49:58.893Z</time>
      </trkpt>
      <trkpt lat="47.23446" lon="0.69952">
        <ele>97.279013</ele>
        <time>2020-07-09T23:49:55.246Z</time>
      </trkpt>
      <trkpt lat="47.23386" lon="0.69997">
        <ele>97.232899</ele>
        <time>2020-07-09T23:49:40.391Z</time>
      </trkpt>
      <trkpt lat="47.23292" lon="0.70064">
        <ele>97.151733</ele>
        <time>2020-07-09T23:49:16.160Z</time>
      </trkpt>
      <trkpt lat="47.23137" lon="0.70177">
        <ele>96.63652</ele>
        <time>2020-07-09T23:48:34.941Z</time>
      </trkpt>
      <trkpt lat="47.23074" lon="0.70217">
        <ele>96.913172</ele>
        <time>2020-07-09T23:48:20.133Z</time>
      </trkpt>
      <trkpt lat="47.23023" lon="0.70236">
        <ele>97.139356</ele>
        <time>2020-07-09T23:48:09.451Z</time>
      </trkpt>
      <trkpt lat="47.22973" lon="0.70224">
        <ele>97.362604</ele>
        <time>2020-07-09T23:47:59.342Z</time>
      </trkpt>
      <trkpt lat="47.22947" lon="0.70226">
        <ele>97.520001</ele>
        <time>2020-07-09T23:47:54.379Z</time>
      </trkpt>
      <trkpt lat="47.22875" lon="0.70264">
        <ele>98.105767</ele>
        <time>2020-07-09T23:47:39.186Z</time>
      </trkpt>
      <trkpt lat="47.22866" lon="0.70266">
        <ele>98.175424</ele>
        <time>2020-07-09T23:47:37.467Z</time>
      </trkpt>
      <trkpt lat="47.22851" lon="0.70268">
        <ele>98.285862</ele>
        <time>2020-07-09T23:47:34.534Z</time>
      </trkpt>
      <trkpt lat="47.22837" lon="0.7027">
        <ele>98.394297</ele>
        <time>2020-07-09T23:47:31.631Z</time>
      </trkpt>
      <trkpt lat="47.22821" lon="0.70274">
        <ele>98.515922</ele>
        <time>2020-07-09T23:47:28.455Z</time>
      </trkpt>
      <trkpt lat="47.22815" lon="0.70279">
        <ele>98.565482</ele>
        <time>2020-07-09T23:47:27.164Z</time>
      </trkpt>
      <trkpt lat="47.22778" lon="0.70312">
        <ele>98.845139</ele>
        <time>2020-07-09T23:47:18.194Z</time>
      </trkpt>
      <trkpt lat="47.22741" lon="0.70326">
        <ele>99.00767</ele>
        <time>2020-07-09T23:47:10.500Z</time>
      </trkpt>
      <trkpt lat="47.22604" lon="0.70345">
        <ele>99.587435</ele>
        <time>2020-07-09T23:46:41.739Z</time>
      </trkpt>
      <trkpt lat="47.22355" lon="0.70406">
        <ele>100.197869</ele>
        <time>2020-07-09T23:45:48.413Z</time>
      </trkpt>
      <trkpt lat="47.22316" lon="0.70417">
        <ele>100.229113</ele>
        <time>2020-07-09T23:45:39.542Z</time>
      </trkpt>
      <trkpt lat="47.22295" lon="0.70422">
        <ele>100.245804</ele>
        <time>2020-07-09T23:45:34.458Z</time>
      </trkpt>
      <trkpt lat="47.2228" lon="0.70423">
        <ele>100.257222</ele>
        <time>2020-07-09T23:45:31.052Z</time>
      </trkpt>
      <trkpt lat="47.22267" lon="0.70424">
        <ele>100.267693</ele>
        <time>2020-07-09T23:45:27.778Z</time>
      </trkpt>
      <trkpt lat="47.22193" lon="0.70423">
        <ele>100.075702</ele>
        <time>2020-07-09T23:45:09.934Z</time>
      </trkpt>
      <trkpt lat="47.22115" lon="0.70451">
        <ele>99.843555</ele>
        <time>2020-07-09T23:44:50.122Z</time>
      </trkpt>
      <trkpt lat="47.22023" lon="0.70453">
        <ele>99.805066</ele>
        <time>2020-07-09T23:44:27.947Z</time>
      </trkpt>
      <trkpt lat="47.21974" lon="0.70447">
        <ele>99.849197</ele>
        <time>2020-07-09T23:44:16.498Z</time>
      </trkpt>
      <trkpt lat="47.21882" lon="0.70412">
        <ele>100.107401</ele>
        <time>2020-07-09T23:43:55.827Z</time>
      </trkpt>
      <trkpt lat="47.21855" lon="0.70417">
        <ele>100.325321</ele>
        <time>2020-07-09T23:43:50.003Z</time>
      </trkpt>
      <trkpt lat="47.21821" lon="0.70439">
        <ele>100.622094</ele>
        <time>2020-07-09T23:43:42.273Z</time>
      </trkpt>
      <trkpt lat="47.21815" lon="0.70443">
        <ele>100.671734</ele>
        <time>2020-07-09T23:43:41.049Z</time>
      </trkpt>
      <trkpt lat="47.21785" lon="0.70468">
        <ele>100.947917</ele>
        <time>2020-07-09T23:43:33.979Z</time>
      </trkpt>
      <trkpt lat="47.21745" lon="0.70489">
        <ele>101.288851</ele>
        <time>2020-07-09T23:43:25.372Z</time>
      </trkpt>
      <trkpt lat="47.2165" lon="0.70456">
        <ele>102.436111</ele>
        <time>2020-07-09T23:43:06.080Z</time>
      </trkpt>
      <trkpt lat="47.21561" lon="0.70439">
        <ele>103.505861</ele>
        <time>2020-07-09T23:42:48.491Z</time>
      </trkpt>
      <trkpt lat="47.21395" lon="0.70437">
        <ele>105.546731</ele>
        <time>2020-07-09T23:42:15.753Z</time>
      </trkpt>
      <trkpt lat="47.21312" lon="0.70435">
        <ele>106.360168</ele>
        <time>2020-07-09T23:41:59.057Z</time>
      </trkpt>
      <trkpt lat="47.21285" lon="0.70435">
        <ele>106.609578</ele>
        <time>2020-07-09T23:41:53.592Z</time>
      </trkpt>
      <trkpt lat="47.21114" lon="0.70425">
        <ele>107.906196</ele>
        <time>2020-07-09T23:41:18.225Z</time>
      </trkpt>
      <trkpt lat="47.21074" lon="0.70411">
        <ele>108.152524</ele>
        <time>2020-07-09T23:41:09.410Z</time>
      </trkpt>
      <trkpt lat="47.21058" lon="0.70399">
        <ele>108.259985</ele>
        <time>2020-07-09T23:41:05.558Z</time>
      </trkpt>
      <trkpt lat="47.21023" lon="0.70362">
        <ele>108.475685</ele>
        <time>2020-07-09T23:40:56.202Z</time>
      </trkpt>
      <trkpt lat="47.21008" lon="0.70347">
        <ele>108.511945</ele>
        <time>2020-07-09T23:40:52.127Z</time>
      </trkpt>
      <trkpt lat="47.20983" lon="0.70325">
        <ele>108.568294</ele>
        <time>2020-07-09T23:40:45.661Z</time>
      </trkpt>
      <trkpt lat="47.20918" lon="0.70272">
        <ele>108.712673</ele>
        <time>2020-07-09T23:40:29.142Z</time>
      </trkpt>
      <trkpt lat="47.20884" lon="0.70252">
        <ele>108.784861</ele>
        <time>2020-07-09T23:40:20.648Z</time>
      </trkpt>
      <trkpt lat="47.20867" lon="0.70241">
        <ele>108.814363</ele>
        <time>2020-07-09T23:40:16.398Z</time>
      </trkpt>
      <trkpt lat="47.20688" lon="0.70159">
        <ele>109.027224</ele>
        <time>2020-07-09T23:39:33.375Z</time>
      </trkpt>
      <trkpt lat="47.20614" lon="0.70117">
        <ele>109.245057</ele>
        <time>2020-07-09T23:39:15.603Z</time>
      </trkpt>
      <trkpt lat="47.20604" lon="0.70114">
        <ele>109.27328</ele>
        <time>2020-07-09T23:39:13.364Z</time>
      </trkpt>
      <trkpt lat="47.20471" lon="0.70085">
        <ele>109.765561</ele>
        <time>2020-07-09T23:38:44.016Z</time>
      </trkpt>
      <trkpt lat="47.20403" lon="0.70076">
        <ele>110.096877</ele>
        <time>2020-07-09T23:38:29.429Z</time>
      </trkpt>
      <trkpt lat="47.20313" lon="0.70078">
        <ele>110.579399</ele>
        <time>2020-07-09T23:38:10.362Z</time>
      </trkpt>
      <trkpt lat="47.20243" lon="0.70095">
        <ele>111.008903</ele>
        <time>2020-07-09T23:37:55.535Z</time>
      </trkpt>
      <trkpt lat="47.20178" lon="0.70096">
        <ele>111.405032</ele>
        <time>2020-07-09T23:37:41.729Z</time>
      </trkpt>
      <trkpt lat="47.20153" lon="0.70095">
        <ele>111.554611</ele>
        <time>2020-07-09T23:37:36.330Z</time>
      </trkpt>
      <trkpt lat="47.20136" lon="0.70179">
        <ele>111.889138</ele>
        <time>2020-07-09T23:37:23.713Z</time>
      </trkpt>
      <trkpt lat="47.2012" lon="0.70265">
        <ele>112.228225</ele>
        <time>2020-07-09T23:37:10.862Z</time>
      </trkpt>
      <trkpt lat="47.20118" lon="0.70274">
        <ele>112.264559</ele>
        <time>2020-07-09T23:37:09.445Z</time>
      </trkpt>
      <trkpt lat="47.20114" lon="0.70293">
        <ele>112.340647</ele>
        <time>2020-07-09T23:37:06.646Z</time>
      </trkpt>
      <trkpt lat="47.20097" lon="0.70392">
        <ele>112.604534</ele>
        <time>2020-07-09T23:36:51.398Z</time>
      </trkpt>
      <trkpt lat="47.20061" lon="0.70489">
        <ele>112.824281</ele>
        <time>2020-07-09T23:36:34.851Z</time>
      </trkpt>
      <trkpt lat="47.20037" lon="0.70545">
        <ele>112.953991</ele>
        <time>2020-07-09T23:36:24.800Z</time>
      </trkpt>
      <trkpt lat="47.19975" lon="0.70661">
        <ele>112.86485</ele>
        <time>2020-07-09T23:36:01.723Z</time>
      </trkpt>
      <trkpt lat="47.19841" lon="0.70929">
        <ele>111.968863</ele>
        <time>2020-07-09T23:35:05.969Z</time>
      </trkpt>
      <trkpt lat="47.19837" lon="0.70937">
        <ele>111.928415</ele>
        <time>2020-07-09T23:35:04.039Z</time>
      </trkpt>
      <trkpt lat="47.19721" lon="0.71155">
        <ele>110.337852</ele>
        <time>2020-07-09T23:34:12.002Z</time>
      </trkpt>
      <trkpt lat="47.19683" lon="0.71297">
        <ele>110.179329</ele>
        <time>2020-07-09T23:33:46.438Z</time>
      </trkpt>
      <trkpt lat="47.19678" lon="0.71315">
        <ele>110.202154</ele>
        <time>2020-07-09T23:33:43.349Z</time>
      </trkpt>
      <trkpt lat="47.19671" lon="0.71331">
        <ele>110.223806</ele>
        <time>2020-07-09T23:33:40.542Z</time>
      </trkpt>
      <trkpt lat="47.19491" lon="0.71627">
        <ele>111.975603</ele>
        <time>2020-07-09T23:32:44.847Z</time>
      </trkpt>
      <trkpt lat="47.19489" lon="0.71631">
        <ele>112.011056</ele>
        <time>2020-07-09T23:32:44.126Z</time>
      </trkpt>
      <trkpt lat="47.19428" lon="0.71541">
        <ele>112.796378</ele>
        <time>2020-07-09T23:32:27.456Z</time>
      </trkpt>
      <trkpt lat="47.19376" lon="0.7146">
        <ele>113.484291</ele>
        <time>2020-07-09T23:32:12.630Z</time>
      </trkpt>
      <trkpt lat="47.19267" lon="0.71291">
        <ele>114.714356</ele>
        <time>2020-07-09T23:31:41.114Z</time>
      </trkpt>
      <trkpt lat="47.19248" lon="0.71268">
        <ele>114.903176</ele>
        <time>2020-07-09T23:31:36.284Z</time>
      </trkpt>
      <trkpt lat="47.19171" lon="0.71174">
        <ele>115.504466</ele>
        <time>2020-07-09T23:31:16.376Z</time>
      </trkpt>
      <trkpt lat="47.19115" lon="0.71091">
        <ele>115.972942</ele>
        <time>2020-07-09T23:31:00.266Z</time>
      </trkpt>
      <trkpt lat="47.19097" lon="0.71064">
        <ele>115.945848</ele>
        <time>2020-07-09T23:30:54.576Z</time>
      </trkpt>
      <trkpt lat="47.18985" lon="0.70899">
        <ele>115.65541</ele>
        <time>2020-07-09T23:30:17.243Z</time>
      </trkpt>
      <trkpt lat="47.1898" lon="0.70892">
        <ele>115.653693</ele>
        <time>2020-07-09T23:30:15.395Z</time>
      </trkpt>
      <trkpt lat="47.18975" lon="0.70885">
        <ele>115.651904</ele>
        <time>2020-07-09T23:30:13.557Z</time>
      </trkpt>
      <trkpt lat="47.18627" lon="0.70496">
        <ele>115.846636</ele>
        <time>2020-07-09T23:28:33.251Z</time>
      </trkpt>
      <trkpt lat="47.18577" lon="0.70453">
        <ele>115.896701</ele>
        <time>2020-07-09T23:28:20.085Z</time>
      </trkpt>
      <trkpt lat="47.18302" lon="0.70279">
        <ele>116.349096</ele>
        <time>2020-07-09T23:27:12.033Z</time>
      </trkpt>
      <trkpt lat="47.18262" lon="0.70248">
        <ele>116.468026</ele>
        <time>2020-07-09T23:27:02.124Z</time>
      </trkpt>
      <trkpt lat="47.17763" lon="0.69793">
        <ele>119.773566</ele>
        <time>2020-07-09T23:24:57.469Z</time>
      </trkpt>
      <trkpt lat="47.17741" lon="0.69776">
        <ele>119.914889</ele>
        <time>2020-07-09T23:24:52.108Z</time>
      </trkpt>
      <trkpt lat="47.17661" lon="0.69713">
        <ele>120.420932</ele>
        <time>2020-07-09T23:24:32.868Z</time>
      </trkpt>
      <trkpt lat="47.1765" lon="0.69703">
        <ele>120.496682</ele>
        <time>2020-07-09T23:24:30.022Z</time>
      </trkpt>
      <trkpt lat="47.17556" lon="0.69625">
        <ele>121.145432</ele>
        <time>2020-07-09T23:24:07.202Z</time>
      </trkpt>
      <trkpt lat="47.17387" lon="0.6949">
        <ele>122.281553</ele>
        <time>2020-07-09T23:23:26.761Z</time>
      </trkpt>
      <trkpt lat="47.1733" lon="0.69436">
        <ele>122.62637</ele>
        <time>2020-07-09T23:23:12.308Z</time>
      </trkpt>
      <trkpt lat="47.17219" lon="0.69338">
        <ele>122.694746</ele>
        <time>2020-07-09T23:22:42.888Z</time>
      </trkpt>
      <trkpt lat="47.17185" lon="0.69309">
        <ele>122.635938</ele>
        <time>2020-07-09T23:22:33.412Z</time>
      </trkpt>
      <trkpt lat="47.17181" lon="0.69306">
        <ele>122.629754</ele>
        <time>2020-07-09T23:22:32.367Z</time>
      </trkpt>
      <trkpt lat="47.17177" lon="0.69301">
        <ele>122.620842</ele>
        <time>2020-07-09T23:22:30.805Z</time>
      </trkpt>
      <trkpt lat="47.17163" lon="0.69286">
        <ele>122.595938</ele>
        <time>2020-07-09T23:22:26.812Z</time>
      </trkpt>
      <trkpt lat="47.17157" lon="0.69274">
        <ele>122.580154</ele>
        <time>2020-07-09T23:22:24.149Z</time>
      </trkpt>
      <trkpt lat="47.17152" lon="0.69262">
        <ele>122.566229</ele>
        <time>2020-07-09T23:22:21.727Z</time>
      </trkpt>
      <trkpt lat="47.17143" lon="0.69231">
        <ele>122.400274</ele>
        <time>2020-07-09T23:22:16.029Z</time>
      </trkpt>
      <trkpt lat="47.17136" lon="0.69206">
        <ele>122.243915</ele>
        <time>2020-07-09T23:22:11.261Z</time>
      </trkpt>
      <trkpt lat="47.17125" lon="0.69159">
        <ele>121.952686</ele>
        <time>2020-07-09T23:22:02.293Z</time>
      </trkpt>
      <trkpt lat="47.17109" lon="0.69109">
        <ele>121.630272</ele>
        <time>2020-07-09T23:21:52.044Z</time>
      </trkpt>
      <trkpt lat="47.17069" lon="0.69003">
        <ele>120.920919</ele>
        <time>2020-07-09T23:21:29.699Z</time>
      </trkpt>
      <trkpt lat="47.17062" lon="0.68982">
        <ele>120.774291</ele>
        <time>2020-07-09T23:21:25.202Z</time>
      </trkpt>
      <trkpt lat="47.17044" lon="0.68937">
        <ele>120.456453</ele>
        <time>2020-07-09T23:21:15.642Z</time>
      </trkpt>
      <trkpt lat="47.17001" lon="0.68868">
        <ele>119.88019</ele>
        <time>2020-07-09T23:20:58.585Z</time>
      </trkpt>
      <trkpt lat="47.16918" lon="0.68767">
        <ele>118.981063</ele>
        <time>2020-07-09T23:20:29.717Z</time>
      </trkpt>
      <trkpt lat="47.16889" lon="0.68743">
        <ele>118.723955</ele>
        <time>2020-07-09T23:20:21.045Z</time>
      </trkpt>
      <trkpt lat="47.16883" lon="0.68738">
        <ele>118.667056</ele>
        <time>2020-07-09T23:20:18.886Z</time>
      </trkpt>
      <trkpt lat="47.16723" lon="0.68641">
        <ele>117.692141</ele>
        <time>2020-07-09T23:19:34.729Z</time>
      </trkpt>
      <trkpt lat="47.16612" lon="0.68526">
        <ele>117.216631</ele>
        <time>2020-07-09T23:19:02.413Z</time>
      </trkpt>
      <trkpt lat="47.1656" lon="0.68501">
        <ele>117.032978</ele>
        <time>2020-07-09T23:18:49.384Z</time>
      </trkpt>
      <trkpt lat="47.1638" lon="0.68438">
        <ele>115.942542</ele>
        <time>2020-07-09T23:18:02.435Z</time>
      </trkpt>
      <trkpt lat="47.16332" lon="0.68407">
        <ele>115.530786</ele>
        <time>2020-07-09T23:17:48.187Z</time>
      </trkpt>
      <trkpt lat="47.16269" lon="0.68348">
        <ele>114.841219</ele>
        <time>2020-07-09T23:17:27.370Z</time>
      </trkpt>
      <trkpt lat="47.16257" lon="0.68332">
        <ele>114.686499</ele>
        <time>2020-07-09T23:17:22.792Z</time>
      </trkpt>
      <trkpt lat="47.16243" lon="0.68306">
        <ele>114.462786</ele>
        <time>2020-07-09T23:17:16.574Z</time>
      </trkpt>
      <trkpt lat="47.1623" lon="0.68275">
        <ele>114.223558</ele>
        <time>2020-07-09T23:17:09.798Z</time>
      </trkpt>
      <trkpt lat="47.1623" lon="0.68259">
        <ele>114.116198</ele>
        <time>2020-07-09T23:17:06.778Z</time>
      </trkpt>
      <trkpt lat="47.16177" lon="0.67942">
        <ele>112.672678</ele>
        <time>2020-07-09T23:16:09.201Z</time>
      </trkpt>
      <trkpt lat="47.16108" lon="0.67442">
        <ele>112.476465</ele>
        <time>2020-07-09T23:14:48.579Z</time>
      </trkpt>
      <trkpt lat="47.16089" lon="0.67246">
        <ele>112.228769</ele>
        <time>2020-07-09T23:14:17.316Z</time>
      </trkpt>
      <trkpt lat="47.1605" lon="0.67231">
        <ele>112.139457</ele>
        <time>2020-07-09T23:14:07.372Z</time>
      </trkpt>
      <trkpt lat="47.16032" lon="0.67232">
        <ele>112.100185</ele>
        <time>2020-07-09T23:14:02.991Z</time>
      </trkpt>
      <trkpt lat="47.16019" lon="0.67238">
        <ele>112.068879</ele>
        <time>2020-07-09T23:13:59.677Z</time>
      </trkpt>
      <trkpt lat="47.16011" lon="0.67242">
        <ele>112.040355</ele>
        <time>2020-07-09T23:13:57.099Z</time>
      </trkpt>
      <trkpt lat="47.15942" lon="0.6729">
        <ele>111.78735</ele>
        <time>2020-07-09T23:13:37.804Z</time>
      </trkpt>
      <trkpt lat="47.15932" lon="0.67304">
        <ele>111.739063</ele>
        <time>2020-07-09T23:13:34.563Z</time>
      </trkpt>
      <trkpt lat="47.15911" lon="0.67351">
        <ele>111.613261</ele>
        <time>2020-07-09T23:13:25.071Z</time>
      </trkpt>
      <trkpt lat="47.15902" lon="0.67361">
        <ele>111.574438</ele>
        <time>2020-07-09T23:13:22.043Z</time>
      </trkpt>
      <trkpt lat="47.15893" lon="0.67362">
        <ele>111.54668</ele>
        <time>2020-07-09T23:13:19.643Z</time>
      </trkpt>
      <trkpt lat="47.15892" lon="0.67346">
        <ele>111.511509</ele>
        <time>2020-07-09T23:13:17.497Z</time>
      </trkpt>
      <trkpt lat="47.15883" lon="0.67303">
        <ele>111.515348</ele>
        <time>2020-07-09T23:13:10.868Z</time>
      </trkpt>
      <trkpt lat="47.15845" lon="0.67183">
        <ele>111.719725</ele>
        <time>2020-07-09T23:12:52.317Z</time>
      </trkpt>
      <trkpt lat="47.15829" lon="0.67131">
        <ele>111.807495</ele>
        <time>2020-07-09T23:12:44.178Z</time>
      </trkpt>
      <trkpt lat="47.15824" lon="0.67134">
        <ele>111.818936</ele>
        <time>2020-07-09T23:12:43.097Z</time>
      </trkpt>
      <trkpt lat="47.15807" lon="0.67151">
        <ele>111.866417</ele>
        <time>2020-07-09T23:12:38.046Z</time>
      </trkpt>
      <trkpt lat="47.15803" lon="0.67164">
        <ele>111.871206</ele>
        <time>2020-07-09T23:12:36.104Z</time>
      </trkpt>
      <trkpt lat="47.158" lon="0.67163">
        <ele>111.859036</ele>
        <time>2020-07-09T23:12:35.146Z</time>
      </trkpt>
      <trkpt lat="47.15779" lon="0.67153">
        <ele>111.787673</ele>
        <time>2020-07-09T23:12:29.849Z</time>
      </trkpt>
      <trkpt lat="47.15761" lon="0.67125">
        <ele>111.703287</ele>
        <time>2020-07-09T23:12:23.802Z</time>
      </trkpt>
      <trkpt lat="47.15752" lon="0.67037">
        <ele>111.505364</ele>
        <time>2020-07-09T23:12:08.919Z</time>
      </trkpt>
      <trkpt lat="47.15738" lon="0.66995">
        <ele>111.403481</ele>
        <time>2020-07-09T23:12:00.913Z</time>
      </trkpt>
      <trkpt lat="47.15625" lon="0.66876">
        <ele>110.931339</ele>
        <time>2020-07-09T23:11:24.668Z</time>
      </trkpt>
      <trkpt lat="47.15537" lon="0.66765">
        <ele>110.954074</ele>
        <time>2020-07-09T23:10:58.180Z</time>
      </trkpt>
      <trkpt lat="47.15418" lon="0.66594">
        <ele>112.070084</ele>
        <time>2020-07-09T23:10:23.886Z</time>
      </trkpt>
      <trkpt lat="47.15353" lon="0.6649">
        <ele>112.778047</ele>
        <time>2020-07-09T23:10:04.365Z</time>
      </trkpt>
      <trkpt lat="47.15271" lon="0.66401">
        <ele>113.215488</ele>
        <time>2020-07-09T23:09:42.452Z</time>
      </trkpt>
      <trkpt lat="47.15207" lon="0.66342">
        <ele>113.264913</ele>
        <time>2020-07-09T23:09:25.160Z</time>
      </trkpt>
      <trkpt lat="47.15179" lon="0.6638">
        <ele>113.289604</ele>
        <time>2020-07-09T23:09:16.130Z</time>
      </trkpt>
      <trkpt lat="47.15134" lon="0.66426">
        <ele>113.173398</ele>
        <time>2020-07-09T23:09:02.538Z</time>
      </trkpt>
      <trkpt lat="47.15088" lon="0.66451">
        <ele>112.991586</ele>
        <time>2020-07-09T23:08:50.150Z</time>
      </trkpt>
      <trkpt lat="47.15049" lon="0.66489">
        <ele>112.816961</ele>
        <time>2020-07-09T23:08:38.341Z</time>
      </trkpt>
      <trkpt lat="47.15039" lon="0.66521">
        <ele>112.728369</ele>
        <time>2020-07-09T23:08:32.456Z</time>
      </trkpt>
      <trkpt lat="47.15037" lon="0.6659">
        <ele>112.629616</ele>
        <time>2020-07-09T23:08:21.189Z</time>
      </trkpt>
      <trkpt lat="47.15033" lon="0.66616">
        <ele>112.62298</ele>
        <time>2020-07-09T23:08:16.682Z</time>
      </trkpt>
      <trkpt lat="47.14977" lon="0.66697">
        <ele>112.595326</ele>
        <time>2020-07-09T23:07:58.770Z</time>
      </trkpt>
      <trkpt lat="47.149" lon="0.66777">
        <ele>112.499772</ele>
        <time>2020-07-09T23:07:36.964Z</time>
      </trkpt>
      <trkpt lat="47.14873" lon="0.66815">
        <ele>112.416316</ele>
        <time>2020-07-09T23:07:28.070Z</time>
      </trkpt>
      <trkpt lat="47.14834" lon="0.66779">
        <ele>112.313087</ele>
        <time>2020-07-09T23:07:16.735Z</time>
      </trkpt>
      <trkpt lat="47.14805" lon="0.66745">
        <ele>112.231314</ele>
        <time>2020-07-09T23:07:07.735Z</time>
      </trkpt>
      <trkpt lat="47.14764" lon="0.66718">
        <ele>112.150749</ele>
        <time>2020-07-09T23:06:56.631Z</time>
      </trkpt>
      <trkpt lat="47.14718" lon="0.66706">
        <ele>112.095873</ele>
        <time>2020-07-09T23:06:44.880Z</time>
      </trkpt>
      <trkpt lat="47.14675" lon="0.66686">
        <ele>112.04263</ele>
        <time>2020-07-09T23:06:34.275Z</time>
      </trkpt>
      <trkpt lat="47.14589" lon="0.66631">
        <ele>111.898658</ele>
        <time>2020-07-09T23:06:13.380Z</time>
      </trkpt>
      <trkpt lat="47.14524" lon="0.66584">
        <ele>111.711005</ele>
        <time>2020-07-09T23:05:56.386Z</time>
      </trkpt>
      <trkpt lat="47.1438" lon="0.66465">
        <ele>110.96098</ele>
        <time>2020-07-09T23:05:14.021Z</time>
      </trkpt>
      <trkpt lat="47.1418" lon="0.66346">
        <ele>109.79012</ele>
        <time>2020-07-09T23:04:17.858Z</time>
      </trkpt>
      <trkpt lat="47.14167" lon="0.66318">
        <ele>109.686492</ele>
        <time>2020-07-09T23:04:12.518Z</time>
      </trkpt>
      <trkpt lat="47.14138" lon="0.66108">
        <ele>109.435999</ele>
        <time>2020-07-09T23:03:38.669Z</time>
      </trkpt>
      <trkpt lat="47.14123" lon="0.66032">
        <ele>109.39593</ele>
        <time>2020-07-09T23:03:25.842Z</time>
      </trkpt>
      <trkpt lat="47.14093" lon="0.6595">
        <ele>109.372011</ele>
        <time>2020-07-09T23:03:10.638Z</time>
      </trkpt>
      <trkpt lat="47.1402" lon="0.65748">
        <ele>109.415725</ele>
        <time>2020-07-09T23:02:34.510Z</time>
      </trkpt>
      <trkpt lat="47.13975" lon="0.65622">
        <ele>109.760095</ele>
        <time>2020-07-09T23:02:13.463Z</time>
      </trkpt>
      <trkpt lat="47.1395" lon="0.6557">
        <ele>109.918289</ele>
        <time>2020-07-09T23:02:04.010Z</time>
      </trkpt>
      <trkpt lat="47.13496" lon="0.64862">
        <ele>112.789304</ele>
        <time>2020-07-09T22:59:42.479Z</time>
      </trkpt>
      <trkpt lat="47.1336" lon="0.64761">
        <ele>112.676016</ele>
        <time>2020-07-09T22:59:04.892Z</time>
      </trkpt>
      <trkpt lat="47.13328" lon="0.64731">
        <ele>112.471279</ele>
        <time>2020-07-09T22:58:55.196Z</time>
      </trkpt>
      <trkpt lat="47.13045" lon="0.6436">
        <ele>109.773074</ele>
        <time>2020-07-09T22:57:15.939Z</time>
      </trkpt>
      <trkpt lat="47.12993" lon="0.64299">
        <ele>109.317514</ele>
        <time>2020-07-09T22:56:58.423Z</time>
      </trkpt>
      <trkpt lat="47.1285" lon="0.64169">
        <ele>108.516243</ele>
        <time>2020-07-09T22:56:15.641Z</time>
      </trkpt>
      <trkpt lat="47.128" lon="0.64114">
        <ele>108.803675</ele>
        <time>2020-07-09T22:56:01.585Z</time>
      </trkpt>
      <trkpt lat="47.12541" lon="0.63925">
        <ele>110.647576</ele>
        <time>2020-07-09T22:55:02.033Z</time>
      </trkpt>
      <trkpt lat="47.12422" lon="0.63843">
        <ele>110.972838</ele>
        <time>2020-07-09T22:54:32.436Z</time>
      </trkpt>
      <trkpt lat="47.12255" lon="0.63649">
        <ele>111.479677</ele>
        <time>2020-07-09T22:53:44.243Z</time>
      </trkpt>
      <trkpt lat="47.12142" lon="0.63461">
        <ele>112.031258</ele>
        <time>2020-07-09T22:53:07.602Z</time>
      </trkpt>
      <trkpt lat="47.12107" lon="0.63417">
        <ele>112.011072</ele>
        <time>2020-07-09T22:52:57.256Z</time>
      </trkpt>
      <trkpt lat="47.11948" lon="0.63257">
        <ele>110.753138</ele>
        <time>2020-07-09T22:52:07.839Z</time>
      </trkpt>
      <trkpt lat="47.1189" lon="0.63165">
        <ele>109.558126</ele>
        <time>2020-07-09T22:51:42.557Z</time>
      </trkpt>
      <trkpt lat="47.1182" lon="0.63062">
        <ele>108.101797</ele>
        <time>2020-07-09T22:51:12.597Z</time>
      </trkpt>
      <trkpt lat="47.11797" lon="0.6302">
        <ele>107.532268</ele>
        <time>2020-07-09T22:51:01.689Z</time>
      </trkpt>
      <trkpt lat="47.11726" lon="0.62888">
        <ele>105.745521</ele>
        <time>2020-07-09T22:50:28.134Z</time>
      </trkpt>
      <trkpt lat="47.11664" lon="0.62779">
        <ele>104.330997</ele>
        <time>2020-07-09T22:50:00.765Z</time>
      </trkpt>
      <trkpt lat="47.11607" lon="0.62676">
        <ele>102.89286</ele>
        <time>2020-07-09T22:49:34.508Z</time>
      </trkpt>
      <trkpt lat="47.11542" lon="0.62531">
        <ele>100.315897</ele>
        <time>2020-07-09T22:48:56.731Z</time>
      </trkpt>
      <trkpt lat="47.11513" lon="0.62469">
        <ele>99.126873</ele>
        <time>2020-07-09T22:48:39.534Z</time>
      </trkpt>
      <trkpt lat="47.1151" lon="0.62465">
        <ele>99.01247</ele>
        <time>2020-07-09T22:48:38.185Z</time>
      </trkpt>
      <trkpt lat="47.11505" lon="0.62461">
        <ele>98.833382</ele>
        <time>2020-07-09T22:48:36.194Z</time>
      </trkpt>
      <trkpt lat="47.11498" lon="0.62459">
        <ele>98.627471</ele>
        <time>2020-07-09T22:48:33.867Z</time>
      </trkpt>
      <trkpt lat="47.11485" lon="0.62464">
        <ele>98.214352</ele>
        <time>2020-07-09T22:48:29.285Z</time>
      </trkpt>
      <trkpt lat="47.11481" lon="0.62467">
        <ele>98.081032</ele>
        <time>2020-07-09T22:48:27.783Z</time>
      </trkpt>
      <trkpt lat="47.11475" lon="0.62435">
        <ele>97.41113</ele>
        <time>2020-07-09T22:48:20.308Z</time>
      </trkpt>
      <trkpt lat="47.11468" lon="0.62389">
        <ele>96.457963</ele>
        <time>2020-07-09T22:48:09.759Z</time>
      </trkpt>
      <trkpt lat="47.11419" lon="0.62248">
        <ele>93.039884</ele>
        <time>2020-07-09T22:47:31.381Z</time>
      </trkpt>
      <trkpt lat="47.11395" lon="0.62195">
        <ele>91.412593</ele>
        <time>2020-07-09T22:47:15.019Z</time>
      </trkpt>
      <trkpt lat="47.11375" lon="0.62168">
        <ele>90.39198</ele>
        <time>2020-07-09T22:47:04.229Z</time>
      </trkpt>
      <trkpt lat="47.11372" lon="0.62163">
        <ele>90.216831</ele>
        <time>2020-07-09T22:47:02.184Z</time>
      </trkpt>
      <trkpt lat="47.11375" lon="0.62159">
        <ele>90.050723</ele>
        <time>2020-07-09T22:47:00.474Z</time>
      </trkpt>
      <trkpt lat="47.11377" lon="0.62156">
        <ele>89.922994</ele>
        <time>2020-07-09T22:46:59.257Z</time>
      </trkpt>
      <trkpt lat="47.11384" lon="0.62149">
        <ele>89.622035</ele>
        <time>2020-07-09T22:46:56.836Z</time>
      </trkpt>
      <trkpt lat="47.1139" lon="0.62141">
        <ele>89.307884</ele>
        <time>2020-07-09T22:46:52.882Z</time>
      </trkpt>
      <trkpt lat="47.11432" lon="0.62072">
        <ele>86.997071</ele>
        <time>2020-07-09T22:46:30.276Z</time>
      </trkpt>
      <trkpt lat="47.11444" lon="0.62052">
        <ele>86.444274</ele>
        <time>2020-07-09T22:46:23.096Z</time>
      </trkpt>
      <trkpt lat="47.11468" lon="0.62011">
        <ele>85.320317</ele>
        <time>2020-07-09T22:46:09.667Z</time>
      </trkpt>
      <trkpt lat="47.11476" lon="0.61997">
        <ele>84.966422</ele>
        <time>2020-07-09T22:46:06.123Z</time>
      </trkpt>
      <trkpt lat="47.11482" lon="0.61987">
        <ele>84.682601</ele>
        <time>2020-07-09T22:46:03.019Z</time>
      </trkpt>
      <trkpt lat="47.1154" lon="0.61886">
        <ele>81.951664</ele>
        <time>2020-07-09T22:45:32.537Z</time>
      </trkpt>
      <trkpt lat="47.11548" lon="0.61872">
        <ele>81.618024</ele>
        <time>2020-07-09T22:45:29.576Z</time>
      </trkpt>
      <trkpt lat="47.11536" lon="0.61864">
        <ele>81.292853</ele>
        <time>2020-07-09T22:45:24.195Z</time>
      </trkpt>
      <trkpt lat="47.11419" lon="0.61783">
        <ele>78.037766</ele>
        <time>2020-07-09T22:44:44.343Z</time>
      </trkpt>
      <trkpt lat="47.11413" lon="0.61778">
        <ele>77.846925</ele>
        <time>2020-07-09T22:44:40.826Z</time>
      </trkpt>
      <trkpt lat="47.11404" lon="0.61772">
        <ele>77.612199</ele>
        <time>2020-07-09T22:44:36.945Z</time>
      </trkpt>
      <trkpt lat="47.11316" lon="0.61712">
        <ele>75.467937</ele>
        <time>2020-07-09T22:44:05.618Z</time>
      </trkpt>
      <trkpt lat="47.11284" lon="0.6169">
        <ele>74.701316</ele>
        <time>2020-07-09T22:43:54.459Z</time>
      </trkpt>
      <trkpt lat="47.11265" lon="0.61676">
        <ele>74.249348</ele>
        <time>2020-07-09T22:43:48.016Z</time>
      </trkpt>
      <trkpt lat="47.11259" lon="0.61672">
        <ele>74.103632</ele>
        <time>2020-07-09T22:43:46.233Z</time>
      </trkpt>
      <trkpt lat="47.11249" lon="0.61665">
        <ele>73.870835</ele>
        <time>2020-07-09T22:43:43.341Z</time>
      </trkpt>
      <trkpt lat="47.11243" lon="0.61661">
        <ele>73.718653</ele>
        <time>2020-07-09T22:43:41.383Z</time>
      </trkpt>
      <trkpt lat="47.11237" lon="0.61657">
        <ele>73.582607</ele>
        <time>2020-07-09T22:43:39.686Z</time>
      </trkpt>
      <trkpt lat="47.11189" lon="0.61623">
        <ele>72.924361</ele>
        <time>2020-07-09T22:43:25.360Z</time>
      </trkpt>
      <trkpt lat="47.11185" lon="0.6162">
        <ele>72.884595</ele>
        <time>2020-07-09T22:43:24.277Z</time>
      </trkpt>
      <trkpt lat="47.11178" lon="0.61615">
        <ele>72.802948</ele>
        <time>2020-07-09T22:43:21.978Z</time>
      </trkpt>
      <trkpt lat="47.11132" lon="0.61585">
        <ele>72.30737</ele>
        <time>2020-07-09T22:43:08.836Z</time>
      </trkpt>
      <trkpt lat="47.11087" lon="0.61555">
        <ele>71.810334</ele>
        <time>2020-07-09T22:42:56.005Z</time>
      </trkpt>
      <trkpt lat="47.11058" lon="0.61534">
        <ele>71.533538</ele>
        <time>2020-07-09T22:42:47.970Z</time>
      </trkpt>
      <trkpt lat="47.11034" lon="0.61518">
        <ele>71.419296</ele>
        <time>2020-07-09T22:42:41.465Z</time>
      </trkpt>
      <trkpt lat="47.11029" lon="0.61514">
        <ele>71.396785</ele>
        <time>2020-07-09T22:42:39.967Z</time>
      </trkpt>
      <trkpt lat="47.11023" lon="0.6151">
        <ele>71.367738</ele>
        <time>2020-07-09T22:42:38.345Z</time>
      </trkpt>
      <trkpt lat="47.10995" lon="0.61491">
        <ele>71.23595</ele>
        <time>2020-07-09T22:42:30.862Z</time>
      </trkpt>
      <trkpt lat="47.10949" lon="0.61461">
        <ele>71.023429</ele>
        <time>2020-07-09T22:42:19.198Z</time>
      </trkpt>
      <trkpt lat="47.10911" lon="0.61437">
        <ele>70.844415</ele>
        <time>2020-07-09T22:42:09.379Z</time>
      </trkpt>
      <trkpt lat="47.10894" lon="0.61426">
        <ele>70.802833</ele>
        <time>2020-07-09T22:42:05.005Z</time>
      </trkpt>
      <trkpt lat="47.10874" lon="0.61417">
        <ele>70.825151</ele>
        <time>2020-07-09T22:42:00.194Z</time>
      </trkpt>
      <trkpt lat="47.10862" lon="0.61411">
        <ele>70.837616</ele>
        <time>2020-07-09T22:41:57.487Z</time>
      </trkpt>
      <trkpt lat="47.10861" lon="0.61415">
        <ele>70.840796</ele>
        <time>2020-07-09T22:41:56.792Z</time>
      </trkpt>
      <trkpt lat="47.10859" lon="0.61418">
        <ele>70.84392</ele>
        <time>2020-07-09T22:41:56.096Z</time>
      </trkpt>
      <trkpt lat="47.10856" lon="0.61421">
        <ele>70.84711</ele>
        <time>2020-07-09T22:41:55.413Z</time>
      </trkpt>
      <trkpt lat="47.10853" lon="0.61422">
        <ele>70.85034</ele>
        <time>2020-07-09T22:41:54.704Z</time>
      </trkpt>
      <trkpt lat="47.10847" lon="0.6142">
        <ele>70.856765</ele>
        <time>2020-07-09T22:41:53.365Z</time>
      </trkpt>
      <trkpt lat="47.10844" lon="0.61418">
        <ele>70.859993</ele>
        <time>2020-07-09T22:41:52.683Z</time>
      </trkpt>
      <trkpt lat="47.10826" lon="0.61436">
        <ele>70.88291</ele>
        <time>2020-07-09T22:41:47.735Z</time>
      </trkpt>
      <trkpt lat="47.10821" lon="0.61433">
        <ele>70.888328</ele>
        <time>2020-07-09T22:41:46.468Z</time>
      </trkpt>
      <trkpt lat="47.10818" lon="0.61409">
        <ele>70.905683</ele>
        <time>2020-07-09T22:41:42.707Z</time>
      </trkpt>
      <trkpt lat="47.10814" lon="0.61402">
        <ele>70.911783</ele>
        <time>2020-07-09T22:41:41.316Z</time>
      </trkpt>
      <trkpt lat="47.10806" lon="0.61396">
        <ele>70.921837</ele>
        <time>2020-07-09T22:41:39.063Z</time>
      </trkpt>
      <trkpt lat="47.10804" lon="0.61394">
        <ele>70.923611</ele>
        <time>2020-07-09T22:41:38.653Z</time>
      </trkpt>
      <trkpt lat="47.1078" lon="0.61385">
        <ele>70.949076</ele>
        <time>2020-07-09T22:41:33.277Z</time>
      </trkpt>
      <trkpt lat="47.10781" lon="0.61374">
        <ele>70.956713</ele>
        <time>2020-07-09T22:41:31.183Z</time>
      </trkpt>
      <trkpt lat="47.10772" lon="0.61371">
        <ele>70.966988</ele>
        <time>2020-07-09T22:41:29.122Z</time>
      </trkpt>
      <trkpt lat="47.10773" lon="0.61352">
        <ele>70.980372</ele>
        <time>2020-07-09T22:41:26.569Z</time>
      </trkpt>
      <trkpt lat="47.10769" lon="0.61259">
        <ele>71.511837</ele>
        <time>2020-07-09T22:41:13.498Z</time>
      </trkpt>
      <trkpt lat="47.10764" lon="0.61151">
        <ele>72.151267</ele>
        <time>2020-07-09T22:40:58.949Z</time>
      </trkpt>
      <trkpt lat="47.10764" lon="0.61146">
        <ele>72.181942</ele>
        <time>2020-07-09T22:40:58.287Z</time>
      </trkpt>
      <trkpt lat="47.10761" lon="0.61133">
        <ele>72.26312</ele>
        <time>2020-07-09T22:40:56.570Z</time>
      </trkpt>
      <trkpt lat="47.10715" lon="0.61056">
        <ele>73.136876</ele>
        <time>2020-07-09T22:40:43.673Z</time>
      </trkpt>
      <trkpt lat="47.10696" lon="0.61024">
        <ele>73.590499</ele>
        <time>2020-07-09T22:40:38.357Z</time>
      </trkpt>
      <trkpt lat="47.10659" lon="0.60967">
        <ele>74.449947</ele>
        <time>2020-07-09T22:40:28.335Z</time>
      </trkpt>
      <trkpt lat="47.10649" lon="0.60952">
        <ele>74.680697</ele>
        <time>2020-07-09T22:40:25.638Z</time>
      </trkpt>
      <trkpt lat="47.10622" lon="0.60912">
        <ele>75.287317</ele>
        <time>2020-07-09T22:40:18.788Z</time>
      </trkpt>
      <trkpt lat="47.10599" lon="0.60878">
        <ele>76.285804</ele>
        <time>2020-07-09T22:40:13.097Z</time>
      </trkpt>
      <trkpt lat="47.10591" lon="0.60866">
        <ele>76.672162</ele>
        <time>2020-07-09T22:40:11.234Z</time>
      </trkpt>
      <trkpt lat="47.1059" lon="0.60867">
        <ele>76.741402</ele>
        <time>2020-07-09T22:40:10.903Z</time>
      </trkpt>
      <trkpt lat="47.10583" lon="0.60865">
        <ele>76.995074</ele>
        <time>2020-07-09T22:40:09.656Z</time>
      </trkpt>
      <trkpt lat="47.10582" lon="0.60862">
        <ele>77.06329</ele>
        <time>2020-07-09T22:40:09.321Z</time>
      </trkpt>
      <trkpt lat="47.10581" lon="0.60859">
        <ele>77.143469</ele>
        <time>2020-07-09T22:40:08.931Z</time>
      </trkpt>
      <trkpt lat="47.10583" lon="0.60853">
        <ele>77.297106</ele>
        <time>2020-07-09T22:40:08.166Z</time>
      </trkpt>
      <trkpt lat="47.10586" lon="0.60852">
        <ele>77.378385</ele>
        <time>2020-07-09T22:40:07.785Z</time>
      </trkpt>
      <trkpt lat="47.10579" lon="0.60825">
        <ele>78.031724</ele>
        <time>2020-07-09T22:40:04.705Z</time>
      </trkpt>
      <trkpt lat="47.1056" lon="0.6076">
        <ele>79.693102</ele>
        <time>2020-07-09T22:39:56.916Z</time>
      </trkpt>
      <trkpt lat="47.10536" lon="0.60677">
        <ele>81.885261</ele>
        <time>2020-07-09T22:39:47.344Z</time>
      </trkpt>
      <trkpt lat="47.10497" lon="0.60548">
        <ele>86.512698</ele>
        <time>2020-07-09T22:39:32.959Z</time>
      </trkpt>
      <trkpt lat="47.10474" lon="0.60488">
        <ele>88.77285</ele>
        <time>2020-07-09T22:39:25.778Z</time>
      </trkpt>
      <trkpt lat="47.10463" lon="0.60462">
        <ele>89.76902</ele>
        <time>2020-07-09T22:39:22.648Z</time>
      </trkpt>
      <trkpt lat="47.10451" lon="0.60432">
        <ele>90.555277</ele>
        <time>2020-07-09T22:39:18.926Z</time>
      </trkpt>
      <trkpt lat="47.10428" lon="0.60383">
        <ele>91.521287</ele>
        <time>2020-07-09T22:39:12.369Z</time>
      </trkpt>
      <trkpt lat="47.1042" lon="0.6037">
        <ele>91.800322</ele>
        <time>2020-07-09T22:39:10.476Z</time>
      </trkpt>
      <trkpt lat="47.1041" lon="0.60357">
        <ele>92.106797</ele>
        <time>2020-07-09T22:39:08.204Z</time>
      </trkpt>
      <trkpt lat="47.10385" lon="0.60326">
        <ele>92.888966</ele>
        <time>2020-07-09T22:39:02.580Z</time>
      </trkpt>
      <trkpt lat="47.10377" lon="0.60317">
        <ele>93.127816</ele>
        <time>2020-07-09T22:39:00.892Z</time>
      </trkpt>
      <trkpt lat="47.10216" lon="0.60172">
        <ele>94.532164</ele>
        <time>2020-07-09T22:38:21.646Z</time>
      </trkpt>
      <trkpt lat="47.10178" lon="0.60134">
        <ele>94.552883</ele>
        <time>2020-07-09T22:38:09.992Z</time>
      </trkpt>
      <trkpt lat="47.10166" lon="0.60123">
        <ele>94.419598</ele>
        <time>2020-07-09T22:38:06.418Z</time>
      </trkpt>
      <trkpt lat="47.10163" lon="0.60128">
        <ele>94.361179</ele>
        <time>2020-07-09T22:38:04.630Z</time>
      </trkpt>
      <trkpt lat="47.09931" lon="0.60252">
        <ele>92.096227</ele>
        <time>2020-07-09T22:36:55.930Z</time>
      </trkpt>
      <trkpt lat="47.09911" lon="0.6027">
        <ele>91.977603</ele>
        <time>2020-07-09T22:36:50.137Z</time>
      </trkpt>
      <trkpt lat="47.09896" lon="0.60294">
        <ele>91.863725</ele>
        <time>2020-07-09T22:36:44.631Z</time>
      </trkpt>
      <trkpt lat="47.09892" lon="0.60306">
        <ele>91.817176</ele>
        <time>2020-07-09T22:36:42.520Z</time>
      </trkpt>
      <trkpt lat="47.0989" lon="0.60324">
        <ele>91.755907</ele>
        <time>2020-07-09T22:36:39.778Z</time>
      </trkpt>
      <trkpt lat="47.09885" lon="0.60382">
        <ele>91.666788</ele>
        <time>2020-07-09T22:36:30.980Z</time>
      </trkpt>
      <trkpt lat="47.09881" lon="0.60397">
        <ele>91.727699</ele>
        <time>2020-07-09T22:36:28.449Z</time>
      </trkpt>
      <trkpt lat="47.09878" lon="0.60404">
        <ele>91.756146</ele>
        <time>2020-07-09T22:36:27.408Z</time>
      </trkpt>
      <trkpt lat="47.09818" lon="0.60457">
        <ele>92.131159</ele>
        <time>2020-07-09T22:36:12.490Z</time>
      </trkpt>
      <trkpt lat="47.09778" lon="0.60494">
        <ele>92.387931</ele>
        <time>2020-07-09T22:36:02.601Z</time>
      </trkpt>
      <trkpt lat="47.09765" lon="0.6051">
        <ele>92.47496</ele>
        <time>2020-07-09T22:35:59.054Z</time>
      </trkpt>
      <trkpt lat="47.09706" lon="0.60609">
        <ele>92.973709</ele>
        <time>2020-07-09T22:35:39.952Z</time>
      </trkpt>
      <trkpt lat="47.09666" lon="0.60665">
        <ele>93.279023</ele>
        <time>2020-07-09T22:35:28.085Z</time>
      </trkpt>
      <trkpt lat="47.0966" lon="0.6067">
        <ele>93.31882</ele>
        <time>2020-07-09T22:35:26.367Z</time>
      </trkpt>
      <trkpt lat="47.09661" lon="0.60672">
        <ele>93.329103</ele>
        <time>2020-07-09T22:35:25.962Z</time>
      </trkpt>
      <trkpt lat="47.09661" lon="0.60675">
        <ele>93.339434</ele>
        <time>2020-07-09T22:35:25.560Z</time>
      </trkpt>
      <trkpt lat="47.09661" lon="0.60678">
        <ele>93.349945</ele>
        <time>2020-07-09T22:35:25.161Z</time>
      </trkpt>
      <trkpt lat="47.0966" lon="0.6068">
        <ele>93.360649</ele>
        <time>2020-07-09T22:35:24.766Z</time>
      </trkpt>
      <trkpt lat="47.09658" lon="0.60682">
        <ele>93.371236</ele>
        <time>2020-07-09T22:35:24.374Z</time>
      </trkpt>
      <trkpt lat="47.09653" lon="0.60682">
        <ele>93.40199</ele>
        <time>2020-07-09T22:35:23.218Z</time>
      </trkpt>
      <trkpt lat="47.09651" lon="0.60681">
        <ele>93.41213</ele>
        <time>2020-07-09T22:35:22.836Z</time>
      </trkpt>
      <trkpt lat="47.09644" lon="0.60692">
        <ele>93.469409</ele>
        <time>2020-07-09T22:35:20.745Z</time>
      </trkpt>
      <trkpt lat="47.096" lon="0.60767">
        <ele>94.059419</ele>
        <time>2020-07-09T22:35:06.756Z</time>
      </trkpt>
      <trkpt lat="47.09564" lon="0.6084">
        <ele>94.683819</ele>
        <time>2020-07-09T22:34:54.329Z</time>
      </trkpt>
      <trkpt lat="47.09553" lon="0.60856">
        <ele>94.840432</ele>
        <time>2020-07-09T22:34:51.354Z</time>
      </trkpt>
      <trkpt lat="47.09502" lon="0.60927">
        <ele>95.492725</ele>
        <time>2020-07-09T22:34:37.544Z</time>
      </trkpt>
      <trkpt lat="47.09456" lon="0.60978">
        <ele>95.866068</ele>
        <time>2020-07-09T22:34:25.796Z</time>
      </trkpt>
      <trkpt lat="47.09448" lon="0.60979">
        <ele>95.91377</ele>
        <time>2020-07-09T22:34:24.297Z</time>
      </trkpt>
      <trkpt lat="47.09427" lon="0.60962">
        <ele>96.067548</ele>
        <time>2020-07-09T22:34:19.272Z</time>
      </trkpt>
      <trkpt lat="47.09392" lon="0.60946">
        <ele>96.308657</ele>
        <time>2020-07-09T22:34:11.156Z</time>
      </trkpt>
      <trkpt lat="47.09378" lon="0.60941">
        <ele>96.398143</ele>
        <time>2020-07-09T22:34:08.100Z</time>
      </trkpt>
      <trkpt lat="47.09288" lon="0.60902">
        <ele>95.677841</ele>
        <time>2020-07-09T22:33:45.578Z</time>
      </trkpt>
      <trkpt lat="47.09197" lon="0.60861">
        <ele>94.486377</ele>
        <time>2020-07-09T22:33:17.497Z</time>
      </trkpt>
      <trkpt lat="47.09146" lon="0.60838">
        <ele>92.740642</ele>
        <time>2020-07-09T22:32:58.795Z</time>
      </trkpt>
      <trkpt lat="47.09093" lon="0.60815">
        <ele>90.506386</ele>
        <time>2020-07-09T22:32:38.419Z</time>
      </trkpt>
      <trkpt lat="47.09078" lon="0.6081">
        <ele>89.90253</ele>
        <time>2020-07-09T22:32:32.090Z</time>
      </trkpt>
      <trkpt lat="47.09023" lon="0.60786">
        <ele>87.582161</ele>
        <time>2020-07-09T22:32:07.248Z</time>
      </trkpt>
      <trkpt lat="47.08975" lon="0.60744">
        <ele>84.817784</ele>
        <time>2020-07-09T22:31:41.659Z</time>
      </trkpt>
      <trkpt lat="47.08966" lon="0.60739">
        <ele>84.364865</ele>
        <time>2020-07-09T22:31:37.003Z</time>
      </trkpt>
      <trkpt lat="47.08891" lon="0.60697">
        <ele>80.170646</ele>
        <time>2020-07-09T22:31:01.043Z</time>
      </trkpt>
      <trkpt lat="47.08719" lon="0.60605">
        <ele>72.179573</ele>
        <time>2020-07-09T22:29:45.547Z</time>
      </trkpt>
      <trkpt lat="47.08565" lon="0.60576">
        <ele>67.915888</ele>
        <time>2020-07-09T22:28:51.526Z</time>
      </trkpt>
      <trkpt lat="47.08456" lon="0.60554">
        <ele>66.525579</ele>
        <time>2020-07-09T22:28:21.380Z</time>
      </trkpt>
      <trkpt lat="47.08449" lon="0.60548">
        <ele>66.55576</ele>
        <time>2020-07-09T22:28:19.416Z</time>
      </trkpt>
      <trkpt lat="47.08375" lon="0.60527">
        <ele>66.817287</ele>
        <time>2020-07-09T22:28:03.151Z</time>
      </trkpt>
      <trkpt lat="47.08248" lon="0.60491">
        <ele>68.154091</ele>
        <time>2020-07-09T22:27:38.134Z</time>
      </trkpt>
      <trkpt lat="47.08096" lon="0.60442">
        <ele>70.212891</ele>
        <time>2020-07-09T22:27:08.790Z</time>
      </trkpt>
      <trkpt lat="47.08062" lon="0.60427">
        <ele>70.50328</ele>
        <time>2020-07-09T22:27:01.608Z</time>
      </trkpt>
      <trkpt lat="47.08046" lon="0.60405">
        <ele>70.67785</ele>
        <time>2020-07-09T22:26:57.160Z</time>
      </trkpt>
      <trkpt lat="47.08034" lon="0.6038">
        <ele>70.839496</ele>
        <time>2020-07-09T22:26:52.975Z</time>
      </trkpt>
      <trkpt lat="47.08026" lon="0.60356">
        <ele>70.989197</ele>
        <time>2020-07-09T22:26:49.032Z</time>
      </trkpt>
      <trkpt lat="47.07929" lon="0.60094">
        <ele>70.503139</ele>
        <time>2020-07-09T22:25:58.149Z</time>
      </trkpt>
      <trkpt lat="47.07922" lon="0.60076">
        <ele>70.431183</ele>
        <time>2020-07-09T22:25:54.173Z</time>
      </trkpt>
      <trkpt lat="47.07875" lon="0.59951">
        <ele>69.837819</ele>
        <time>2020-07-09T22:25:28.566Z</time>
      </trkpt>
      <trkpt lat="47.07829" lon="0.59848">
        <ele>69.358557</ele>
        <time>2020-07-09T22:25:07.433Z</time>
      </trkpt>
      <trkpt lat="47.07799" lon="0.59796">
        <ele>69.439624</ele>
        <time>2020-07-09T22:24:56.352Z</time>
      </trkpt>
      <trkpt lat="47.0779" lon="0.59783">
        <ele>69.461603</ele>
        <time>2020-07-09T22:24:53.347Z</time>
      </trkpt>
      <trkpt lat="47.07777" lon="0.5978">
        <ele>69.484414</ele>
        <time>2020-07-09T22:24:50.439Z</time>
      </trkpt>
      <trkpt lat="47.07758" lon="0.59777">
        <ele>69.516629</ele>
        <time>2020-07-09T22:24:46.292Z</time>
      </trkpt>
      <trkpt lat="47.07721" lon="0.59762">
        <ele>69.583254</ele>
        <time>2020-07-09T22:24:37.838Z</time>
      </trkpt>
      <trkpt lat="47.07621" lon="0.59696">
        <ele>69.891159</ele>
        <time>2020-07-09T22:24:14.315Z</time>
      </trkpt>
      <trkpt lat="47.07554" lon="0.5965">
        <ele>70.155378</ele>
        <time>2020-07-09T22:23:58.333Z</time>
      </trkpt>
      <trkpt lat="47.07415" lon="0.59553">
        <ele>70.016013</ele>
        <time>2020-07-09T22:23:23.106Z</time>
      </trkpt>
      <trkpt lat="47.07372" lon="0.59513">
        <ele>69.884986</ele>
        <time>2020-07-09T22:23:09.868Z</time>
      </trkpt>
      <trkpt lat="47.07319" lon="0.59452">
        <ele>69.150363</ele>
        <time>2020-07-09T22:22:51.694Z</time>
      </trkpt>
      <trkpt lat="47.07305" lon="0.59443">
        <ele>68.939989</ele>
        <time>2020-07-09T22:22:47.396Z</time>
      </trkpt>
      <trkpt lat="47.07291" lon="0.59427">
        <ele>68.707469</ele>
        <time>2020-07-09T22:22:42.494Z</time>
      </trkpt>
      <trkpt lat="47.07265" lon="0.59405">
        <ele>68.290755</ele>
        <time>2020-07-09T22:22:33.678Z</time>
      </trkpt>
      <trkpt lat="47.0718" lon="0.59363">
        <ele>66.951938</ele>
        <time>2020-07-09T22:22:06.894Z</time>
      </trkpt>
      <trkpt lat="47.07019" lon="0.59184">
        <ele>63.17807</ele>
        <time>2020-07-09T22:21:04.414Z</time>
      </trkpt>
      <trkpt lat="47.07" lon="0.5917">
        <ele>62.810377</ele>
        <time>2020-07-09T22:20:57.917Z</time>
      </trkpt>
      <trkpt lat="47.06912" lon="0.59131">
        <ele>61.176435</ele>
        <time>2020-07-09T22:20:29.378Z</time>
      </trkpt>
      <trkpt lat="47.06708" lon="0.59098">
        <ele>58.741144</ele>
        <time>2020-07-09T22:19:31.894Z</time>
      </trkpt>
      <trkpt lat="47.06455" lon="0.59072">
        <ele>58.338935</ele>
        <time>2020-07-09T22:18:34.582Z</time>
      </trkpt>
      <trkpt lat="47.06435" lon="0.59065">
        <ele>58.248192</ele>
        <time>2020-07-09T22:18:29.643Z</time>
      </trkpt>
      <trkpt lat="47.06419" lon="0.58885">
        <ele>57.61215</ele>
        <time>2020-07-09T22:17:55.251Z</time>
      </trkpt>
      <trkpt lat="47.06416" lon="0.58852">
        <ele>57.460706</ele>
        <time>2020-07-09T22:17:49.664Z</time>
      </trkpt>
      <trkpt lat="47.06413" lon="0.58823">
        <ele>57.330756</ele>
        <time>2020-07-09T22:17:43.387Z</time>
      </trkpt>
      <trkpt lat="47.06406" lon="0.58749">
        <ele>56.994013</ele>
        <time>2020-07-09T22:17:30.604Z</time>
      </trkpt>
      <trkpt lat="47.06403" lon="0.58719">
        <ele>56.854031</ele>
        <time>2020-07-09T22:17:24.560Z</time>
      </trkpt>
      <trkpt lat="47.0639" lon="0.58722">
        <ele>56.766723</ele>
        <time>2020-07-09T22:17:22.022Z</time>
      </trkpt>
      <trkpt lat="47.06271" lon="0.5879">
        <ele>57.569898</ele>
        <time>2020-07-09T22:16:54.489Z</time>
      </trkpt>
      <trkpt lat="47.06242" lon="0.58803">
        <ele>57.789474</ele>
        <time>2020-07-09T22:16:48.832Z</time>
      </trkpt>
      <trkpt lat="47.0623" lon="0.58807">
        <ele>57.881632</ele>
        <time>2020-07-09T22:16:46.383Z</time>
      </trkpt>
      <trkpt lat="47.06148" lon="0.58819">
        <ele>58.460408</ele>
        <time>2020-07-09T22:16:29.953Z</time>
      </trkpt>
      <trkpt lat="47.06098" lon="0.58802">
        <ele>58.812006</ele>
        <time>2020-07-09T22:16:19.348Z</time>
      </trkpt>
      <trkpt lat="47.06085" lon="0.58792">
        <ele>58.913224</ele>
        <time>2020-07-09T22:16:16.125Z</time>
      </trkpt>
      <trkpt lat="47.0607" lon="0.58778">
        <ele>59.034002</ele>
        <time>2020-07-09T22:16:12.209Z</time>
      </trkpt>
      <trkpt lat="47.05995" lon="0.58687">
        <ele>58.965594</ele>
        <time>2020-07-09T22:15:49.803Z</time>
      </trkpt>
      <trkpt lat="47.05905" lon="0.58617">
        <ele>58.504045</ele>
        <time>2020-07-09T22:15:23.779Z</time>
      </trkpt>
      <trkpt lat="47.05824" lon="0.58508">
        <ele>57.314057</ele>
        <time>2020-07-09T22:14:53.026Z</time>
      </trkpt>
      <trkpt lat="47.05806" lon="0.58486">
        <ele>57.035079</ele>
        <time>2020-07-09T22:14:46.238Z</time>
      </trkpt>
      <trkpt lat="47.05776" lon="0.58454">
        <ele>56.609544</ele>
        <time>2020-07-09T22:14:35.962Z</time>
      </trkpt>
      <trkpt lat="47.05696" lon="0.58332">
        <ele>55.339515</ele>
        <time>2020-07-09T22:14:03.342Z</time>
      </trkpt>
      <trkpt lat="47.05665" lon="0.58304">
        <ele>54.950518</ele>
        <time>2020-07-09T22:13:53.507Z</time>
      </trkpt>
      <trkpt lat="47.05651" lon="0.58299">
        <ele>54.791662</ele>
        <time>2020-07-09T22:13:49.566Z</time>
      </trkpt>
      <trkpt lat="47.0558" lon="0.58297">
        <ele>54.111579</ele>
        <time>2020-07-09T22:13:30.713Z</time>
      </trkpt>
      <trkpt lat="47.05337" lon="0.58326">
        <ele>52.036327</ele>
        <time>2020-07-09T22:12:26.246Z</time>
      </trkpt>
      <trkpt lat="47.05333" lon="0.5833">
        <ele>51.990566</ele>
        <time>2020-07-09T22:12:24.821Z</time>
      </trkpt>
      <trkpt lat="47.05329" lon="0.58337">
        <ele>51.93719</ele>
        <time>2020-07-09T22:12:23.252Z</time>
      </trkpt>
      <trkpt lat="47.05327" lon="0.58346">
        <ele>51.879474</ele>
        <time>2020-07-09T22:12:21.547Z</time>
      </trkpt>
      <trkpt lat="47.05322" lon="0.58389">
        <ele>51.617203</ele>
        <time>2020-07-09T22:12:13.474Z</time>
      </trkpt>
      <trkpt lat="47.05309" lon="0.5839">
        <ele>51.50013</ele>
        <time>2020-07-09T22:12:09.880Z</time>
      </trkpt>
      <trkpt lat="47.05244" lon="0.58397">
        <ele>50.96579</ele>
        <time>2020-07-09T22:11:52.457Z</time>
      </trkpt>
      <trkpt lat="47.05237" lon="0.58399">
        <ele>50.910768</ele>
        <time>2020-07-09T22:11:50.456Z</time>
      </trkpt>
      <trkpt lat="47.05232" lon="0.584">
        <ele>50.869091</ele>
        <time>2020-07-09T22:11:49.028Z</time>
      </trkpt>
      <trkpt lat="47.05119" lon="0.5841">
        <ele>49.976461</ele>
        <time>2020-07-09T22:11:20.140Z</time>
      </trkpt>
      <trkpt lat="47.0509" lon="0.58402">
        <ele>49.84791</ele>
        <time>2020-07-09T22:11:12.973Z</time>
      </trkpt>
      <trkpt lat="47.05007" lon="0.58361">
        <ele>49.614726</ele>
        <time>2020-07-09T22:10:52.187Z</time>
      </trkpt>
      <trkpt lat="47.04981" lon="0.58359">
        <ele>49.545249</ele>
        <time>2020-07-09T22:10:46.154Z</time>
      </trkpt>
      <trkpt lat="47.04726" lon="0.58387">
        <ele>49.656955</ele>
        <time>2020-07-09T22:09:51.088Z</time>
      </trkpt>
      <trkpt lat="47.04645" lon="0.58414">
        <ele>49.5731</ele>
        <time>2020-07-09T22:09:31.574Z</time>
      </trkpt>
      <trkpt lat="47.04616" lon="0.58442">
        <ele>49.5389</ele>
        <time>2020-07-09T22:09:23.867Z</time>
      </trkpt>
      <trkpt lat="47.04604" lon="0.58461">
        <ele>49.520861</ele>
        <time>2020-07-09T22:09:19.950Z</time>
      </trkpt>
      <trkpt lat="47.04586" lon="0.58492">
        <ele>49.508544</ele>
        <time>2020-07-09T22:09:13.381Z</time>
      </trkpt>
      <trkpt lat="47.04566" lon="0.58526">
        <ele>49.517487</ele>
        <time>2020-07-09T22:09:06.591Z</time>
      </trkpt>
      <trkpt lat="47.04536" lon="0.58579">
        <ele>49.531108</ele>
        <time>2020-07-09T22:08:56.117Z</time>
      </trkpt>
      <trkpt lat="47.0451" lon="0.5861">
        <ele>49.540949</ele>
        <time>2020-07-09T22:08:48.084Z</time>
      </trkpt>
      <trkpt lat="47.04497" lon="0.58617">
        <ele>49.544906</ele>
        <time>2020-07-09T22:08:45.092Z</time>
      </trkpt>
      <trkpt lat="47.04481" lon="0.5862">
        <ele>49.549639</ele>
        <time>2020-07-09T22:08:41.243Z</time>
      </trkpt>
      <trkpt lat="47.04451" lon="0.58611">
        <ele>49.59218</ele>
        <time>2020-07-09T22:08:34.483Z</time>
      </trkpt>
      <trkpt lat="47.04347" lon="0.58511">
        <ele>50.663777</ele>
        <time>2020-07-09T22:08:09.771Z</time>
      </trkpt>
      <trkpt lat="47.04297" lon="0.58498">
        <ele>51.103239</ele>
        <time>2020-07-09T22:08:00.190Z</time>
      </trkpt>
      <trkpt lat="47.04285" lon="0.58501">
        <ele>51.408815</ele>
        <time>2020-07-09T22:07:57.806Z</time>
      </trkpt>
      <trkpt lat="47.04267" lon="0.58509">
        <ele>51.914355</ele>
        <time>2020-07-09T22:07:54.486Z</time>
      </trkpt>
      <trkpt lat="47.04245" lon="0.58525">
        <ele>52.554542</ele>
        <time>2020-07-09T22:07:50.060Z</time>
      </trkpt>
      <trkpt lat="47.04215" lon="0.58569">
        <ele>53.681505</ele>
        <time>2020-07-09T22:07:43.085Z</time>
      </trkpt>
      <trkpt lat="47.04181" lon="0.58707">
        <ele>56.507593</ele>
        <time>2020-07-09T22:07:26.731Z</time>
      </trkpt>
      <trkpt lat="47.04177" lon="0.58723">
        <ele>56.913638</ele>
        <time>2020-07-09T22:07:24.948Z</time>
      </trkpt>
      <trkpt lat="47.04169" lon="0.58761">
        <ele>57.884783</ele>
        <time>2020-07-09T22:07:20.585Z</time>
      </trkpt>
      <trkpt lat="47.04139" lon="0.58889">
        <ele>61.193476</ele>
        <time>2020-07-09T22:07:05.902Z</time>
      </trkpt>
      <trkpt lat="47.04128" lon="0.58921">
        <ele>62.084016</ele>
        <time>2020-07-09T22:07:02.017Z</time>
      </trkpt>
      <trkpt lat="47.04115" lon="0.58952">
        <ele>62.865868</ele>
        <time>2020-07-09T22:06:58.053Z</time>
      </trkpt>
      <trkpt lat="47.04102" lon="0.58975">
        <ele>63.462249</ele>
        <time>2020-07-09T22:06:54.791Z</time>
      </trkpt>
      <trkpt lat="47.04062" lon="0.59026">
        <ele>65.030058</ele>
        <time>2020-07-09T22:06:46.010Z</time>
      </trkpt>
      <trkpt lat="47.04044" lon="0.59043">
        <ele>65.665858</ele>
        <time>2020-07-09T22:06:42.518Z</time>
      </trkpt>
      <trkpt lat="47.04016" lon="0.59061">
        <ele>66.567594</ele>
        <time>2020-07-09T22:06:37.523Z</time>
      </trkpt>
      <trkpt lat="47.0374" lon="0.5924">
        <ele>72.400636</ele>
        <time>2020-07-09T22:05:44.524Z</time>
      </trkpt>
      <trkpt lat="47.0356" lon="0.59435">
        <ele>73.28631</ele>
        <time>2020-07-09T22:04:57.142Z</time>
      </trkpt>
      <trkpt lat="47.03546" lon="0.59447">
        <ele>73.264302</ele>
        <time>2020-07-09T22:04:53.082Z</time>
      </trkpt>
      <trkpt lat="47.03524" lon="0.59467">
        <ele>73.230562</ele>
        <time>2020-07-09T22:04:46.388Z</time>
      </trkpt>
      <trkpt lat="47.03306" lon="0.59637">
        <ele>70.496841</ele>
        <time>2020-07-09T22:03:40.276Z</time>
      </trkpt>
      <trkpt lat="47.03297" lon="0.59643">
        <ele>70.361868</ele>
        <time>2020-07-09T22:03:37.484Z</time>
      </trkpt>
      <trkpt lat="47.03218" lon="0.59706">
        <ele>69.185875</ele>
        <time>2020-07-09T22:03:12.910Z</time>
      </trkpt>
      <trkpt lat="47.03042" lon="0.59844">
        <ele>65.933937</ele>
        <time>2020-07-09T22:02:14.900Z</time>
      </trkpt>
      <trkpt lat="47.02989" lon="0.59892">
        <ele>64.777968</ele>
        <time>2020-07-09T22:01:56.585Z</time>
      </trkpt>
      <trkpt lat="47.02827" lon="0.60066">
        <ele>61.342958</ele>
        <time>2020-07-09T22:00:56.298Z</time>
      </trkpt>
      <trkpt lat="47.02804" lon="0.60078">
        <ele>60.984973</ele>
        <time>2020-07-09T22:00:49.455Z</time>
      </trkpt>
      <trkpt lat="47.0278" lon="0.60084">
        <ele>60.63277</ele>
        <time>2020-07-09T22:00:42.567Z</time>
      </trkpt>
      <trkpt lat="47.0276" lon="0.60095">
        <ele>60.32449</ele>
        <time>2020-07-09T22:00:36.960Z</time>
      </trkpt>
      <trkpt lat="47.02733" lon="0.60114">
        <ele>59.89397</ele>
        <time>2020-07-09T22:00:29.315Z</time>
      </trkpt>
      <trkpt lat="47.02716" lon="0.60134">
        <ele>59.954959</ele>
        <time>2020-07-09T22:00:23.555Z</time>
      </trkpt>
      <trkpt lat="47.02671" lon="0.60216">
        <ele>60.148857</ele>
        <time>2020-07-09T22:00:07.409Z</time>
      </trkpt>
      <trkpt lat="47.0261" lon="0.60323">
        <ele>60.449744</ele>
        <time>2020-07-09T21:59:49.060Z</time>
      </trkpt>
      <trkpt lat="47.02594" lon="0.60353">
        <ele>60.639161</ele>
        <time>2020-07-09T21:59:44.055Z</time>
      </trkpt>
      <trkpt lat="47.02567" lon="0.60401">
        <ele>60.947891</ele>
        <time>2020-07-09T21:59:35.894Z</time>
      </trkpt>
      <trkpt lat="47.02549" lon="0.60433">
        <ele>61.151281</ele>
        <time>2020-07-09T21:59:30.392Z</time>
      </trkpt>
      <trkpt lat="47.02543" lon="0.6044">
        <ele>61.206419</ele>
        <time>2020-07-09T21:59:28.888Z</time>
      </trkpt>
      <trkpt lat="47.02535" lon="0.60448">
        <ele>61.27361</ele>
        <time>2020-07-09T21:59:27.026Z</time>
      </trkpt>
      <trkpt lat="47.02487" lon="0.60459">
        <ele>61.625466</ele>
        <time>2020-07-09T21:59:17.043Z</time>
      </trkpt>
      <trkpt lat="47.02484" lon="0.60463">
        <ele>61.658509</ele>
        <time>2020-07-09T21:59:16.104Z</time>
      </trkpt>
      <trkpt lat="47.02483" lon="0.60472">
        <ele>61.66512</ele>
        <time>2020-07-09T21:59:14.712Z</time>
      </trkpt>
      <trkpt lat="47.02482" lon="0.60479">
        <ele>61.638518</ele>
        <time>2020-07-09T21:59:13.640Z</time>
      </trkpt>
      <trkpt lat="47.02482" lon="0.6049">
        <ele>61.598007</ele>
        <time>2020-07-09T21:59:11.955Z</time>
      </trkpt>
      <trkpt lat="47.02485" lon="0.60494">
        <ele>61.578315</ele>
        <time>2020-07-09T21:59:11.142Z</time>
      </trkpt>
      <trkpt lat="47.02488" lon="0.60503">
        <ele>61.542018</ele>
        <time>2020-07-09T21:59:09.507Z</time>
      </trkpt>
      <trkpt lat="47.02488" lon="0.60509">
        <ele>61.520031</ele>
        <time>2020-07-09T21:59:08.554Z</time>
      </trkpt>
      <trkpt lat="47.02488" lon="0.60513">
        <ele>61.503531</ele>
        <time>2020-07-09T21:59:07.830Z</time>
      </trkpt>
      <trkpt lat="47.02485" lon="0.60524">
        <ele>61.458116</ele>
        <time>2020-07-09T21:59:05.957Z</time>
      </trkpt>
      <trkpt lat="47.02483" lon="0.60529">
        <ele>61.436648</ele>
        <time>2020-07-09T21:59:05.072Z</time>
      </trkpt>
      <trkpt lat="47.02481" lon="0.60531">
        <ele>61.422863</ele>
        <time>2020-07-09T21:59:04.482Z</time>
      </trkpt>
      <trkpt lat="47.02475" lon="0.60535">
        <ele>61.385653</ele>
        <time>2020-07-09T21:59:02.899Z</time>
      </trkpt>
      <trkpt lat="47.02471" lon="0.60536">
        <ele>61.366178</ele>
        <time>2020-07-09T21:59:02.042Z</time>
      </trkpt>
      <trkpt lat="47.02468" lon="0.60536">
        <ele>61.34913</ele>
        <time>2020-07-09T21:59:01.240Z</time>
      </trkpt>
      <trkpt lat="47.02457" lon="0.60528">
        <ele>61.28245</ele>
        <time>2020-07-09T21:58:58.315Z</time>
      </trkpt>
      <trkpt lat="47.02455" lon="0.60524">
        <ele>61.261036</ele>
        <time>2020-07-09T21:58:57.427Z</time>
      </trkpt>
      <trkpt lat="47.02453" lon="0.60519">
        <ele>61.239759</ele>
        <time>2020-07-09T21:58:56.537Z</time>
      </trkpt>
      <trkpt lat="47.02452" lon="0.60513">
        <ele>61.218195</ele>
        <time>2020-07-09T21:58:55.597Z</time>
      </trkpt>
      <trkpt lat="47.02438" lon="0.60501">
        <ele>61.126064</ele>
        <time>2020-07-09T21:58:51.412Z</time>
      </trkpt>
      <trkpt lat="47.0242" lon="0.6049">
        <ele>61.022447</ele>
        <time>2020-07-09T21:58:46.748Z</time>
      </trkpt>
      <trkpt lat="47.02377" lon="0.60472">
        <ele>60.77596</ele>
        <time>2020-07-09T21:58:35.258Z</time>
      </trkpt>
      <trkpt lat="47.02364" lon="0.60466">
        <ele>60.700686</ele>
        <time>2020-07-09T21:58:31.488Z</time>
      </trkpt>
      <trkpt lat="47.02308" lon="0.60441">
        <ele>59.698079</ele>
        <time>2020-07-09T21:58:15.322Z</time>
      </trkpt>
      <trkpt lat="47.02286" lon="0.60432">
        <ele>59.288645</ele>
        <time>2020-07-09T21:58:08.298Z</time>
      </trkpt>
      <trkpt lat="47.02277" lon="0.60428">
        <ele>59.13776</ele>
        <time>2020-07-09T21:58:05.784Z</time>
      </trkpt>
      <trkpt lat="47.02264" lon="0.60423">
        <ele>58.889412</ele>
        <time>2020-07-09T21:58:01.523Z</time>
      </trkpt>
      <trkpt lat="47.02203" lon="0.60397">
        <ele>57.78934</ele>
        <time>2020-07-09T21:57:42.246Z</time>
      </trkpt>
      <trkpt lat="47.02195" lon="0.60394">
        <ele>57.637253</ele>
        <time>2020-07-09T21:57:39.555Z</time>
      </trkpt>
      <trkpt lat="47.0219" lon="0.60393">
        <ele>57.556032</ele>
        <time>2020-07-09T21:57:38.304Z</time>
      </trkpt>
      <trkpt lat="47.02185" lon="0.60393">
        <ele>57.461813</ele>
        <time>2020-07-09T21:57:37.049Z</time>
      </trkpt>
      <trkpt lat="47.02176" lon="0.60389">
        <ele>57.266472</ele>
        <time>2020-07-09T21:57:34.106Z</time>
      </trkpt>
      <trkpt lat="47.02106" lon="0.6037">
        <ele>55.76019</ele>
        <time>2020-07-09T21:57:12.042Z</time>
      </trkpt>
      <trkpt lat="47.02096" lon="0.60368">
        <ele>55.562057</ele>
        <time>2020-07-09T21:57:08.907Z</time>
      </trkpt>
      <trkpt lat="47.02054" lon="0.60355">
        <ele>54.655021</ele>
        <time>2020-07-09T21:56:55.210Z</time>
      </trkpt>
      <trkpt lat="47.02027" lon="0.60351">
        <ele>54.100902</ele>
        <time>2020-07-09T21:56:47.028Z</time>
      </trkpt>
      <trkpt lat="47.01991" lon="0.60343">
        <ele>53.470392</ele>
        <time>2020-07-09T21:56:36.424Z</time>
      </trkpt>
      <trkpt lat="47.01957" lon="0.60335">
        <ele>52.943717</ele>
        <time>2020-07-09T21:56:26.280Z</time>
      </trkpt>
      <trkpt lat="47.01955" lon="0.60327">
        <ele>52.850165</ele>
        <time>2020-07-09T21:56:24.025Z</time>
      </trkpt>
      <trkpt lat="47.01946" lon="0.6032">
        <ele>52.703917</ele>
        <time>2020-07-09T21:56:21.329Z</time>
      </trkpt>
      <trkpt lat="47.01719" lon="0.60268">
        <ele>49.755531</ele>
        <time>2020-07-09T21:55:16.515Z</time>
      </trkpt>
      <trkpt lat="47.017" lon="0.60264">
        <ele>49.551195</ele>
        <time>2020-07-09T21:55:11.423Z</time>
      </trkpt>
      <trkpt lat="47.01628" lon="0.60249">
        <ele>48.944012</ele>
        <time>2020-07-09T21:54:52.352Z</time>
      </trkpt>
      <trkpt lat="47.01396" lon="0.60199">
        <ele>47.770855</ele>
        <time>2020-07-09T21:53:53.471Z</time>
      </trkpt>
      <trkpt lat="47.01352" lon="0.60189">
        <ele>47.595116</ele>
        <time>2020-07-09T21:53:42.437Z</time>
      </trkpt>
      <trkpt lat="47.01278" lon="0.60172">
        <ele>47.330472</ele>
        <time>2020-07-09T21:53:24.380Z</time>
      </trkpt>
      <trkpt lat="47.00934" lon="0.60091">
        <ele>45.863272</ele>
        <time>2020-07-09T21:51:59.290Z</time>
      </trkpt>
      <trkpt lat="47.00888" lon="0.60085">
        <ele>45.104906</ele>
        <time>2020-07-09T21:51:45.779Z</time>
      </trkpt>
      <trkpt lat="47.00877" lon="0.60094">
        <ele>44.907248</ele>
        <time>2020-07-09T21:51:42.151Z</time>
      </trkpt>
      <trkpt lat="47.00851" lon="0.60088">
        <ele>44.467427</ele>
        <time>2020-07-09T21:51:33.676Z</time>
      </trkpt>
      <trkpt lat="47.00817" lon="0.6008">
        <ele>43.896946</ele>
        <time>2020-07-09T21:51:22.917Z</time>
      </trkpt>
      <trkpt lat="47.00807" lon="0.60077">
        <ele>43.730366</ele>
        <time>2020-07-09T21:51:19.816Z</time>
      </trkpt>
      <trkpt lat="47.0078" lon="0.60071">
        <ele>43.28676</ele>
        <time>2020-07-09T21:51:11.625Z</time>
      </trkpt>
      <trkpt lat="47.007" lon="0.60052">
        <ele>42.524325</ele>
        <time>2020-07-09T21:50:48.126Z</time>
      </trkpt>
      <trkpt lat="47.00563" lon="0.6002">
        <ele>41.98459</ele>
        <time>2020-07-09T21:50:15.139Z</time>
      </trkpt>
      <trkpt lat="47.00541" lon="0.60015">
        <ele>42.220773</ele>
        <time>2020-07-09T21:50:11.129Z</time>
      </trkpt>
      <trkpt lat="47.00508" lon="0.60003">
        <ele>42.582663</ele>
        <time>2020-07-09T21:50:04.991Z</time>
      </trkpt>
      <trkpt lat="47.00468" lon="0.59983">
        <ele>43.036288</ele>
        <time>2020-07-09T21:49:57.311Z</time>
      </trkpt>
      <trkpt lat="47.00441" lon="0.59964">
        <ele>43.367608</ele>
        <time>2020-07-09T21:49:51.697Z</time>
      </trkpt>
      <trkpt lat="47.00413" lon="0.59943">
        <ele>43.684194</ele>
        <time>2020-07-09T21:49:46.045Z</time>
      </trkpt>
      <trkpt lat="47.00391" lon="0.59922">
        <ele>43.941524</ele>
        <time>2020-07-09T21:49:41.118Z</time>
      </trkpt>
      <trkpt lat="47.00367" lon="0.59899">
        <ele>44.221377</ele>
        <time>2020-07-09T21:49:35.708Z</time>
      </trkpt>
      <trkpt lat="47.00362" lon="0.59908">
        <ele>44.298564</ele>
        <time>2020-07-09T21:49:34.174Z</time>
      </trkpt>
      <trkpt lat="47.0035" lon="0.59915">
        <ele>44.418559</ele>
        <time>2020-07-09T21:49:31.807Z</time>
      </trkpt>
      <trkpt lat="47.0034" lon="0.59908">
        <ele>44.52718</ele>
        <time>2020-07-09T21:49:29.668Z</time>
      </trkpt>
      <trkpt lat="47.00333" lon="0.59896">
        <ele>44.638199</ele>
        <time>2020-07-09T21:49:27.393Z</time>
      </trkpt>
      <trkpt lat="47.00327" lon="0.59899">
        <ele>44.69221</ele>
        <time>2020-07-09T21:49:26.273Z</time>
      </trkpt>
      <trkpt lat="47.00296" lon="0.59895">
        <ele>44.997112</ele>
        <time>2020-07-09T21:49:19.679Z</time>
      </trkpt>
      <trkpt lat="47.00248" lon="0.59892">
        <ele>45.305089</ele>
        <time>2020-07-09T21:49:09.438Z</time>
      </trkpt>
      <trkpt lat="47.00207" lon="0.59889">
        <ele>45.350373</ele>
        <time>2020-07-09T21:49:00.374Z</time>
      </trkpt>
      <trkpt lat="47.00201" lon="0.59888">
        <ele>45.357425</ele>
        <time>2020-07-09T21:48:58.907Z</time>
      </trkpt>
      <trkpt lat="47.00169" lon="0.59886">
        <ele>45.392352</ele>
        <time>2020-07-09T21:48:51.792Z</time>
      </trkpt>
      <trkpt lat="47.00157" lon="0.59885">
        <ele>45.405907</ele>
        <time>2020-07-09T21:48:48.854Z</time>
      </trkpt>
      <trkpt lat="47.00086" lon="0.5988">
        <ele>45.481471</ele>
        <time>2020-07-09T21:48:32.250Z</time>
      </trkpt>
      <trkpt lat="47.00044" lon="0.59876">
        <ele>45.374426</ele>
        <time>2020-07-09T21:48:21.975Z</time>
      </trkpt>
      <trkpt lat="46.99953" lon="0.59991">
        <ele>45.074634</ele>
        <time>2020-07-09T21:47:53.088Z</time>
      </trkpt>
      <trkpt lat="46.99951" lon="0.59998">
        <ele>45.062458</ele>
        <time>2020-07-09T21:47:51.776Z</time>
      </trkpt>
      <trkpt lat="46.9994" lon="0.59991">
        <ele>45.034481</ele>
        <time>2020-07-09T21:47:49.221Z</time>
      </trkpt>
      <trkpt lat="46.9991" lon="0.59958">
        <ele>44.719449</ele>
        <time>2020-07-09T21:47:39.949Z</time>
      </trkpt>
      <trkpt lat="46.99885" lon="0.59943">
        <ele>44.500565</ele>
        <time>2020-07-09T21:47:33.278Z</time>
      </trkpt>
      <trkpt lat="46.99868" lon="0.59945">
        <ele>44.353075</ele>
        <time>2020-07-09T21:47:28.832Z</time>
      </trkpt>
      <trkpt lat="46.99825" lon="0.59979">
        <ele>43.946119</ele>
        <time>2020-07-09T21:47:15.884Z</time>
      </trkpt>
      <trkpt lat="46.99802" lon="0.59982">
        <ele>43.759137</ele>
        <time>2020-07-09T21:47:09.911Z</time>
      </trkpt>
      <trkpt lat="46.99759" lon="0.59977">
        <ele>43.413993</ele>
        <time>2020-07-09T21:46:57.997Z</time>
      </trkpt>
      <trkpt lat="46.99652" lon="0.59965">
        <ele>42.638173</ele>
        <time>2020-07-09T21:46:29.986Z</time>
      </trkpt>
      <trkpt lat="46.99603" lon="0.59959">
        <ele>42.283396</ele>
        <time>2020-07-09T21:46:18.325Z</time>
      </trkpt>
      <trkpt lat="46.99561" lon="0.59954">
        <ele>42.563318</ele>
        <time>2020-07-09T21:46:09.173Z</time>
      </trkpt>
      <trkpt lat="46.99439" lon="0.59939">
        <ele>43.686365</ele>
        <time>2020-07-09T21:45:45.970Z</time>
      </trkpt>
      <trkpt lat="46.99395" lon="0.59934">
        <ele>44.108645</ele>
        <time>2020-07-09T21:45:37.857Z</time>
      </trkpt>
      <trkpt lat="46.99382" lon="0.59932">
        <ele>44.228529</ele>
        <time>2020-07-09T21:45:35.648Z</time>
      </trkpt>
      <trkpt lat="46.99365" lon="0.59924">
        <ele>44.409581</ele>
        <time>2020-07-09T21:45:32.078Z</time>
      </trkpt>
      <trkpt lat="46.99358" lon="0.59919">
        <ele>44.478684</ele>
        <time>2020-07-09T21:45:30.828Z</time>
      </trkpt>
      <trkpt lat="46.9935" lon="0.59927">
        <ele>44.576054</ele>
        <time>2020-07-09T21:45:28.885Z</time>
      </trkpt>
      <trkpt lat="46.99249" lon="0.59939">
        <ele>45.567414</ele>
        <time>2020-07-09T21:45:08.110Z</time>
      </trkpt>
      <trkpt lat="46.98971" lon="0.60058">
        <ele>46.025101</ele>
        <time>2020-07-09T21:44:01.330Z</time>
      </trkpt>
      <trkpt lat="46.9896" lon="0.60067">
        <ele>46.044097</ele>
        <time>2020-07-09T21:43:58.561Z</time>
      </trkpt>
      <trkpt lat="46.98955" lon="0.60086">
        <ele>46.066426</ele>
        <time>2020-07-09T21:43:55.367Z</time>
      </trkpt>
      <trkpt lat="46.98955" lon="0.60175">
        <ele>46.217085</ele>
        <time>2020-07-09T21:43:41.789Z</time>
      </trkpt>
      <trkpt lat="46.98953" lon="0.60179">
        <ele>46.241949</ele>
        <time>2020-07-09T21:43:40.940Z</time>
      </trkpt>
      <trkpt lat="46.98951" lon="0.60183">
        <ele>46.26934</ele>
        <time>2020-07-09T21:43:40.226Z</time>
      </trkpt>
      <trkpt lat="46.9894" lon="0.60193">
        <ele>46.368968</ele>
        <time>2020-07-09T21:43:37.295Z</time>
      </trkpt>
      <trkpt lat="46.98717" lon="0.60291">
        <ele>48.375028</ele>
        <time>2020-07-09T21:42:49.593Z</time>
      </trkpt>
      <trkpt lat="46.98693" lon="0.60299">
        <ele>48.639864</ele>
        <time>2020-07-09T21:42:44.715Z</time>
      </trkpt>
      <trkpt lat="46.98671" lon="0.60304">
        <ele>48.877465</ele>
        <time>2020-07-09T21:42:40.316Z</time>
      </trkpt>
      <trkpt lat="46.98603" lon="0.60322">
        <ele>49.718161</ele>
        <time>2020-07-09T21:42:26.807Z</time>
      </trkpt>
      <trkpt lat="46.98536" lon="0.60343">
        <ele>50.854088</ele>
        <time>2020-07-09T21:42:13.656Z</time>
      </trkpt>
      <trkpt lat="46.9846" lon="0.60363">
        <ele>52.118348</ele>
        <time>2020-07-09T21:41:59.222Z</time>
      </trkpt>
      <trkpt lat="46.98446" lon="0.60367">
        <ele>52.364478</ele>
        <time>2020-07-09T21:41:56.472Z</time>
      </trkpt>
      <trkpt lat="46.98425" lon="0.60367">
        <ele>52.871597</ele>
        <time>2020-07-09T21:41:52.638Z</time>
      </trkpt>
      <trkpt lat="46.9842" lon="0.60408">
        <ele>53.587107</ele>
        <time>2020-07-09T21:41:47.398Z</time>
      </trkpt>
      <trkpt lat="46.98412" lon="0.60464">
        <ele>54.557305</ele>
        <time>2020-07-09T21:41:40.325Z</time>
      </trkpt>
      <trkpt lat="46.98404" lon="0.60489">
        <ele>55.012193</ele>
        <time>2020-07-09T21:41:37.063Z</time>
      </trkpt>
      <trkpt lat="46.98393" lon="0.60505">
        <ele>55.405117</ele>
        <time>2020-07-09T21:41:34.287Z</time>
      </trkpt>
      <trkpt lat="46.98376" lon="0.6052">
        <ele>55.885994</ele>
        <time>2020-07-09T21:41:30.908Z</time>
      </trkpt>
      <trkpt lat="46.98283" lon="0.6056">
        <ele>58.121528</ele>
        <time>2020-07-09T21:41:14.066Z</time>
      </trkpt>
      <trkpt lat="46.98237" lon="0.60578">
        <ele>59.153569</ele>
        <time>2020-07-09T21:41:05.587Z</time>
      </trkpt>
      <trkpt lat="46.98223" lon="0.6059">
        <ele>59.498845</ele>
        <time>2020-07-09T21:41:02.660Z</time>
      </trkpt>
      <trkpt lat="46.982" lon="0.60613">
        <ele>60.086946</ele>
        <time>2020-07-09T21:40:57.409Z</time>
      </trkpt>
      <trkpt lat="46.98177" lon="0.60627">
        <ele>60.624574</ele>
        <time>2020-07-09T21:40:52.391Z</time>
      </trkpt>
      <trkpt lat="46.98145" lon="0.60632">
        <ele>60.416046</ele>
        <time>2020-07-09T21:40:45.680Z</time>
      </trkpt>
      <trkpt lat="46.98136" lon="0.60635">
        <ele>60.314748</ele>
        <time>2020-07-09T21:40:43.985Z</time>
      </trkpt>
      <trkpt lat="46.98063" lon="0.6065">
        <ele>59.45419</ele>
        <time>2020-07-09T21:40:25.467Z</time>
      </trkpt>
      <trkpt lat="46.9796" lon="0.6072">
        <ele>57.062426</ele>
        <time>2020-07-09T21:39:44.625Z</time>
      </trkpt>
      <trkpt lat="46.97956" lon="0.60723">
        <ele>56.927008</ele>
        <time>2020-07-09T21:39:42.849Z</time>
      </trkpt>
      <trkpt lat="46.97909" lon="0.60622">
        <ele>53.950411</ele>
        <time>2020-07-09T21:39:10.826Z</time>
      </trkpt>
      <trkpt lat="46.97898" lon="0.60582">
        <ele>52.886478</ele>
        <time>2020-07-09T21:39:00.001Z</time>
      </trkpt>
      <trkpt lat="46.97888" lon="0.60538">
        <ele>51.991758</ele>
        <time>2020-07-09T21:38:48.595Z</time>
      </trkpt>
      <trkpt lat="46.9788" lon="0.60497">
        <ele>51.501275</ele>
        <time>2020-07-09T21:38:38.654Z</time>
      </trkpt>
      <trkpt lat="46.97855" lon="0.60374">
        <ele>50.026646</ele>
        <time>2020-07-09T21:38:12.767Z</time>
      </trkpt>
      <trkpt lat="46.97854" lon="0.60371">
        <ele>49.980187</ele>
        <time>2020-07-09T21:38:12.218Z</time>
      </trkpt>
      <trkpt lat="46.9735" lon="0.60563">
        <ele>48.152646</ele>
        <time>2020-07-09T21:36:13.388Z</time>
      </trkpt>
      <trkpt lat="46.97348" lon="0.6057">
        <ele>48.140655</ele>
        <time>2020-07-09T21:36:12.199Z</time>
      </trkpt>
      <trkpt lat="46.97345" lon="0.60575">
        <ele>48.129969</ele>
        <time>2020-07-09T21:36:11.096Z</time>
      </trkpt>
      <trkpt lat="46.97342" lon="0.60554">
        <ele>48.096411</ele>
        <time>2020-07-09T21:36:07.590Z</time>
      </trkpt>
      <trkpt lat="46.97339" lon="0.60537">
        <ele>48.066752</ele>
        <time>2020-07-09T21:36:04.471Z</time>
      </trkpt>
      <trkpt lat="46.9733" lon="0.60471">
        <ele>47.861274</ele>
        <time>2020-07-09T21:35:52.509Z</time>
      </trkpt>
      <trkpt lat="46.97323" lon="0.60427">
        <ele>47.601129</ele>
        <time>2020-07-09T21:35:44.540Z</time>
      </trkpt>
      <trkpt lat="46.97316" lon="0.60346">
        <ele>47.120932</ele>
        <time>2020-07-09T21:35:29.577Z</time>
      </trkpt>
      <trkpt lat="46.97314" lon="0.60325">
        <ele>46.997642</ele>
        <time>2020-07-09T21:35:25.757Z</time>
      </trkpt>
      <trkpt lat="46.9731" lon="0.60284">
        <ele>46.754071</ele>
        <time>2020-07-09T21:35:17.953Z</time>
      </trkpt>
      <trkpt lat="46.97179" lon="0.60308">
        <ele>45.298903</ele>
        <time>2020-07-09T21:34:41.999Z</time>
      </trkpt>
      <trkpt lat="46.97125" lon="0.60324">
        <ele>44.647362</ele>
        <time>2020-07-09T21:34:27.386Z</time>
      </trkpt>
      <trkpt lat="46.97065" lon="0.60354">
        <ele>43.640352</ele>
        <time>2020-07-09T21:34:07.914Z</time>
      </trkpt>
      <trkpt lat="46.97051" lon="0.60361">
        <ele>43.358131</ele>
        <time>2020-07-09T21:34:03.098Z</time>
      </trkpt>
      <trkpt lat="46.97051" lon="0.60356">
        <ele>43.299427</ele>
        <time>2020-07-09T21:34:02.005Z</time>
      </trkpt>
      <trkpt lat="46.97045" lon="0.60292">
        <ele>42.459365</ele>
        <time>2020-07-09T21:33:48.027Z</time>
      </trkpt>
      <trkpt lat="46.97043" lon="0.60271">
        <ele>42.193023</ele>
        <time>2020-07-09T21:33:43.711Z</time>
      </trkpt>
      <trkpt lat="46.97034" lon="0.60162">
        <ele>40.856814</ele>
        <time>2020-07-09T21:33:21.824Z</time>
      </trkpt>
      <trkpt lat="46.9703" lon="0.60098">
        <ele>40.596209</ele>
        <time>2020-07-09T21:33:09.288Z</time>
      </trkpt>
      <trkpt lat="46.97027" lon="0.60064">
        <ele>40.45738</ele>
        <time>2020-07-09T21:33:02.980Z</time>
      </trkpt>
      <trkpt lat="46.97024" lon="0.60032">
        <ele>40.326694</ele>
        <time>2020-07-09T21:32:56.976Z</time>
      </trkpt>
      <trkpt lat="46.97022" lon="0.60012">
        <ele>40.247205</ele>
        <time>2020-07-09T21:32:53.552Z</time>
      </trkpt>
      <trkpt lat="46.96976" lon="0.59865">
        <ele>40.173304</ele>
        <time>2020-07-09T21:32:30.825Z</time>
      </trkpt>
      <trkpt lat="46.9696" lon="0.59816">
        <ele>40.485154</ele>
        <time>2020-07-09T21:32:23.724Z</time>
      </trkpt>
      <trkpt lat="46.96928" lon="0.59719">
        <ele>41.109732</ele>
        <time>2020-07-09T21:32:09.068Z</time>
      </trkpt>
      <trkpt lat="46.96868" lon="0.59555">
        <ele>42.518747</ele>
        <time>2020-07-09T21:31:45.205Z</time>
      </trkpt>
      <trkpt lat="46.96852" lon="0.59525">
        <ele>42.82597</ele>
        <time>2020-07-09T21:31:40.344Z</time>
      </trkpt>
      <trkpt lat="46.96822" lon="0.59482">
        <ele>43.316844</ele>
        <time>2020-07-09T21:31:32.491Z</time>
      </trkpt>
      <trkpt lat="46.96799" lon="0.59447">
        <ele>43.572055</ele>
        <time>2020-07-09T21:31:26.117Z</time>
      </trkpt>
      <trkpt lat="46.96783" lon="0.59416">
        <ele>43.694971</ele>
        <time>2020-07-09T21:31:20.910Z</time>
      </trkpt>
      <trkpt lat="46.96753" lon="0.59332">
        <ele>43.996434</ele>
        <time>2020-07-09T21:31:07.933Z</time>
      </trkpt>
      <trkpt lat="46.96676" lon="0.59083">
        <ele>44.119362</ele>
        <time>2020-07-09T21:30:25.334Z</time>
      </trkpt>
      <trkpt lat="46.96654" lon="0.59008">
        <ele>44.026527</ele>
        <time>2020-07-09T21:30:12.129Z</time>
      </trkpt>
      <trkpt lat="46.96649" lon="0.58985">
        <ele>44.028937</ele>
        <time>2020-07-09T21:30:08.026Z</time>
      </trkpt>
      <trkpt lat="46.96617" lon="0.58833">
        <ele>44.196094</ele>
        <time>2020-07-09T21:29:43.793Z</time>
      </trkpt>
      <trkpt lat="46.96618" lon="0.58807">
        <ele>44.223753</ele>
        <time>2020-07-09T21:29:40.018Z</time>
      </trkpt>
      <trkpt lat="46.9663" lon="0.58759">
        <ele>44.277851</ele>
        <time>2020-07-09T21:29:32.890Z</time>
      </trkpt>
      <trkpt lat="46.96632" lon="0.58753">
        <ele>44.284393</ele>
        <time>2020-07-09T21:29:32.060Z</time>
      </trkpt>
      <trkpt lat="46.96582" lon="0.5877">
        <ele>44.704419</ele>
        <time>2020-07-09T21:29:21.996Z</time>
      </trkpt>
      <trkpt lat="46.96443" lon="0.58827">
        <ele>45.948048</ele>
        <time>2020-07-09T21:28:54.312Z</time>
      </trkpt>
      <trkpt lat="46.96116" lon="0.5906">
        <ele>47.514188</ele>
        <time>2020-07-09T21:27:39.013Z</time>
      </trkpt>
      <trkpt lat="46.96092" lon="0.59075">
        <ele>47.398557</ele>
        <time>2020-07-09T21:27:33.005Z</time>
      </trkpt>
      <trkpt lat="46.96084" lon="0.59081">
        <ele>47.358357</ele>
        <time>2020-07-09T21:27:30.823Z</time>
      </trkpt>
      <trkpt lat="46.96033" lon="0.5911">
        <ele>47.113507</ele>
        <time>2020-07-09T21:27:17.577Z</time>
      </trkpt>
      <trkpt lat="46.95771" lon="0.59252">
        <ele>45.357285</ele>
        <time>2020-07-09T21:26:06.348Z</time>
      </trkpt>
      <trkpt lat="46.95714" lon="0.59284">
        <ele>45.361489</ele>
        <time>2020-07-09T21:25:52.165Z</time>
      </trkpt>
      <trkpt lat="46.95683" lon="0.59301">
        <ele>45.363783</ele>
        <time>2020-07-09T21:25:44.809Z</time>
      </trkpt>
      <trkpt lat="46.95664" lon="0.59311">
        <ele>45.365167</ele>
        <time>2020-07-09T21:25:40.578Z</time>
      </trkpt>
      <trkpt lat="46.95633" lon="0.59324">
        <ele>45.367398</ele>
        <time>2020-07-09T21:25:33.923Z</time>
      </trkpt>
      <trkpt lat="46.95617" lon="0.59329">
        <ele>45.476138</ele>
        <time>2020-07-09T21:25:30.681Z</time>
      </trkpt>
      <trkpt lat="46.95603" lon="0.59334">
        <ele>45.716201</ele>
        <time>2020-07-09T21:25:27.755Z</time>
      </trkpt>
      <trkpt lat="46.95591" lon="0.59338">
        <ele>45.910372</ele>
        <time>2020-07-09T21:25:25.444Z</time>
      </trkpt>
      <trkpt lat="46.95561" lon="0.59349">
        <ele>46.397484</ele>
        <time>2020-07-09T21:25:19.700Z</time>
      </trkpt>
      <trkpt lat="46.95538" lon="0.59357">
        <ele>46.782209</ele>
        <time>2020-07-09T21:25:15.282Z</time>
      </trkpt>
      <trkpt lat="46.95424" lon="0.59396">
        <ele>48.877914</ele>
        <time>2020-07-09T21:24:54.690Z</time>
      </trkpt>
      <trkpt lat="46.95365" lon="0.5941">
        <ele>50.315456</ele>
        <time>2020-07-09T21:24:44.878Z</time>
      </trkpt>
      <trkpt lat="46.95333" lon="0.59403">
        <ele>51.103104</ele>
        <time>2020-07-09T21:24:39.463Z</time>
      </trkpt>
      <trkpt lat="46.95266" lon="0.59368">
        <ele>52.756385</ele>
        <time>2020-07-09T21:24:27.195Z</time>
      </trkpt>
      <trkpt lat="46.95254" lon="0.59364">
        <ele>52.912066</ele>
        <time>2020-07-09T21:24:25.242Z</time>
      </trkpt>
      <trkpt lat="46.95244" lon="0.59362">
        <ele>53.049919</ele>
        <time>2020-07-09T21:24:23.368Z</time>
      </trkpt>
      <trkpt lat="46.95234" lon="0.59362">
        <ele>53.195246</ele>
        <time>2020-07-09T21:24:21.489Z</time>
      </trkpt>
      <trkpt lat="46.95222" lon="0.59363">
        <ele>53.350161</ele>
        <time>2020-07-09T21:24:19.500Z</time>
      </trkpt>
      <trkpt lat="46.95209" lon="0.59366">
        <ele>53.534258</ele>
        <time>2020-07-09T21:24:16.987Z</time>
      </trkpt>
      <trkpt lat="46.95108" lon="0.59407">
        <ele>54.958</ele>
        <time>2020-07-09T21:23:57.051Z</time>
      </trkpt>
      <trkpt lat="46.94947" lon="0.59425">
        <ele>55.287375</ele>
        <time>2020-07-09T21:23:21.319Z</time>
      </trkpt>
      <trkpt lat="46.94927" lon="0.5943">
        <ele>55.316599</ele>
        <time>2020-07-09T21:23:16.824Z</time>
      </trkpt>
      <trkpt lat="46.94905" lon="0.59436">
        <ele>55.312925</ele>
        <time>2020-07-09T21:23:12.114Z</time>
      </trkpt>
      <trkpt lat="46.94854" lon="0.59445">
        <ele>55.269378</ele>
        <time>2020-07-09T21:23:01.096Z</time>
      </trkpt>
      <trkpt lat="46.94754" lon="0.59411">
        <ele>55.182162</ele>
        <time>2020-07-09T21:22:37.797Z</time>
      </trkpt>
      <trkpt lat="46.94702" lon="0.59411">
        <ele>54.780744</ele>
        <time>2020-07-09T21:22:25.349Z</time>
      </trkpt>
      <trkpt lat="46.9467" lon="0.5942">
        <ele>54.465062</ele>
        <time>2020-07-09T21:22:16.911Z</time>
      </trkpt>
      <trkpt lat="46.94653" lon="0.59425">
        <ele>54.302604</ele>
        <time>2020-07-09T21:22:12.096Z</time>
      </trkpt>
      <trkpt lat="46.94573" lon="0.59443">
        <ele>53.538704</ele>
        <time>2020-07-09T21:21:50.443Z</time>
      </trkpt>
      <trkpt lat="46.94458" lon="0.5945">
        <ele>52.042178</ele>
        <time>2020-07-09T21:21:18.380Z</time>
      </trkpt>
      <trkpt lat="46.94278" lon="0.59425">
        <ele>49.419108</ele>
        <time>2020-07-09T21:20:28.707Z</time>
      </trkpt>
      <trkpt lat="46.94197" lon="0.59451">
        <ele>48.138285</ele>
        <time>2020-07-09T21:20:04.164Z</time>
      </trkpt>
      <trkpt lat="46.94102" lon="0.59488">
        <ele>46.428333</ele>
        <time>2020-07-09T21:19:34.617Z</time>
      </trkpt>
      <trkpt lat="46.94091" lon="0.59492">
        <ele>46.236013</ele>
        <time>2020-07-09T21:19:31.315Z</time>
      </trkpt>
      <trkpt lat="46.94081" lon="0.595">
        <ele>46.038457</ele>
        <time>2020-07-09T21:19:27.943Z</time>
      </trkpt>
      <trkpt lat="46.94069" lon="0.59512">
        <ele>45.796189</ele>
        <time>2020-07-09T21:19:23.864Z</time>
      </trkpt>
      <trkpt lat="46.94057" lon="0.5953">
        <ele>45.490778</ele>
        <time>2020-07-09T21:19:18.775Z</time>
      </trkpt>
      <trkpt lat="46.94018" lon="0.59601">
        <ele>45.023727</ele>
        <time>2020-07-09T21:19:01.939Z</time>
      </trkpt>
      <trkpt lat="46.93973" lon="0.5968">
        <ele>44.717248</ele>
        <time>2020-07-09T21:18:45.082Z</time>
      </trkpt>
      <trkpt lat="46.93961" lon="0.59698">
        <ele>44.643869</ele>
        <time>2020-07-09T21:18:41.258Z</time>
      </trkpt>
      <trkpt lat="46.93927" lon="0.59731">
        <ele>44.465693</ele>
        <time>2020-07-09T21:18:32.401Z</time>
      </trkpt>
      <trkpt lat="46.93896" lon="0.59742">
        <ele>44.606194</ele>
        <time>2020-07-09T21:18:25.789Z</time>
      </trkpt>
      <trkpt lat="46.93846" lon="0.5974">
        <ele>44.90057</ele>
        <time>2020-07-09T21:18:15.830Z</time>
      </trkpt>
      <trkpt lat="46.938" lon="0.59724">
        <ele>45.182963</ele>
        <time>2020-07-09T21:18:06.446Z</time>
      </trkpt>
      <trkpt lat="46.93758" lon="0.59707">
        <ele>45.439743</ele>
        <time>2020-07-09T21:17:57.892Z</time>
      </trkpt>
      <trkpt lat="46.93715" lon="0.59688">
        <ele>45.487974</ele>
        <time>2020-07-09T21:17:48.819Z</time>
      </trkpt>
      <trkpt lat="46.93705" lon="0.59686">
        <ele>45.480027</ele>
        <time>2020-07-09T21:17:46.290Z</time>
      </trkpt>
      <trkpt lat="46.93671" lon="0.59698">
        <ele>45.454562</ele>
        <time>2020-07-09T21:17:38.579Z</time>
      </trkpt>
      <trkpt lat="46.93656" lon="0.59712">
        <ele>45.442161</ele>
        <time>2020-07-09T21:17:34.870Z</time>
      </trkpt>
      <trkpt lat="46.93644" lon="0.59725">
        <ele>45.43103</ele>
        <time>2020-07-09T21:17:31.294Z</time>
      </trkpt>
      <trkpt lat="46.93635" lon="0.59739">
        <ele>45.421727</ele>
        <time>2020-07-09T21:17:28.315Z</time>
      </trkpt>
      <trkpt lat="46.93627" lon="0.59754">
        <ele>45.412407</ele>
        <time>2020-07-09T21:17:25.434Z</time>
      </trkpt>
      <trkpt lat="46.93618" lon="0.59773">
        <ele>45.401025</ele>
        <time>2020-07-09T21:17:21.467Z</time>
      </trkpt>
      <trkpt lat="46.93612" lon="0.5979">
        <ele>45.391217</ele>
        <time>2020-07-09T21:17:18.314Z</time>
      </trkpt>
      <trkpt lat="46.93611" lon="0.59799">
        <ele>45.386768</ele>
        <time>2020-07-09T21:17:16.824Z</time>
      </trkpt>
      <trkpt lat="46.93592" lon="0.59796">
        <ele>45.307269</ele>
        <time>2020-07-09T21:17:12.044Z</time>
      </trkpt>
      <trkpt lat="46.9346" lon="0.5977">
        <ele>44.344756</ele>
        <time>2020-07-09T21:16:37.888Z</time>
      </trkpt>
      <trkpt lat="46.93437" lon="0.59764">
        <ele>44.173055</ele>
        <time>2020-07-09T21:16:31.891Z</time>
      </trkpt>
      <trkpt lat="46.93417" lon="0.59757">
        <ele>44.089856</ele>
        <time>2020-07-09T21:16:26.890Z</time>
      </trkpt>
      <trkpt lat="46.93382" lon="0.59735">
        <ele>44.119209</ele>
        <time>2020-07-09T21:16:18.025Z</time>
      </trkpt>
      <trkpt lat="46.93313" lon="0.59662">
        <ele>44.185411</ele>
        <time>2020-07-09T21:15:59.483Z</time>
      </trkpt>
      <trkpt lat="46.933" lon="0.59647">
        <ele>44.198126</ele>
        <time>2020-07-09T21:15:55.904Z</time>
      </trkpt>
      <trkpt lat="46.93265" lon="0.59609">
        <ele>44.302947</ele>
        <time>2020-07-09T21:15:47.009Z</time>
      </trkpt>
      <trkpt lat="46.93229" lon="0.59568">
        <ele>44.630175</ele>
        <time>2020-07-09T21:15:37.839Z</time>
      </trkpt>
      <trkpt lat="46.93188" lon="0.59522">
        <ele>44.99806</ele>
        <time>2020-07-09T21:15:27.727Z</time>
      </trkpt>
      <trkpt lat="46.93148" lon="0.59478">
        <ele>45.353615</ele>
        <time>2020-07-09T21:15:18.052Z</time>
      </trkpt>
      <trkpt lat="46.93088" lon="0.59408">
        <ele>45.5093</ele>
        <time>2020-07-09T21:15:02.413Z</time>
      </trkpt>
      <trkpt lat="46.93078" lon="0.59397">
        <ele>45.509545</ele>
        <time>2020-07-09T21:14:59.806Z</time>
      </trkpt>
      <trkpt lat="46.92985" lon="0.59293">
        <ele>45.483459</ele>
        <time>2020-07-09T21:14:32.526Z</time>
      </trkpt>
      <trkpt lat="46.92912" lon="0.59211">
        <ele>44.942372</ele>
        <time>2020-07-09T21:14:08.679Z</time>
      </trkpt>
      <trkpt lat="46.92859" lon="0.59147">
        <ele>44.543221</ele>
        <time>2020-07-09T21:13:51.962Z</time>
      </trkpt>
      <trkpt lat="46.92831" lon="0.59108">
        <ele>44.478241</ele>
        <time>2020-07-09T21:13:42.793Z</time>
      </trkpt>
      <trkpt lat="46.92769" lon="0.59021">
        <ele>44.538436</ele>
        <time>2020-07-09T21:13:24.004Z</time>
      </trkpt>
      <trkpt lat="46.92718" lon="0.5897">
        <ele>44.582241</ele>
        <time>2020-07-09T21:13:10.865Z</time>
      </trkpt>
      <trkpt lat="46.92561" lon="0.58865">
        <ele>44.857997</ele>
        <time>2020-07-09T21:12:33.677Z</time>
      </trkpt>
      <trkpt lat="46.92513" lon="0.58808">
        <ele>44.950312</ele>
        <time>2020-07-09T21:12:19.932Z</time>
      </trkpt>
      <trkpt lat="46.92365" lon="0.58572">
        <ele>45.538727</ele>
        <time>2020-07-09T21:11:32.937Z</time>
      </trkpt>
      <trkpt lat="46.92351" lon="0.58552">
        <ele>45.630893</ele>
        <time>2020-07-09T21:11:28.874Z</time>
      </trkpt>
      <trkpt lat="46.92326" lon="0.5852">
        <ele>45.783404</ele>
        <time>2020-07-09T21:11:22.135Z</time>
      </trkpt>
      <trkpt lat="46.92169" lon="0.5833">
        <ele>47.255233</ele>
        <time>2020-07-09T21:10:41.877Z</time>
      </trkpt>
      <trkpt lat="46.92064" lon="0.58205">
        <ele>47.832019</ele>
        <time>2020-07-09T21:10:14.581Z</time>
      </trkpt>
      <trkpt lat="46.92008" lon="0.58138">
        <ele>48.008362</ele>
        <time>2020-07-09T21:09:58.659Z</time>
      </trkpt>
      <trkpt lat="46.91858" lon="0.57932">
        <ele>46.852535</ele>
        <time>2020-07-09T21:09:07.391Z</time>
      </trkpt>
      <trkpt lat="46.9182" lon="0.57895">
        <ele>46.609187</ele>
        <time>2020-07-09T21:08:56.124Z</time>
      </trkpt>
      <trkpt lat="46.91763" lon="0.57868">
        <ele>46.284334</ele>
        <time>2020-07-09T21:08:41.384Z</time>
      </trkpt>
      <trkpt lat="46.91648" lon="0.5785">
        <ele>45.79477</ele>
        <time>2020-07-09T21:08:13.981Z</time>
      </trkpt>
      <trkpt lat="46.91531" lon="0.57784">
        <ele>45.402507</ele>
        <time>2020-07-09T21:07:44.113Z</time>
      </trkpt>
      <trkpt lat="46.91487" lon="0.57746">
        <ele>45.366315</ele>
        <time>2020-07-09T21:07:32.395Z</time>
      </trkpt>
      <trkpt lat="46.91474" lon="0.57732">
        <ele>45.355226</ele>
        <time>2020-07-09T21:07:28.716Z</time>
      </trkpt>
      <trkpt lat="46.91416" lon="0.57666">
        <ele>45.303363</ele>
        <time>2020-07-09T21:07:12.474Z</time>
      </trkpt>
      <trkpt lat="46.91395" lon="0.57641">
        <ele>45.333489</ele>
        <time>2020-07-09T21:07:06.589Z</time>
      </trkpt>
      <trkpt lat="46.91363" lon="0.57585">
        <ele>45.518633</ele>
        <time>2020-07-09T21:06:55.876Z</time>
      </trkpt>
      <trkpt lat="46.91249" lon="0.57362">
        <ele>46.112503</ele>
        <time>2020-07-09T21:06:16.611Z</time>
      </trkpt>
      <trkpt lat="46.91174" lon="0.5721">
        <ele>46.320942</ele>
        <time>2020-07-09T21:05:48.541Z</time>
      </trkpt>
      <trkpt lat="46.91144" lon="0.57163">
        <ele>46.263641</ele>
        <time>2020-07-09T21:05:38.466Z</time>
      </trkpt>
      <trkpt lat="46.91124" lon="0.57143">
        <ele>46.230983</ele>
        <time>2020-07-09T21:05:32.905Z</time>
      </trkpt>
      <trkpt lat="46.91045" lon="0.57082">
        <ele>46.113764</ele>
        <time>2020-07-09T21:05:12.330Z</time>
      </trkpt>
      <trkpt lat="46.91" lon="0.57046">
        <ele>46.072417</ele>
        <time>2020-07-09T21:05:00.585Z</time>
      </trkpt>
      <trkpt lat="46.9089" lon="0.56966">
        <ele>45.977249</ele>
        <time>2020-07-09T21:04:33.253Z</time>
      </trkpt>
      <trkpt lat="46.90633" lon="0.56826">
        <ele>45.757926</ele>
        <time>2020-07-09T21:03:31.141Z</time>
      </trkpt>
      <trkpt lat="46.90531" lon="0.56791">
        <ele>45.757405</ele>
        <time>2020-07-09T21:03:07.575Z</time>
      </trkpt>
      <trkpt lat="46.90496" lon="0.56768">
        <ele>45.89133</ele>
        <time>2020-07-09T21:02:59.286Z</time>
      </trkpt>
      <trkpt lat="46.90434" lon="0.56708">
        <ele>46.152647</ele>
        <time>2020-07-09T21:02:43.571Z</time>
      </trkpt>
      <trkpt lat="46.90424" lon="0.56699">
        <ele>46.194858</ele>
        <time>2020-07-09T21:02:41.092Z</time>
      </trkpt>
      <trkpt lat="46.90414" lon="0.5669">
        <ele>46.23342</ele>
        <time>2020-07-09T21:02:38.849Z</time>
      </trkpt>
      <trkpt lat="46.90353" lon="0.56648">
        <ele>46.677259</ele>
        <time>2020-07-09T21:02:25.209Z</time>
      </trkpt>
      <trkpt lat="46.90158" lon="0.56489">
        <ele>48.872526</ele>
        <time>2020-07-09T21:01:42.375Z</time>
      </trkpt>
      <trkpt lat="46.90128" lon="0.56472">
        <ele>49.208183</ele>
        <time>2020-07-09T21:01:36.265Z</time>
      </trkpt>
      <trkpt lat="46.90103" lon="0.56459">
        <ele>49.481522</ele>
        <time>2020-07-09T21:01:31.291Z</time>
      </trkpt>
      <trkpt lat="46.89965" lon="0.56363">
        <ele>50.402679</ele>
        <time>2020-07-09T21:01:01.315Z</time>
      </trkpt>
      <trkpt lat="46.89945" lon="0.5636">
        <ele>50.486374</ele>
        <time>2020-07-09T21:00:57.151Z</time>
      </trkpt>
      <trkpt lat="46.89932" lon="0.56361">
        <ele>50.543745</ele>
        <time>2020-07-09T21:00:53.862Z</time>
      </trkpt>
      <trkpt lat="46.89909" lon="0.56366">
        <ele>50.642809</ele>
        <time>2020-07-09T21:00:48.618Z</time>
      </trkpt>
      <trkpt lat="46.89873" lon="0.56375">
        <ele>50.498663</ele>
        <time>2020-07-09T21:00:39.921Z</time>
      </trkpt>
      <trkpt lat="46.89823" lon="0.56378">
        <ele>50.051317</ele>
        <time>2020-07-09T21:00:27.041Z</time>
      </trkpt>
      <trkpt lat="46.89576" lon="0.56361">
        <ele>47.954001</ele>
        <time>2020-07-09T20:59:20.891Z</time>
      </trkpt>
      <trkpt lat="46.89548" lon="0.56349">
        <ele>47.71668</ele>
        <time>2020-07-09T20:59:14.210Z</time>
      </trkpt>
      <trkpt lat="46.89409" lon="0.56252">
        <ele>47.628455</ele>
        <time>2020-07-09T20:58:41.226Z</time>
      </trkpt>
      <trkpt lat="46.89249" lon="0.5617">
        <ele>46.977046</ele>
        <time>2020-07-09T20:58:01.026Z</time>
      </trkpt>
      <trkpt lat="46.89129" lon="0.56148">
        <ele>46.43478</ele>
        <time>2020-07-09T20:57:30.024Z</time>
      </trkpt>
      <trkpt lat="46.8908" lon="0.5613">
        <ele>46.2209</ele>
        <time>2020-07-09T20:57:17.771Z</time>
      </trkpt>
      <trkpt lat="46.88928" lon="0.56048">
        <ele>46.143165</ele>
        <time>2020-07-09T20:56:42.386Z</time>
      </trkpt>
      <trkpt lat="46.88927" lon="0.56048">
        <ele>46.144554</ele>
        <time>2020-07-09T20:56:42.157Z</time>
      </trkpt>
      <trkpt lat="46.88879" lon="0.56024">
        <ele>46.219433</ele>
        <time>2020-07-09T20:56:31.516Z</time>
      </trkpt>
      <trkpt lat="46.88727" lon="0.55986">
        <ele>46.268201</ele>
        <time>2020-07-09T20:55:57.528Z</time>
      </trkpt>
      <trkpt lat="46.88523" lon="0.55963">
        <ele>46.273861</ele>
        <time>2020-07-09T20:55:11.431Z</time>
      </trkpt>
      <trkpt lat="46.88471" lon="0.55963">
        <ele>46.343232</ele>
        <time>2020-07-09T20:55:00.134Z</time>
      </trkpt>
      <trkpt lat="46.88419" lon="0.55968">
        <ele>46.463793</ele>
        <time>2020-07-09T20:54:49.097Z</time>
      </trkpt>
      <trkpt lat="46.88253" lon="0.55982">
        <ele>46.836201</ele>
        <time>2020-07-09T20:54:13.811Z</time>
      </trkpt>
      <trkpt lat="46.8815" lon="0.5599">
        <ele>47.051089</ele>
        <time>2020-07-09T20:53:51.519Z</time>
      </trkpt>
      <trkpt lat="46.88094" lon="0.55982">
        <ele>47.107998</ele>
        <time>2020-07-09T20:53:39.273Z</time>
      </trkpt>
      <trkpt lat="46.87977" lon="0.55945">
        <ele>47.207847</ele>
        <time>2020-07-09T20:53:13.014Z</time>
      </trkpt>
      <trkpt lat="46.87904" lon="0.55907">
        <ele>47.16927</ele>
        <time>2020-07-09T20:52:56.326Z</time>
      </trkpt>
      <trkpt lat="46.87765" lon="0.55796">
        <ele>47.008481</ele>
        <time>2020-07-09T20:52:19.640Z</time>
      </trkpt>
      <trkpt lat="46.87719" lon="0.55759">
        <ele>46.919563</ele>
        <time>2020-07-09T20:52:07.508Z</time>
      </trkpt>
      <trkpt lat="46.87623" lon="0.5568">
        <ele>46.76647</ele>
        <time>2020-07-09T20:51:42.298Z</time>
      </trkpt>
      <trkpt lat="46.87517" lon="0.55604">
        <ele>46.71567</ele>
        <time>2020-07-09T20:51:16.632Z</time>
      </trkpt>
      <trkpt lat="46.87064" lon="0.55408">
        <ele>46.03241</ele>
        <time>2020-07-09T20:49:27.370Z</time>
      </trkpt>
      <trkpt lat="46.87034" lon="0.55389">
        <ele>46.061312</ele>
        <time>2020-07-09T20:49:20.212Z</time>
      </trkpt>
      <trkpt lat="46.86764" lon="0.55111">
        <ele>47.337203</ele>
        <time>2020-07-09T20:48:11.855Z</time>
      </trkpt>
      <trkpt lat="46.86728" lon="0.55067">
        <ele>47.572326</ele>
        <time>2020-07-09T20:48:02.181Z</time>
      </trkpt>
      <trkpt lat="46.867" lon="0.55014">
        <ele>47.802257</ele>
        <time>2020-07-09T20:47:52.697Z</time>
      </trkpt>
      <trkpt lat="46.86624" lon="0.54849">
        <ele>48.802635</ele>
        <time>2020-07-09T20:47:25.305Z</time>
      </trkpt>
      <trkpt lat="46.86528" lon="0.54641">
        <ele>50.715847</ele>
        <time>2020-07-09T20:46:52.363Z</time>
      </trkpt>
      <trkpt lat="46.86487" lon="0.5455">
        <ele>51.6783</ele>
        <time>2020-07-09T20:46:38.834Z</time>
      </trkpt>
      <trkpt lat="46.86474" lon="0.54526">
        <ele>51.969549</ele>
        <time>2020-07-09T20:46:35.067Z</time>
      </trkpt>
      <trkpt lat="46.86454" lon="0.54495">
        <ele>52.387774</ele>
        <time>2020-07-09T20:46:29.771Z</time>
      </trkpt>
      <trkpt lat="46.86445" lon="0.54483">
        <ele>52.565277</ele>
        <time>2020-07-09T20:46:27.454Z</time>
      </trkpt>
      <trkpt lat="46.8643" lon="0.54471">
        <ele>52.801815</ele>
        <time>2020-07-09T20:46:24.541Z</time>
      </trkpt>
      <trkpt lat="46.86346" lon="0.54426">
        <ele>54.045161</ele>
        <time>2020-07-09T20:46:07.677Z</time>
      </trkpt>
      <trkpt lat="46.86332" lon="0.5442">
        <ele>54.157054</ele>
        <time>2020-07-09T20:46:04.864Z</time>
      </trkpt>
      <trkpt lat="46.86302" lon="0.54411">
        <ele>54.376934</ele>
        <time>2020-07-09T20:45:58.901Z</time>
      </trkpt>
      <trkpt lat="46.86297" lon="0.54401">
        <ele>54.439443</ele>
        <time>2020-07-09T20:45:57.337Z</time>
      </trkpt>
      <trkpt lat="46.86291" lon="0.54393">
        <ele>54.49719</ele>
        <time>2020-07-09T20:45:55.720Z</time>
      </trkpt>
      <trkpt lat="46.86284" lon="0.54386">
        <ele>54.559102</ele>
        <time>2020-07-09T20:45:53.810Z</time>
      </trkpt>
      <trkpt lat="46.86189" lon="0.54299">
        <ele>55.357483</ele>
        <time>2020-07-09T20:45:30.974Z</time>
      </trkpt>
      <trkpt lat="46.86089" lon="0.54207">
        <ele>55.918234</ele>
        <time>2020-07-09T20:45:06.120Z</time>
      </trkpt>
      <trkpt lat="46.85975" lon="0.54103">
        <ele>56.491873</ele>
        <time>2020-07-09T20:44:38.946Z</time>
      </trkpt>
      <trkpt lat="46.85952" lon="0.54077">
        <ele>56.607043</ele>
        <time>2020-07-09T20:44:32.951Z</time>
      </trkpt>
      <trkpt lat="46.85929" lon="0.54047">
        <ele>56.728921</ele>
        <time>2020-07-09T20:44:26.608Z</time>
      </trkpt>
      <trkpt lat="46.85796" lon="0.53829">
        <ele>56.496981</ele>
        <time>2020-07-09T20:43:41.223Z</time>
      </trkpt>
      <trkpt lat="46.85785" lon="0.53811">
        <ele>56.456818</ele>
        <time>2020-07-09T20:43:37.214Z</time>
      </trkpt>
      <trkpt lat="46.8578" lon="0.53803">
        <ele>56.428204</ele>
        <time>2020-07-09T20:43:35.130Z</time>
      </trkpt>
      <trkpt lat="46.85776" lon="0.53798">
        <ele>56.39205</ele>
        <time>2020-07-09T20:43:33.404Z</time>
      </trkpt>
      <trkpt lat="46.85764" lon="0.53789">
        <ele>56.31697</ele>
        <time>2020-07-09T20:43:30.453Z</time>
      </trkpt>
      <trkpt lat="46.85759" lon="0.53773">
        <ele>56.248741</ele>
        <time>2020-07-09T20:43:27.370Z</time>
      </trkpt>
      <trkpt lat="46.85738" lon="0.53736">
        <ele>56.05622</ele>
        <time>2020-07-09T20:43:19.041Z</time>
      </trkpt>
      <trkpt lat="46.85734" lon="0.5373">
        <ele>56.019479</ele>
        <time>2020-07-09T20:43:17.157Z</time>
      </trkpt>
      <trkpt lat="46.85727" lon="0.53722">
        <ele>55.968188</ele>
        <time>2020-07-09T20:43:14.682Z</time>
      </trkpt>
      <trkpt lat="46.8569" lon="0.53699">
        <ele>55.731793</ele>
        <time>2020-07-09T20:43:04.518Z</time>
      </trkpt>
      <trkpt lat="46.8557" lon="0.53684">
        <ele>55.686383</ele>
        <time>2020-07-09T20:42:36.852Z</time>
      </trkpt>
      <trkpt lat="46.85436" lon="0.53616">
        <ele>56.190915</ele>
        <time>2020-07-09T20:42:09.297Z</time>
      </trkpt>
      <trkpt lat="46.85386" lon="0.536">
        <ele>56.097677</ele>
        <time>2020-07-09T20:41:58.572Z</time>
      </trkpt>
      <trkpt lat="46.85368" lon="0.53597">
        <ele>56.065215</ele>
        <time>2020-07-09T20:41:54.782Z</time>
      </trkpt>
      <trkpt lat="46.85165" lon="0.53578">
        <ele>54.309268</ele>
        <time>2020-07-09T20:41:00.961Z</time>
      </trkpt>
      <trkpt lat="46.85113" lon="0.53572">
        <ele>53.585691</ele>
        <time>2020-07-09T20:40:45.318Z</time>
      </trkpt>
      <trkpt lat="46.85107" lon="0.53569">
        <ele>53.501668</ele>
        <time>2020-07-09T20:40:42.848Z</time>
      </trkpt>
      <trkpt lat="46.85085" lon="0.5356">
        <ele>53.141756</ele>
        <time>2020-07-09T20:40:36.501Z</time>
      </trkpt>
      <trkpt lat="46.85082" lon="0.53561">
        <ele>53.102017</ele>
        <time>2020-07-09T20:40:35.756Z</time>
      </trkpt>
      <trkpt lat="46.85078" lon="0.53561">
        <ele>53.033536</ele>
        <time>2020-07-09T20:40:34.564Z</time>
      </trkpt>
      <trkpt lat="46.85073" lon="0.53558">
        <ele>52.95566</ele>
        <time>2020-07-09T20:40:32.555Z</time>
      </trkpt>
      <trkpt lat="46.85071" lon="0.53554">
        <ele>52.904348</ele>
        <time>2020-07-09T20:40:31.586Z</time>
      </trkpt>
      <trkpt lat="46.85062" lon="0.53551">
        <ele>52.76356</ele>
        <time>2020-07-09T20:40:29.092Z</time>
      </trkpt>
      <trkpt lat="46.85055" lon="0.53549">
        <ele>52.646431</ele>
        <time>2020-07-09T20:40:27.149Z</time>
      </trkpt>
      <trkpt lat="46.85045" lon="0.53545">
        <ele>52.470048</ele>
        <time>2020-07-09T20:40:24.074Z</time>
      </trkpt>
      <trkpt lat="46.85039" lon="0.53541">
        <ele>52.367969</ele>
        <time>2020-07-09T20:40:21.545Z</time>
      </trkpt>
      <trkpt lat="46.84939" lon="0.53469">
        <ele>50.597278</ele>
        <time>2020-07-09T20:39:50.084Z</time>
      </trkpt>
      <trkpt lat="46.84906" lon="0.53467">
        <ele>50.465014</ele>
        <time>2020-07-09T20:39:41.484Z</time>
      </trkpt>
      <trkpt lat="46.84841" lon="0.53481">
        <ele>50.214633</ele>
        <time>2020-07-09T20:39:25.916Z</time>
      </trkpt>
      <trkpt lat="46.84787" lon="0.53482">
        <ele>50.012087</ele>
        <time>2020-07-09T20:39:13.874Z</time>
      </trkpt>
      <trkpt lat="46.84654" lon="0.53458">
        <ele>50.110109</ele>
        <time>2020-07-09T20:38:44.883Z</time>
      </trkpt>
      <trkpt lat="46.84631" lon="0.53455">
        <ele>50.153572</ele>
        <time>2020-07-09T20:38:40.051Z</time>
      </trkpt>
      <trkpt lat="46.83946" lon="0.53411">
        <ele>51.937851</ele>
        <time>2020-07-09T20:36:14.368Z</time>
      </trkpt>
      <trkpt lat="46.83919" lon="0.53403">
        <ele>52.009724</ele>
        <time>2020-07-09T20:36:08.499Z</time>
      </trkpt>
      <trkpt lat="46.8391" lon="0.53396">
        <ele>52.03743</ele>
        <time>2020-07-09T20:36:06.470Z</time>
      </trkpt>
      <trkpt lat="46.83887" lon="0.53386">
        <ele>52.10023</ele>
        <time>2020-07-09T20:36:01.212Z</time>
      </trkpt>
      <trkpt lat="46.83877" lon="0.53383">
        <ele>52.127918</ele>
        <time>2020-07-09T20:35:59.147Z</time>
      </trkpt>
      <trkpt lat="46.8387" lon="0.53382">
        <ele>52.145634</ele>
        <time>2020-07-09T20:35:57.646Z</time>
      </trkpt>
      <trkpt lat="46.83864" lon="0.53387">
        <ele>52.153678</ele>
        <time>2020-07-09T20:35:56.207Z</time>
      </trkpt>
      <trkpt lat="46.83857" lon="0.53389">
        <ele>52.123732</ele>
        <time>2020-07-09T20:35:54.552Z</time>
      </trkpt>
      <trkpt lat="46.83857" lon="0.53404">
        <ele>52.078004</ele>
        <time>2020-07-09T20:35:52.163Z</time>
      </trkpt>
      <trkpt lat="46.83857" lon="0.53416">
        <ele>52.043308</ele>
        <time>2020-07-09T20:35:50.405Z</time>
      </trkpt>
      <trkpt lat="46.83843" lon="0.53418">
        <ele>51.985935</ele>
        <time>2020-07-09T20:35:47.021Z</time>
      </trkpt>
      <trkpt lat="46.83746" lon="0.5348">
        <ele>51.53493</ele>
        <time>2020-07-09T20:35:20.118Z</time>
      </trkpt>
      <trkpt lat="46.83706" lon="0.53508">
        <ele>51.35438</ele>
        <time>2020-07-09T20:35:08.288Z</time>
      </trkpt>
      <trkpt lat="46.83706" lon="0.53536">
        <ele>51.290301</ele>
        <time>2020-07-09T20:35:03.080Z</time>
      </trkpt>
      <trkpt lat="46.83699" lon="0.53583">
        <ele>51.180249</ele>
        <time>2020-07-09T20:34:54.699Z</time>
      </trkpt>
      <trkpt lat="46.83688" lon="0.53604">
        <ele>51.12052</ele>
        <time>2020-07-09T20:34:50.560Z</time>
      </trkpt>
      <trkpt lat="46.83672" lon="0.53618">
        <ele>51.059077</ele>
        <time>2020-07-09T20:34:45.769Z</time>
      </trkpt>
      <trkpt lat="46.83657" lon="0.53621">
        <ele>51.008307</ele>
        <time>2020-07-09T20:34:42.403Z</time>
      </trkpt>
      <trkpt lat="46.83644" lon="0.53619">
        <ele>50.963844</ele>
        <time>2020-07-09T20:34:38.805Z</time>
      </trkpt>
      <trkpt lat="46.8363" lon="0.53612">
        <ele>50.915525</ele>
        <time>2020-07-09T20:34:35.535Z</time>
      </trkpt>
      <trkpt lat="46.8361" lon="0.53583">
        <ele>50.821307</ele>
        <time>2020-07-09T20:34:28.681Z</time>
      </trkpt>
      <trkpt lat="46.83601" lon="0.53564">
        <ele>50.795685</ele>
        <time>2020-07-09T20:34:25.210Z</time>
      </trkpt>
      <trkpt lat="46.83592" lon="0.53566">
        <ele>50.799979</ele>
        <time>2020-07-09T20:34:23.163Z</time>
      </trkpt>
      <trkpt lat="46.83535" lon="0.5359">
        <ele>50.830024</ele>
        <time>2020-07-09T20:34:10.082Z</time>
      </trkpt>
      <trkpt lat="46.83406" lon="0.53645">
        <ele>50.743092</ele>
        <time>2020-07-09T20:33:38.803Z</time>
      </trkpt>
      <trkpt lat="46.83386" lon="0.53659">
        <ele>50.644653</ele>
        <time>2020-07-09T20:33:33.292Z</time>
      </trkpt>
      <trkpt lat="46.83381" lon="0.53668">
        <ele>50.61086</ele>
        <time>2020-07-09T20:33:31.339Z</time>
      </trkpt>
      <trkpt lat="46.83369" lon="0.53661">
        <ele>50.550827</ele>
        <time>2020-07-09T20:33:27.957Z</time>
      </trkpt>
      <trkpt lat="46.83362" lon="0.53666">
        <ele>50.515395</ele>
        <time>2020-07-09T20:33:25.949Z</time>
      </trkpt>
      <trkpt lat="46.83325" lon="0.53681">
        <ele>50.343834</ele>
        <time>2020-07-09T20:33:16.489Z</time>
      </trkpt>
      <trkpt lat="46.83301" lon="0.53691">
        <ele>50.227695</ele>
        <time>2020-07-09T20:33:10.047Z</time>
      </trkpt>
      <trkpt lat="46.83276" lon="0.53701">
        <ele>50.114422</ele>
        <time>2020-07-09T20:33:03.689Z</time>
      </trkpt>
      <trkpt lat="46.83071" lon="0.53786">
        <ele>49.773098</ele>
        <time>2020-07-09T20:32:14.393Z</time>
      </trkpt>
      <trkpt lat="46.82946" lon="0.53836">
        <ele>50.415452</ele>
        <time>2020-07-09T20:31:47.997Z</time>
      </trkpt>
      <trkpt lat="46.82868" lon="0.53869">
        <ele>50.748043</ele>
        <time>2020-07-09T20:31:32.159Z</time>
      </trkpt>
      <trkpt lat="46.82851" lon="0.53877">
        <ele>50.814818</ele>
        <time>2020-07-09T20:31:28.603Z</time>
      </trkpt>
      <trkpt lat="46.82806" lon="0.53895">
        <ele>50.988893</ele>
        <time>2020-07-09T20:31:18.704Z</time>
      </trkpt>
      <trkpt lat="46.82773" lon="0.53909">
        <ele>51.118166</ele>
        <time>2020-07-09T20:31:10.914Z</time>
      </trkpt>
      <trkpt lat="46.82771" lon="0.539">
        <ele>51.140926</ele>
        <time>2020-07-09T20:31:09.217Z</time>
      </trkpt>
      <trkpt lat="46.82742" lon="0.53754">
        <ele>51.045821</ele>
        <time>2020-07-09T20:30:45.088Z</time>
      </trkpt>
      <trkpt lat="46.82719" lon="0.53694">
        <ele>50.951117</ele>
        <time>2020-07-09T20:30:33.213Z</time>
      </trkpt>
      <trkpt lat="46.82637" lon="0.53552">
        <ele>50.805801</ele>
        <time>2020-07-09T20:30:02.487Z</time>
      </trkpt>
      <trkpt lat="46.82627" lon="0.53538">
        <ele>50.797393</ele>
        <time>2020-07-09T20:29:59.302Z</time>
      </trkpt>
      <trkpt lat="46.82582" lon="0.53496">
        <ele>50.764561</ele>
        <time>2020-07-09T20:29:46.952Z</time>
      </trkpt>
      <trkpt lat="46.82567" lon="0.53487">
        <ele>50.754269</ele>
        <time>2020-07-09T20:29:43.166Z</time>
      </trkpt>
      <trkpt lat="46.82568" lon="0.53467">
        <ele>50.7457</ele>
        <time>2020-07-09T20:29:39.983Z</time>
      </trkpt>
      <trkpt lat="46.82567" lon="0.53434">
        <ele>50.787218</ele>
        <time>2020-07-09T20:29:35.046Z</time>
      </trkpt>
      <trkpt lat="46.82569" lon="0.53422">
        <ele>50.807211</ele>
        <time>2020-07-09T20:29:33.143Z</time>
      </trkpt>
      <trkpt lat="46.82561" lon="0.53417">
        <ele>50.827744</ele>
        <time>2020-07-09T20:29:31.216Z</time>
      </trkpt>
      <trkpt lat="46.82529" lon="0.5339">
        <ele>50.913677</ele>
        <time>2020-07-09T20:29:23.191Z</time>
      </trkpt>
      <trkpt lat="46.82295" lon="0.53307">
        <ele>51.346684</ele>
        <time>2020-07-09T20:28:29.414Z</time>
      </trkpt>
      <trkpt lat="46.82286" lon="0.533">
        <ele>51.361195</ele>
        <time>2020-07-09T20:28:26.947Z</time>
      </trkpt>
      <trkpt lat="46.82278" lon="0.53309">
        <ele>51.37502</ele>
        <time>2020-07-09T20:28:24.495Z</time>
      </trkpt>
      <trkpt lat="46.82268" lon="0.533">
        <ele>51.390171</ele>
        <time>2020-07-09T20:28:21.889Z</time>
      </trkpt>
      <trkpt lat="46.82242" lon="0.53286">
        <ele>51.387453</ele>
        <time>2020-07-09T20:28:15.262Z</time>
      </trkpt>
      <trkpt lat="46.82227" lon="0.53279">
        <ele>51.364037</ele>
        <time>2020-07-09T20:28:11.592Z</time>
      </trkpt>
      <trkpt lat="46.82209" lon="0.53272">
        <ele>51.336013</ele>
        <time>2020-07-09T20:28:07.060Z</time>
      </trkpt>
      <trkpt lat="46.82165" lon="0.53263">
        <ele>51.269082</ele>
        <time>2020-07-09T20:27:56.117Z</time>
      </trkpt>
      <trkpt lat="46.82131" lon="0.53253">
        <ele>51.215021</ele>
        <time>2020-07-09T20:27:47.476Z</time>
      </trkpt>
      <trkpt lat="46.821" lon="0.53242">
        <ele>51.167721</ele>
        <time>2020-07-09T20:27:40.155Z</time>
      </trkpt>
      <trkpt lat="46.82068" lon="0.53227">
        <ele>51.187776</ele>
        <time>2020-07-09T20:27:32.227Z</time>
      </trkpt>
      <trkpt lat="46.82037" lon="0.53213">
        <ele>51.30975</ele>
        <time>2020-07-09T20:27:24.953Z</time>
      </trkpt>
      <trkpt lat="46.81975" lon="0.53185">
        <ele>51.554766</ele>
        <time>2020-07-09T20:27:11.000Z</time>
      </trkpt>
      <trkpt lat="46.8189" lon="0.53161">
        <ele>51.961806</ele>
        <time>2020-07-09T20:26:52.489Z</time>
      </trkpt>
      <trkpt lat="46.81871" lon="0.53159">
        <ele>52.124284</ele>
        <time>2020-07-09T20:26:48.610Z</time>
      </trkpt>
      <trkpt lat="46.81842" lon="0.5316">
        <ele>52.368899</ele>
        <time>2020-07-09T20:26:42.580Z</time>
      </trkpt>
      <trkpt lat="46.81835" lon="0.5316">
        <ele>52.427511</ele>
        <time>2020-07-09T20:26:41.152Z</time>
      </trkpt>
      <trkpt lat="46.81733" lon="0.53162">
        <ele>53.292977</ele>
        <time>2020-07-09T20:26:20.651Z</time>
      </trkpt>
      <trkpt lat="46.81724" lon="0.53162">
        <ele>53.364438</ele>
        <time>2020-07-09T20:26:18.803Z</time>
      </trkpt>
      <trkpt lat="46.81723" lon="0.53167">
        <ele>53.391029</ele>
        <time>2020-07-09T20:26:17.981Z</time>
      </trkpt>
      <trkpt lat="46.81695" lon="0.53164">
        <ele>53.565789</ele>
        <time>2020-07-09T20:26:12.472Z</time>
      </trkpt>
      <trkpt lat="46.81684" lon="0.53163">
        <ele>53.636488</ele>
        <time>2020-07-09T20:26:10.190Z</time>
      </trkpt>
      <trkpt lat="46.8167" lon="0.53161">
        <ele>53.729786</ele>
        <time>2020-07-09T20:26:06.981Z</time>
      </trkpt>
      <trkpt lat="46.81633" lon="0.53155">
        <ele>53.963966</ele>
        <time>2020-07-09T20:25:59.260Z</time>
      </trkpt>
      <trkpt lat="46.81629" lon="0.53155">
        <ele>53.993537</ele>
        <time>2020-07-09T20:25:58.360Z</time>
      </trkpt>
      <trkpt lat="46.81625" lon="0.53153">
        <ele>54.02112</ele>
        <time>2020-07-09T20:25:57.498Z</time>
      </trkpt>
      <trkpt lat="46.8155" lon="0.53136">
        <ele>54.491292</ele>
        <time>2020-07-09T20:25:41.094Z</time>
      </trkpt>
      <trkpt lat="46.81546" lon="0.53135">
        <ele>54.483353</ele>
        <time>2020-07-09T20:25:40.417Z</time>
      </trkpt>
      <trkpt lat="46.81534" lon="0.53134">
        <ele>54.456659</ele>
        <time>2020-07-09T20:25:37.524Z</time>
      </trkpt>
      <trkpt lat="46.81475" lon="0.53136">
        <ele>54.323895</ele>
        <time>2020-07-09T20:25:24.243Z</time>
      </trkpt>
      <trkpt lat="46.81437" lon="0.53137">
        <ele>54.238095</ele>
        <time>2020-07-09T20:25:14.724Z</time>
      </trkpt>
      <trkpt lat="46.81401" lon="0.53137">
        <ele>54.155007</ele>
        <time>2020-07-09T20:25:05.221Z</time>
      </trkpt>
      <trkpt lat="46.81367" lon="0.53138">
        <ele>54.071562</ele>
        <time>2020-07-09T20:24:56.329Z</time>
      </trkpt>
      <trkpt lat="46.81287" lon="0.53139">
        <ele>53.760006</ele>
        <time>2020-07-09T20:24:36.631Z</time>
      </trkpt>
      <trkpt lat="46.81278" lon="0.53139">
        <ele>53.723785</ele>
        <time>2020-07-09T20:24:34.310Z</time>
      </trkpt>
      <trkpt lat="46.81271" lon="0.53128">
        <ele>53.68333</ele>
        <time>2020-07-09T20:24:31.788Z</time>
      </trkpt>
      <trkpt lat="46.81258" lon="0.53081">
        <ele>53.548759</ele>
        <time>2020-07-09T20:24:23.343Z</time>
      </trkpt>
      <trkpt lat="46.81255" lon="0.53075">
        <ele>53.528607</ele>
        <time>2020-07-09T20:24:22.114Z</time>
      </trkpt>
      <trkpt lat="46.81251" lon="0.53073">
        <ele>53.51132</ele>
        <time>2020-07-09T20:24:21.042Z</time>
      </trkpt>
      <trkpt lat="46.8125" lon="0.53066">
        <ele>53.492032</ele>
        <time>2020-07-09T20:24:19.884Z</time>
      </trkpt>
      <trkpt lat="46.81247" lon="0.53055">
        <ele>53.459943</ele>
        <time>2020-07-09T20:24:17.860Z</time>
      </trkpt>
      <trkpt lat="46.81254" lon="0.53047">
        <ele>53.423433</ele>
        <time>2020-07-09T20:24:15.568Z</time>
      </trkpt>
      <trkpt lat="46.81253" lon="0.53044">
        <ele>53.414828</ele>
        <time>2020-07-09T20:24:15.042Z</time>
      </trkpt>
      <trkpt lat="46.81246" lon="0.5297">
        <ele>53.328494</ele>
        <time>2020-07-09T20:24:03.077Z</time>
      </trkpt>
      <trkpt lat="46.81245" lon="0.52953">
        <ele>53.312038</ele>
        <time>2020-07-09T20:24:00.193Z</time>
      </trkpt>
      <trkpt lat="46.81242" lon="0.52952">
        <ele>53.307267</ele>
        <time>2020-07-09T20:23:59.296Z</time>
      </trkpt>
      <trkpt lat="46.81197" lon="0.52944">
        <ele>53.245762</ele>
        <time>2020-07-09T20:23:48.306Z</time>
      </trkpt>
      <trkpt lat="46.81184" lon="0.52931">
        <ele>53.224553</ele>
        <time>2020-07-09T20:23:44.525Z</time>
      </trkpt>
      <trkpt lat="46.8113" lon="0.5274">
        <ele>53.529426</ele>
        <time>2020-07-09T20:23:12.512Z</time>
      </trkpt>
      <trkpt lat="46.81125" lon="0.52724">
        <ele>53.584105</ele>
        <time>2020-07-09T20:23:10.059Z</time>
      </trkpt>
      <trkpt lat="46.81116" lon="0.52694">
        <ele>53.687791</ele>
        <time>2020-07-09T20:23:05.241Z</time>
      </trkpt>
      <trkpt lat="46.81082" lon="0.52572">
        <ele>54.347618</ele>
        <time>2020-07-09T20:22:46.400Z</time>
      </trkpt>
      <trkpt lat="46.80998" lon="0.52563">
        <ele>55.476792</ele>
        <time>2020-07-09T20:22:29.627Z</time>
      </trkpt>
      <trkpt lat="46.80908" lon="0.52558">
        <ele>56.984906</ele>
        <time>2020-07-09T20:22:12.632Z</time>
      </trkpt>
      <trkpt lat="46.80904" lon="0.52561">
        <ele>57.086899</ele>
        <time>2020-07-09T20:22:11.811Z</time>
      </trkpt>
      <trkpt lat="46.80869" lon="0.5249">
        <ele>58.693983</ele>
        <time>2020-07-09T20:22:01.702Z</time>
      </trkpt>
      <trkpt lat="46.80833" lon="0.52424">
        <ele>60.233855</ele>
        <time>2020-07-09T20:21:52.115Z</time>
      </trkpt>
      <trkpt lat="46.8081" lon="0.52379">
        <ele>61.263095</ele>
        <time>2020-07-09T20:21:45.866Z</time>
      </trkpt>
      <trkpt lat="46.80786" lon="0.52332">
        <ele>62.204003</ele>
        <time>2020-07-09T20:21:39.496Z</time>
      </trkpt>
      <trkpt lat="46.80768" lon="0.52296">
        <ele>62.944551</ele>
        <time>2020-07-09T20:21:34.289Z</time>
      </trkpt>
      <trkpt lat="46.80713" lon="0.52197">
        <ele>65.018637</ele>
        <time>2020-07-09T20:21:19.175Z</time>
      </trkpt>
      <trkpt lat="46.80608" lon="0.51997">
        <ele>67.731194</ele>
        <time>2020-07-09T20:20:46.507Z</time>
      </trkpt>
      <trkpt lat="46.80495" lon="0.5178">
        <ele>71.685674</ele>
        <time>2020-07-09T20:20:14.173Z</time>
      </trkpt>
      <trkpt lat="46.80489" lon="0.51769">
        <ele>71.912631</ele>
        <time>2020-07-09T20:20:12.563Z</time>
      </trkpt>
      <trkpt lat="46.80447" lon="0.51686">
        <ele>72.945397</ele>
        <time>2020-07-09T20:20:00.412Z</time>
      </trkpt>
      <trkpt lat="46.80385" lon="0.51569">
        <ele>74.30368</ele>
        <time>2020-07-09T20:19:41.296Z</time>
      </trkpt>
      <trkpt lat="46.80342" lon="0.51503">
        <ele>73.977111</ele>
        <time>2020-07-09T20:19:26.549Z</time>
      </trkpt>
      <trkpt lat="46.80321" lon="0.51474">
        <ele>73.608326</ele>
        <time>2020-07-09T20:19:18.608Z</time>
      </trkpt>
      <trkpt lat="46.80303" lon="0.5145">
        <ele>73.298317</ele>
        <time>2020-07-09T20:19:11.320Z</time>
      </trkpt>
      <trkpt lat="46.80253" lon="0.5136">
        <ele>72.284805</ele>
        <time>2020-07-09T20:18:47.656Z</time>
      </trkpt>
      <trkpt lat="46.80238" lon="0.51324">
        <ele>71.976389</ele>
        <time>2020-07-09T20:18:38.837Z</time>
      </trkpt>
      <trkpt lat="46.80214" lon="0.51265">
        <ele>71.489128</ele>
        <time>2020-07-09T20:18:25.184Z</time>
      </trkpt>
      <trkpt lat="46.80204" lon="0.51239">
        <ele>71.278574</ele>
        <time>2020-07-09T20:18:19.623Z</time>
      </trkpt>
      <trkpt lat="46.80126" lon="0.51075">
        <ele>70.619701</ele>
        <time>2020-07-09T20:17:46.936Z</time>
      </trkpt>
      <trkpt lat="46.80043" lon="0.50918">
        <ele>71.306002</ele>
        <time>2020-07-09T20:17:20.303Z</time>
      </trkpt>
      <trkpt lat="46.79505" lon="0.49893">
        <ele>79.080901</ele>
        <time>2020-07-09T20:14:27.438Z</time>
      </trkpt>
      <trkpt lat="46.79315" lon="0.49531">
        <ele>79.316764</ele>
        <time>2020-07-09T20:13:19.233Z</time>
      </trkpt>
      <trkpt lat="46.7927" lon="0.49446">
        <ele>79.112034</ele>
        <time>2020-07-09T20:13:01.142Z</time>
      </trkpt>
      <trkpt lat="46.79267" lon="0.49446">
        <ele>79.084447</ele>
        <time>2020-07-09T20:13:00.105Z</time>
      </trkpt>
      <trkpt lat="46.78557" lon="0.49196">
        <ele>73.431484</ele>
        <time>2020-07-09T20:09:53.466Z</time>
      </trkpt>
      <trkpt lat="46.78535" lon="0.49186">
        <ele>73.447111</ele>
        <time>2020-07-09T20:09:47.867Z</time>
      </trkpt>
      <trkpt lat="46.7852" lon="0.49178">
        <ele>73.457976</ele>
        <time>2020-07-09T20:09:44.624Z</time>
      </trkpt>
      <trkpt lat="46.78348" lon="0.49013">
        <ele>74.316899</ele>
        <time>2020-07-09T20:09:02.011Z</time>
      </trkpt>
      <trkpt lat="46.78086" lon="0.48632">
        <ele>78.117966</ele>
        <time>2020-07-09T20:07:52.034Z</time>
      </trkpt>
      <trkpt lat="46.78084" lon="0.48625">
        <ele>78.17063</ele>
        <time>2020-07-09T20:07:51.033Z</time>
      </trkpt>
      <trkpt lat="46.78078" lon="0.48624">
        <ele>78.222473</ele>
        <time>2020-07-09T20:07:49.952Z</time>
      </trkpt>
      <trkpt lat="46.78073" lon="0.48622">
        <ele>78.273833</ele>
        <time>2020-07-09T20:07:48.809Z</time>
      </trkpt>
      <trkpt lat="46.78067" lon="0.48619">
        <ele>78.330299</ele>
        <time>2020-07-09T20:07:47.606Z</time>
      </trkpt>
      <trkpt lat="46.78009" lon="0.48582">
        <ele>78.780443</ele>
        <time>2020-07-09T20:07:35.044Z</time>
      </trkpt>
      <trkpt lat="46.77796" lon="0.48448">
        <ele>78.014681</ele>
        <time>2020-07-09T20:06:39.823Z</time>
      </trkpt>
      <trkpt lat="46.77775" lon="0.48434">
        <ele>77.863384</ele>
        <time>2020-07-09T20:06:33.961Z</time>
      </trkpt>
      <trkpt lat="46.77756" lon="0.48423">
        <ele>77.727213</ele>
        <time>2020-07-09T20:06:28.654Z</time>
      </trkpt>
      <trkpt lat="46.77742" lon="0.48416">
        <ele>77.630608</ele>
        <time>2020-07-09T20:06:24.958Z</time>
      </trkpt>
      <trkpt lat="46.77706" lon="0.4841">
        <ele>77.391412</ele>
        <time>2020-07-09T20:06:15.705Z</time>
      </trkpt>
      <trkpt lat="46.77699" lon="0.48408">
        <ele>77.342667</ele>
        <time>2020-07-09T20:06:13.854Z</time>
      </trkpt>
      <trkpt lat="46.7769" lon="0.48407">
        <ele>77.283846</ele>
        <time>2020-07-09T20:06:11.500Z</time>
      </trkpt>
      <trkpt lat="46.77661" lon="0.48396">
        <ele>77.120724</ele>
        <time>2020-07-09T20:06:04.120Z</time>
      </trkpt>
      <trkpt lat="46.77555" lon="0.48335">
        <ele>76.51387</ele>
        <time>2020-07-09T20:05:36.175Z</time>
      </trkpt>
      <trkpt lat="46.77355" lon="0.48271">
        <ele>75.748072</ele>
        <time>2020-07-09T20:04:48.198Z</time>
      </trkpt>
      <trkpt lat="46.77329" lon="0.48263">
        <ele>75.621336</ele>
        <time>2020-07-09T20:04:41.872Z</time>
      </trkpt>
      <trkpt lat="46.77324" lon="0.48271">
        <ele>75.570522</ele>
        <time>2020-07-09T20:04:40.033Z</time>
      </trkpt>
      <trkpt lat="46.77319" lon="0.4827">
        <ele>75.531405</ele>
        <time>2020-07-09T20:04:38.478Z</time>
      </trkpt>
      <trkpt lat="46.77218" lon="0.48257">
        <ele>74.832469</ele>
        <time>2020-07-09T20:04:13.096Z</time>
      </trkpt>
      <trkpt lat="46.77112" lon="0.48262">
        <ele>73.854369</ele>
        <time>2020-07-09T20:03:43.788Z</time>
      </trkpt>
      <trkpt lat="46.77069" lon="0.48266">
        <ele>73.336609</ele>
        <time>2020-07-09T20:03:31.632Z</time>
      </trkpt>
      <trkpt lat="46.77051" lon="0.48267">
        <ele>73.124819</ele>
        <time>2020-07-09T20:03:26.318Z</time>
      </trkpt>
      <trkpt lat="46.76987" lon="0.48261">
        <ele>72.367652</ele>
        <time>2020-07-09T20:03:08.320Z</time>
      </trkpt>
      <trkpt lat="46.76919" lon="0.48235">
        <ele>71.985222</ele>
        <time>2020-07-09T20:02:49.095Z</time>
      </trkpt>
      <trkpt lat="46.76893" lon="0.48219">
        <ele>71.838417</ele>
        <time>2020-07-09T20:02:41.631Z</time>
      </trkpt>
      <trkpt lat="46.76738" lon="0.48109">
        <ele>71.459838</ele>
        <time>2020-07-09T20:02:02.042Z</time>
      </trkpt>
      <trkpt lat="46.76685" lon="0.48072">
        <ele>71.499693</ele>
        <time>2020-07-09T20:01:48.713Z</time>
      </trkpt>
      <trkpt lat="46.76667" lon="0.48058">
        <ele>71.513676</ele>
        <time>2020-07-09T20:01:44.071Z</time>
      </trkpt>
      <trkpt lat="46.76636" lon="0.48034">
        <ele>71.582048</ele>
        <time>2020-07-09T20:01:36.089Z</time>
      </trkpt>
      <trkpt lat="46.76606" lon="0.4801">
        <ele>71.677929</ele>
        <time>2020-07-09T20:01:28.080Z</time>
      </trkpt>
      <trkpt lat="46.76599" lon="0.48005">
        <ele>71.699318</ele>
        <time>2020-07-09T20:01:26.065Z</time>
      </trkpt>
      <trkpt lat="46.76517" lon="0.47964">
        <ele>71.941223</ele>
        <time>2020-07-09T20:01:07.042Z</time>
      </trkpt>
      <trkpt lat="46.7647" lon="0.47956">
        <ele>72.110997</ele>
        <time>2020-07-09T20:00:57.308Z</time>
      </trkpt>
      <trkpt lat="46.76448" lon="0.47934">
        <ele>72.247339</ele>
        <time>2020-07-09T20:00:51.143Z</time>
      </trkpt>
      <trkpt lat="46.76447" lon="0.47927">
        <ele>72.270795</ele>
        <time>2020-07-09T20:00:50.258Z</time>
      </trkpt>
      <trkpt lat="46.76444" lon="0.47901">
        <ele>72.363235</ele>
        <time>2020-07-09T20:00:46.506Z</time>
      </trkpt>
      <trkpt lat="46.76441" lon="0.47884">
        <ele>72.425482</ele>
        <time>2020-07-09T20:00:43.525Z</time>
      </trkpt>
      <trkpt lat="46.76437" lon="0.4787">
        <ele>72.476545</ele>
        <time>2020-07-09T20:00:41.531Z</time>
      </trkpt>
      <trkpt lat="46.76435" lon="0.47862">
        <ele>72.504473</ele>
        <time>2020-07-09T20:00:40.470Z</time>
      </trkpt>
      <trkpt lat="46.7642" lon="0.47823">
        <ele>72.66059</ele>
        <time>2020-07-09T20:00:33.485Z</time>
      </trkpt>
      <trkpt lat="46.76416" lon="0.4782">
        <ele>72.683351</ele>
        <time>2020-07-09T20:00:32.626Z</time>
      </trkpt>
      <trkpt lat="46.76412" lon="0.47819">
        <ele>72.706276</ele>
        <time>2020-07-09T20:00:31.548Z</time>
      </trkpt>
      <trkpt lat="46.76385" lon="0.47826">
        <ele>72.842699</ele>
        <time>2020-07-09T20:00:25.534Z</time>
      </trkpt>
      <trkpt lat="46.76331" lon="0.47845">
        <ele>72.921773</ele>
        <time>2020-07-09T20:00:13.823Z</time>
      </trkpt>
      <trkpt lat="46.76319" lon="0.47849">
        <ele>72.918258</ele>
        <time>2020-07-09T20:00:11.221Z</time>
      </trkpt>
      <trkpt lat="46.76311" lon="0.47851">
        <ele>72.915597</ele>
        <time>2020-07-09T20:00:09.445Z</time>
      </trkpt>
      <trkpt lat="46.76303" lon="0.47851">
        <ele>72.913282</ele>
        <time>2020-07-09T20:00:07.695Z</time>
      </trkpt>
      <trkpt lat="46.76288" lon="0.47848">
        <ele>72.908494</ele>
        <time>2020-07-09T20:00:03.875Z</time>
      </trkpt>
      <trkpt lat="46.76274" lon="0.47845">
        <ele>72.904199</ele>
        <time>2020-07-09T20:00:00.452Z</time>
      </trkpt>
      <trkpt lat="46.76272" lon="0.47841">
        <ele>72.903149</ele>
        <time>2020-07-09T19:59:59.598Z</time>
      </trkpt>
      <trkpt lat="46.76264" lon="0.47827">
        <ele>72.899398</ele>
        <time>2020-07-09T19:59:56.743Z</time>
      </trkpt>
      <trkpt lat="46.76261" lon="0.47828">
        <ele>72.898188</ele>
        <time>2020-07-09T19:59:55.727Z</time>
      </trkpt>
      <trkpt lat="46.76257" lon="0.47828">
        <ele>72.896939</ele>
        <time>2020-07-09T19:59:54.750Z</time>
      </trkpt>
      <trkpt lat="46.76253" lon="0.47826">
        <ele>72.895686</ele>
        <time>2020-07-09T19:59:53.705Z</time>
      </trkpt>
      <trkpt lat="46.76249" lon="0.47821">
        <ele>72.894325</ele>
        <time>2020-07-09T19:59:52.608Z</time>
      </trkpt>
      <trkpt lat="46.76247" lon="0.47815">
        <ele>72.892934</ele>
        <time>2020-07-09T19:59:51.506Z</time>
      </trkpt>
      <trkpt lat="46.76247" lon="0.47808">
        <ele>72.891368</ele>
        <time>2020-07-09T19:59:50.446Z</time>
      </trkpt>
      <trkpt lat="46.76249" lon="0.47801">
        <ele>72.889867</ele>
        <time>2020-07-09T19:59:49.297Z</time>
      </trkpt>
      <trkpt lat="46.76246" lon="0.47784">
        <ele>72.886254</ele>
        <time>2020-07-09T19:59:46.404Z</time>
      </trkpt>
      <trkpt lat="46.76242" lon="0.47776">
        <ele>72.884205</ele>
        <time>2020-07-09T19:59:44.756Z</time>
      </trkpt>
      <trkpt lat="46.76239" lon="0.47764">
        <ele>72.881377</ele>
        <time>2020-07-09T19:59:42.523Z</time>
      </trkpt>
      <trkpt lat="46.76239" lon="0.47759">
        <ele>72.880334</ele>
        <time>2020-07-09T19:59:41.852Z</time>
      </trkpt>
      <trkpt lat="46.76237" lon="0.47758">
        <ele>72.879832</ele>
        <time>2020-07-09T19:59:41.401Z</time>
      </trkpt>
      <trkpt lat="46.7619" lon="0.47668">
        <ele>72.404797</ele>
        <time>2020-07-09T19:59:22.111Z</time>
      </trkpt>
      <trkpt lat="46.76129" lon="0.47602">
        <ele>71.916865</ele>
        <time>2020-07-09T19:59:02.145Z</time>
      </trkpt>
      <trkpt lat="46.76126" lon="0.47598">
        <ele>71.892579</ele>
        <time>2020-07-09T19:59:00.565Z</time>
      </trkpt>
      <trkpt lat="46.76132" lon="0.4759">
        <ele>71.844014</ele>
        <time>2020-07-09T19:58:58.616Z</time>
      </trkpt>
      <trkpt lat="46.76149" lon="0.47566">
        <ele>71.725217</ele>
        <time>2020-07-09T19:58:52.573Z</time>
      </trkpt>
      <trkpt lat="46.76137" lon="0.47541">
        <ele>71.738172</ele>
        <time>2020-07-09T19:58:46.607Z</time>
      </trkpt>
      <trkpt lat="46.76087" lon="0.4746">
        <ele>71.784662</ele>
        <time>2020-07-09T19:58:28.045Z</time>
      </trkpt>
      <trkpt lat="46.76057" lon="0.47422">
        <ele>71.809424</ele>
        <time>2020-07-09T19:58:18.953Z</time>
      </trkpt>
      <trkpt lat="46.75874" lon="0.47291">
        <ele>74.469921</ele>
        <time>2020-07-09T19:57:40.008Z</time>
      </trkpt>
      <trkpt lat="46.75866" lon="0.47285">
        <ele>74.619663</ele>
        <time>2020-07-09T19:57:38.457Z</time>
      </trkpt>
      <trkpt lat="46.75818" lon="0.47249">
        <ele>75.452296</ele>
        <time>2020-07-09T19:57:28.372Z</time>
      </trkpt>
      <trkpt lat="46.7576" lon="0.47195">
        <ele>76.535156</ele>
        <time>2020-07-09T19:57:15.272Z</time>
      </trkpt>
      <trkpt lat="46.75675" lon="0.47069">
        <ele>78.18877</ele>
        <time>2020-07-09T19:56:51.364Z</time>
      </trkpt>
      <trkpt lat="46.75603" lon="0.46906">
        <ele>79.727626</ele>
        <time>2020-07-09T19:56:24.907Z</time>
      </trkpt>
      <trkpt lat="46.75538" lon="0.46795">
        <ele>80.826098</ele>
        <time>2020-07-09T19:56:05.182Z</time>
      </trkpt>
      <trkpt lat="46.75504" lon="0.46706">
        <ele>81.595012</ele>
        <time>2020-07-09T19:55:50.945Z</time>
      </trkpt>
      <trkpt lat="46.75495" lon="0.46689">
        <ele>81.678244</ele>
        <time>2020-07-09T19:55:48.062Z</time>
      </trkpt>
      <trkpt lat="46.75483" lon="0.46662">
        <ele>81.808882</ele>
        <time>2020-07-09T19:55:43.399Z</time>
      </trkpt>
      <trkpt lat="46.75361" lon="0.46413">
        <ele>83.197305</ele>
        <time>2020-07-09T19:54:58.185Z</time>
      </trkpt>
      <trkpt lat="46.75338" lon="0.46397">
        <ele>83.40402</ele>
        <time>2020-07-09T19:54:52.845Z</time>
      </trkpt>
      <trkpt lat="46.75289" lon="0.46389">
        <ele>83.812023</ele>
        <time>2020-07-09T19:54:42.551Z</time>
      </trkpt>
      <trkpt lat="46.7527" lon="0.4638">
        <ele>83.976969</ele>
        <time>2020-07-09T19:54:38.584Z</time>
      </trkpt>
      <trkpt lat="46.75259" lon="0.46372">
        <ele>84.081504</ele>
        <time>2020-07-09T19:54:36.042Z</time>
      </trkpt>
      <trkpt lat="46.75248" lon="0.4636">
        <ele>84.295469</ele>
        <time>2020-07-09T19:54:33.568Z</time>
      </trkpt>
      <trkpt lat="46.75188" lon="0.4628">
        <ele>86.006768</ele>
        <time>2020-07-09T19:54:18.197Z</time>
      </trkpt>
      <trkpt lat="46.75179" lon="0.4627">
        <ele>86.232628</ele>
        <time>2020-07-09T19:54:16.185Z</time>
      </trkpt>
      <trkpt lat="46.75169" lon="0.46259">
        <ele>86.493132</ele>
        <time>2020-07-09T19:54:14.038Z</time>
      </trkpt>
      <trkpt lat="46.7512" lon="0.46206">
        <ele>87.783501</ele>
        <time>2020-07-09T19:54:03.082Z</time>
      </trkpt>
      <trkpt lat="46.75071" lon="0.46124">
        <ele>89.633975</ele>
        <time>2020-07-09T19:53:50.209Z</time>
      </trkpt>
      <trkpt lat="46.75021" lon="0.46059">
        <ele>91.328282</ele>
        <time>2020-07-09T19:53:38.439Z</time>
      </trkpt>
      <trkpt lat="46.74955" lon="0.45983">
        <ele>92.731451</ele>
        <time>2020-07-09T19:53:23.059Z</time>
      </trkpt>
      <trkpt lat="46.7487" lon="0.45906">
        <ele>93.419033</ele>
        <time>2020-07-09T19:53:01.905Z</time>
      </trkpt>
      <trkpt lat="46.74861" lon="0.45899">
        <ele>93.495462</ele>
        <time>2020-07-09T19:52:59.619Z</time>
      </trkpt>
      <trkpt lat="46.74843" lon="0.45893">
        <ele>93.622473</ele>
        <time>2020-07-09T19:52:54.478Z</time>
      </trkpt>
      <trkpt lat="46.74804" lon="0.45873">
        <ele>93.413187</ele>
        <time>2020-07-09T19:52:43.852Z</time>
      </trkpt>
      <trkpt lat="46.74759" lon="0.45835">
        <ele>92.913339</ele>
        <time>2020-07-09T19:52:29.997Z</time>
      </trkpt>
      <trkpt lat="46.74744" lon="0.45818">
        <ele>92.735446</ele>
        <time>2020-07-09T19:52:24.322Z</time>
      </trkpt>
      <trkpt lat="46.74731" lon="0.45804">
        <ele>92.577302</ele>
        <time>2020-07-09T19:52:20.024Z</time>
      </trkpt>
      <trkpt lat="46.74689" lon="0.4575">
        <ele>92.041151</ele>
        <time>2020-07-09T19:52:03.843Z</time>
      </trkpt>
      <trkpt lat="46.74618" lon="0.45624">
        <ele>91.642607</ele>
        <time>2020-07-09T19:51:34.761Z</time>
      </trkpt>
      <trkpt lat="46.74557" lon="0.45487">
        <ele>91.716697</ele>
        <time>2020-07-09T19:51:09.854Z</time>
      </trkpt>
      <trkpt lat="46.7455" lon="0.45475">
        <ele>91.804679</ele>
        <time>2020-07-09T19:51:07.545Z</time>
      </trkpt>
      <trkpt lat="46.7454" lon="0.45458">
        <ele>91.933874</ele>
        <time>2020-07-09T19:51:04.489Z</time>
      </trkpt>
      <trkpt lat="46.74505" lon="0.45424">
        <ele>92.289252</ele>
        <time>2020-07-09T19:50:55.914Z</time>
      </trkpt>
      <trkpt lat="46.74478" lon="0.45412">
        <ele>92.527774</ele>
        <time>2020-07-09T19:50:50.263Z</time>
      </trkpt>
      <trkpt lat="46.74428" lon="0.45405">
        <ele>92.926562</ele>
        <time>2020-07-09T19:50:40.458Z</time>
      </trkpt>
      <trkpt lat="46.74396" lon="0.45391">
        <ele>93.040312</ele>
        <time>2020-07-09T19:50:33.815Z</time>
      </trkpt>
      <trkpt lat="46.74337" lon="0.4534">
        <ele>93.271035</ele>
        <time>2020-07-09T19:50:19.384Z</time>
      </trkpt>
      <trkpt lat="46.74286" lon="0.45278">
        <ele>93.495152</ele>
        <time>2020-07-09T19:50:03.623Z</time>
      </trkpt>
      <trkpt lat="46.74204" lon="0.4514">
        <ele>92.460116</ele>
        <time>2020-07-09T19:49:29.653Z</time>
      </trkpt>
      <trkpt lat="46.74166" lon="0.45078">
        <ele>91.949636</ele>
        <time>2020-07-09T19:49:13.494Z</time>
      </trkpt>
      <trkpt lat="46.74067" lon="0.44858">
        <ele>91.055179</ele>
        <time>2020-07-09T19:48:27.788Z</time>
      </trkpt>
      <trkpt lat="46.74053" lon="0.44841">
        <ele>91.076241</ele>
        <time>2020-07-09T19:48:23.673Z</time>
      </trkpt>
      <trkpt lat="46.73942" lon="0.44726">
        <ele>91.535841</ele>
        <time>2020-07-09T19:47:54.438Z</time>
      </trkpt>
      <trkpt lat="46.73783" lon="0.44613">
        <ele>92.108438</ele>
        <time>2020-07-09T19:47:16.276Z</time>
      </trkpt>
      <trkpt lat="46.73712" lon="0.44492">
        <ele>91.777935</ele>
        <time>2020-07-09T19:46:50.315Z</time>
      </trkpt>
      <trkpt lat="46.73639" lon="0.44336">
        <ele>90.768356</ele>
        <time>2020-07-09T19:46:15.514Z</time>
      </trkpt>
      <trkpt lat="46.73619" lon="0.44261">
        <ele>89.888517</ele>
        <time>2020-07-09T19:45:59.565Z</time>
      </trkpt>
      <trkpt lat="46.73608" lon="0.44238">
        <ele>89.576471</ele>
        <time>2020-07-09T19:45:53.704Z</time>
      </trkpt>
      <trkpt lat="46.73532" lon="0.44125">
        <ele>87.270711</ele>
        <time>2020-07-09T19:45:20.922Z</time>
      </trkpt>
      <trkpt lat="46.73437" lon="0.44023">
        <ele>83.112449</ele>
        <time>2020-07-09T19:44:36.129Z</time>
      </trkpt>
      <trkpt lat="46.73418" lon="0.43997">
        <ele>82.188346</ele>
        <time>2020-07-09T19:44:25.656Z</time>
      </trkpt>
      <trkpt lat="46.73379" lon="0.44029">
        <ele>80.059591</ele>
        <time>2020-07-09T19:44:06.638Z</time>
      </trkpt>
      <trkpt lat="46.73305" lon="0.44092">
        <ele>75.763951</ele>
        <time>2020-07-09T19:43:28.101Z</time>
      </trkpt>
      <trkpt lat="46.73234" lon="0.44163">
        <ele>71.788101</ele>
        <time>2020-07-09T19:42:50.393Z</time>
      </trkpt>
      <trkpt lat="46.73187" lon="0.44201">
        <ele>69.7623</ele>
        <time>2020-07-09T19:42:29.443Z</time>
      </trkpt>
      <trkpt lat="46.73171" lon="0.44156">
        <ele>68.450126</ele>
        <time>2020-07-09T19:42:16.681Z</time>
      </trkpt>
      <trkpt lat="46.73123" lon="0.44165">
        <ele>66.594198</ele>
        <time>2020-07-09T19:41:58.980Z</time>
      </trkpt>
      <trkpt lat="46.73089" lon="0.44176">
        <ele>65.64509</ele>
        <time>2020-07-09T19:41:47.442Z</time>
      </trkpt>
      <trkpt lat="46.73059" lon="0.44188">
        <ele>64.955924</ele>
        <time>2020-07-09T19:41:36.842Z</time>
      </trkpt>
      <trkpt lat="46.73026" lon="0.44198">
        <ele>64.242134</ele>
        <time>2020-07-09T19:41:21.757Z</time>
      </trkpt>
      <trkpt lat="46.73021" lon="0.44196">
        <ele>64.127145</ele>
        <time>2020-07-09T19:41:19.392Z</time>
      </trkpt>
      <trkpt lat="46.73015" lon="0.44194">
        <ele>63.994325</ele>
        <time>2020-07-09T19:41:16.375Z</time>
      </trkpt>
      <trkpt lat="46.73018" lon="0.44183">
        <ele>63.822422</ele>
        <time>2020-07-09T19:41:12.910Z</time>
      </trkpt>
      <trkpt lat="46.73001" lon="0.44194">
        <ele>63.427484</ele>
        <time>2020-07-09T19:41:07.301Z</time>
      </trkpt>
      <trkpt lat="46.72964" lon="0.44213">
        <ele>62.585316</ele>
        <time>2020-07-09T19:40:55.887Z</time>
      </trkpt>
      <trkpt lat="46.72942" lon="0.4422">
        <ele>62.183677</ele>
        <time>2020-07-09T19:40:49.311Z</time>
      </trkpt>
      <trkpt lat="46.72927" lon="0.44223">
        <ele>62.069455</ele>
        <time>2020-07-09T19:40:44.694Z</time>
      </trkpt>
      <trkpt lat="46.72921" lon="0.44224">
        <ele>62.029001</ele>
        <time>2020-07-09T19:40:42.973Z</time>
      </trkpt>
      <trkpt lat="46.72896" lon="0.44229">
        <ele>61.845416</ele>
        <time>2020-07-09T19:40:36.409Z</time>
      </trkpt>
      <trkpt lat="46.72865" lon="0.44233">
        <ele>61.627734</ele>
        <time>2020-07-09T19:40:28.711Z</time>
      </trkpt>
      <trkpt lat="46.72839" lon="0.44237">
        <ele>61.441826</ele>
        <time>2020-07-09T19:40:22.036Z</time>
      </trkpt>
      <trkpt lat="46.728" lon="0.44247">
        <ele>61.156526</ele>
        <time>2020-07-09T19:40:12.583Z</time>
      </trkpt>
      <trkpt lat="46.72783" lon="0.44254">
        <ele>61.029868</ele>
        <time>2020-07-09T19:40:08.711Z</time>
      </trkpt>
      <trkpt lat="46.72768" lon="0.44261">
        <ele>60.947796</ele>
        <time>2020-07-09T19:40:05.076Z</time>
      </trkpt>
      <trkpt lat="46.72771" lon="0.44253">
        <ele>60.967116</ele>
        <time>2020-07-09T19:40:03.743Z</time>
      </trkpt>
      <trkpt lat="46.7277" lon="0.44229">
        <ele>61.014232</ele>
        <time>2020-07-09T19:39:59.904Z</time>
      </trkpt>
      <trkpt lat="46.72776" lon="0.44207">
        <ele>61.061002</ele>
        <time>2020-07-09T19:39:56.350Z</time>
      </trkpt>
      <trkpt lat="46.72785" lon="0.44205">
        <ele>61.087425</ele>
        <time>2020-07-09T19:39:54.469Z</time>
      </trkpt>
      <trkpt lat="46.72793" lon="0.44207">
        <ele>61.109371</ele>
        <time>2020-07-09T19:39:52.711Z</time>
      </trkpt>
      <trkpt lat="46.72834" lon="0.4421">
        <ele>61.230363</ele>
        <time>2020-07-09T19:39:43.983Z</time>
      </trkpt>
      <trkpt lat="46.72846" lon="0.44205">
        <ele>61.26761</ele>
        <time>2020-07-09T19:39:41.375Z</time>
      </trkpt>
      <trkpt lat="46.72859" lon="0.4419">
        <ele>61.316515</ele>
        <time>2020-07-09T19:39:37.912Z</time>
      </trkpt>
      <trkpt lat="46.72863" lon="0.44182">
        <ele>61.33549</ele>
        <time>2020-07-09T19:39:36.499Z</time>
      </trkpt>
      <trkpt lat="46.72861" lon="0.44174">
        <ele>61.352295</ele>
        <time>2020-07-09T19:39:35.395Z</time>
      </trkpt>
      <trkpt lat="46.72798" lon="0.44036">
        <ele>61.414526</ele>
        <time>2020-07-09T19:39:11.446Z</time>
      </trkpt>
      <trkpt lat="46.72741" lon="0.43939">
        <ele>61.359942</ele>
        <time>2020-07-09T19:38:50.995Z</time>
      </trkpt>
      <trkpt lat="46.72705" lon="0.43894">
        <ele>61.202011</ele>
        <time>2020-07-09T19:38:39.460Z</time>
      </trkpt>
      <trkpt lat="46.7262" lon="0.43759">
        <ele>60.601975</ele>
        <time>2020-07-09T19:38:08.844Z</time>
      </trkpt>
      <trkpt lat="46.72552" lon="0.43688">
        <ele>60.278684</ele>
        <time>2020-07-09T19:37:48.718Z</time>
      </trkpt>
      <trkpt lat="46.72514" lon="0.43636">
        <ele>60.093819</ele>
        <time>2020-07-09T19:37:36.209Z</time>
      </trkpt>
      <trkpt lat="46.72347" lon="0.43403">
        <ele>59.677563</ele>
        <time>2020-07-09T19:36:43.052Z</time>
      </trkpt>
      <trkpt lat="46.72326" lon="0.43363">
        <ele>59.772582</ele>
        <time>2020-07-09T19:36:35.571Z</time>
      </trkpt>
      <trkpt lat="46.72294" lon="0.43236">
        <ele>60.350484</ele>
        <time>2020-07-09T19:36:16.493Z</time>
      </trkpt>
      <trkpt lat="46.72323" lon="0.43112">
        <ele>60.916646</ele>
        <time>2020-07-09T19:35:59.342Z</time>
      </trkpt>
      <trkpt lat="46.72324" lon="0.43094">
        <ele>61.00176</ele>
        <time>2020-07-09T19:35:56.730Z</time>
      </trkpt>
      <trkpt lat="46.7232" lon="0.43084">
        <ele>61.050084</ele>
        <time>2020-07-09T19:35:55.263Z</time>
      </trkpt>
      <trkpt lat="46.7231" lon="0.43069">
        <ele>61.144623</ele>
        <time>2020-07-09T19:35:52.569Z</time>
      </trkpt>
      <trkpt lat="46.72251" lon="0.43011">
        <ele>61.619355</ele>
        <time>2020-07-09T19:35:37.565Z</time>
      </trkpt>
      <trkpt lat="46.7223" lon="0.42988">
        <ele>61.792953</ele>
        <time>2020-07-09T19:35:30.217Z</time>
      </trkpt>
      <trkpt lat="46.7212" lon="0.43089">
        <ele>62.075684</ele>
        <time>2020-07-09T19:34:52.615Z</time>
      </trkpt>
      <trkpt lat="46.72076" lon="0.43306">
        <ele>62.460824</ele>
        <time>2020-07-09T19:34:07.660Z</time>
      </trkpt>
      <trkpt lat="46.7208" lon="0.43314">
        <ele>62.489488</ele>
        <time>2020-07-09T19:34:06.384Z</time>
      </trkpt>
      <trkpt lat="46.72074" lon="0.43323">
        <ele>62.520387</ele>
        <time>2020-07-09T19:34:04.751Z</time>
      </trkpt>
      <trkpt lat="46.72027" lon="0.43309">
        <ele>62.708855</ele>
        <time>2020-07-09T19:33:54.957Z</time>
      </trkpt>
      <trkpt lat="46.72011" lon="0.43327">
        <ele>62.789101</ele>
        <time>2020-07-09T19:33:51.052Z</time>
      </trkpt>
      <trkpt lat="46.72002" lon="0.4333">
        <ele>62.827513</ele>
        <time>2020-07-09T19:33:48.891Z</time>
      </trkpt>
      <trkpt lat="46.71957" lon="0.4331">
        <ele>62.810296</ele>
        <time>2020-07-09T19:33:39.084Z</time>
      </trkpt>
      <trkpt lat="46.71948" lon="0.43306">
        <ele>62.797764</ele>
        <time>2020-07-09T19:33:37.401Z</time>
      </trkpt>
      <trkpt lat="46.71946" lon="0.43306">
        <ele>62.794769</ele>
        <time>2020-07-09T19:33:36.961Z</time>
      </trkpt>
      <trkpt lat="46.71944" lon="0.43305">
        <ele>62.792285</ele>
        <time>2020-07-09T19:33:36.575Z</time>
      </trkpt>
      <trkpt lat="46.71941" lon="0.43304">
        <ele>62.788074</ele>
        <time>2020-07-09T19:33:35.904Z</time>
      </trkpt>
      <trkpt lat="46.71916" lon="0.43299">
        <ele>62.753928</ele>
        <time>2020-07-09T19:33:30.298Z</time>
      </trkpt>
      <trkpt lat="46.71882" lon="0.43319">
        <ele>62.704765</ele>
        <time>2020-07-09T19:33:22.065Z</time>
      </trkpt>
      <trkpt lat="46.71865" lon="0.43314">
        <ele>62.681847</ele>
        <time>2020-07-09T19:33:18.061Z</time>
      </trkpt>
      <trkpt lat="46.7173" lon="0.43215">
        <ele>61.49548</ele>
        <time>2020-07-09T19:32:38.061Z</time>
      </trkpt>
      <trkpt lat="46.71724" lon="0.43203">
        <ele>61.381936</ele>
        <time>2020-07-09T19:32:35.086Z</time>
      </trkpt>
      <trkpt lat="46.71696" lon="0.43075">
        <ele>60.55165</ele>
        <time>2020-07-09T19:32:10.084Z</time>
      </trkpt>
      <trkpt lat="46.71626" lon="0.43015">
        <ele>60.14625</ele>
        <time>2020-07-09T19:31:49.886Z</time>
      </trkpt>
      <trkpt lat="46.71625" lon="0.4301">
        <ele>60.128847</ele>
        <time>2020-07-09T19:31:48.651Z</time>
      </trkpt>
      <trkpt lat="46.71616" lon="0.43005">
        <ele>60.079194</ele>
        <time>2020-07-09T19:31:46.563Z</time>
      </trkpt>
      <trkpt lat="46.71559" lon="0.42954">
        <ele>59.822308</ele>
        <time>2020-07-09T19:31:30.923Z</time>
      </trkpt>
      <trkpt lat="46.71464" lon="0.42802">
        <ele>60.240192</ele>
        <time>2020-07-09T19:31:00.235Z</time>
      </trkpt>
      <trkpt lat="46.71462" lon="0.42778">
        <ele>60.288709</ele>
        <time>2020-07-09T19:30:56.634Z</time>
      </trkpt>
      <trkpt lat="46.71497" lon="0.42603">
        <ele>60.57722</ele>
        <time>2020-07-09T19:30:28.652Z</time>
      </trkpt>
      <trkpt lat="46.715" lon="0.42589">
        <ele>60.599575</ele>
        <time>2020-07-09T19:30:26.375Z</time>
      </trkpt>
      <trkpt lat="46.71461" lon="0.4258">
        <ele>60.687981</ele>
        <time>2020-07-09T19:30:17.353Z</time>
      </trkpt>
      <trkpt lat="46.71301" lon="0.42543">
        <ele>61.0259</ele>
        <time>2020-07-09T19:29:40.998Z</time>
      </trkpt>
      <trkpt lat="46.71152" lon="0.42496">
        <ele>61.376898</ele>
        <time>2020-07-09T19:29:07.200Z</time>
      </trkpt>
      <trkpt lat="46.71077" lon="0.42479">
        <ele>61.535182</ele>
        <time>2020-07-09T19:28:50.204Z</time>
      </trkpt>
      <trkpt lat="46.70691" lon="0.42349">
        <ele>61.74869</ele>
        <time>2020-07-09T19:27:18.838Z</time>
      </trkpt>
      <trkpt lat="46.70648" lon="0.42328">
        <ele>61.805105</ele>
        <time>2020-07-09T19:27:08.475Z</time>
      </trkpt>
      <trkpt lat="46.70547" lon="0.42275">
        <ele>62.063546</ele>
        <time>2020-07-09T19:26:44.318Z</time>
      </trkpt>
      <trkpt lat="46.70424" lon="0.42207">
        <ele>62.944516</ele>
        <time>2020-07-09T19:26:16.767Z</time>
      </trkpt>
      <trkpt lat="46.70337" lon="0.42138">
        <ele>64.058845</ele>
        <time>2020-07-09T19:25:57.144Z</time>
      </trkpt>
      <trkpt lat="46.70327" lon="0.4214">
        <ele>64.195559</ele>
        <time>2020-07-09T19:25:55.081Z</time>
      </trkpt>
      <trkpt lat="46.70307" lon="0.42175">
        <ele>64.590361</ele>
        <time>2020-07-09T19:25:49.198Z</time>
      </trkpt>
      <trkpt lat="46.70289" lon="0.42174">
        <ele>64.823057</ele>
        <time>2020-07-09T19:25:45.686Z</time>
      </trkpt>
      <trkpt lat="46.70286" lon="0.42172">
        <ele>64.868649</ele>
        <time>2020-07-09T19:25:45.065Z</time>
      </trkpt>
      <trkpt lat="46.70279" lon="0.4219">
        <ele>65.049603</ele>
        <time>2020-07-09T19:25:42.405Z</time>
      </trkpt>
      <trkpt lat="46.70271" lon="0.42208">
        <ele>65.242339</ele>
        <time>2020-07-09T19:25:39.594Z</time>
      </trkpt>
      <trkpt lat="46.70243" lon="0.42269">
        <ele>65.634893</ele>
        <time>2020-07-09T19:25:30.190Z</time>
      </trkpt>
      <trkpt lat="46.70238" lon="0.42281">
        <ele>65.690611</ele>
        <time>2020-07-09T19:25:28.273Z</time>
      </trkpt>
      <trkpt lat="46.70235" lon="0.42286">
        <ele>65.717664</ele>
        <time>2020-07-09T19:25:27.402Z</time>
      </trkpt>
      <trkpt lat="46.70225" lon="0.42277">
        <ele>65.786318</ele>
        <time>2020-07-09T19:25:25.026Z</time>
      </trkpt>
      <trkpt lat="46.70213" lon="0.42268">
        <ele>65.86007</ele>
        <time>2020-07-09T19:25:22.508Z</time>
      </trkpt>
      <trkpt lat="46.70208" lon="0.42273">
        <ele>65.895598</ele>
        <time>2020-07-09T19:25:21.260Z</time>
      </trkpt>
      <trkpt lat="46.70207" lon="0.42279">
        <ele>65.918701</ele>
        <time>2020-07-09T19:25:20.522Z</time>
      </trkpt>
      <trkpt lat="46.70207" lon="0.42284">
        <ele>65.937871</ele>
        <time>2020-07-09T19:25:19.799Z</time>
      </trkpt>
      <trkpt lat="46.70206" lon="0.42309">
        <ele>66.035874</ele>
        <time>2020-07-09T19:25:16.427Z</time>
      </trkpt>
      <trkpt lat="46.70076" lon="0.42585">
        <ele>66.007244</ele>
        <time>2020-07-09T19:24:23.527Z</time>
      </trkpt>
      <trkpt lat="46.70036" lon="0.4258">
        <ele>65.822506</ele>
        <time>2020-07-09T19:24:13.610Z</time>
      </trkpt>
      <trkpt lat="46.70017" lon="0.42603">
        <ele>65.634356</ele>
        <time>2020-07-09T19:24:07.286Z</time>
      </trkpt>
      <trkpt lat="46.69964" lon="0.42646">
        <ele>65.171193</ele>
        <time>2020-07-09T19:23:51.921Z</time>
      </trkpt>
      <trkpt lat="46.69955" lon="0.42651">
        <ele>65.100253</ele>
        <time>2020-07-09T19:23:49.398Z</time>
      </trkpt>
      <trkpt lat="46.69942" lon="0.42617">
        <ele>64.897069</ele>
        <time>2020-07-09T19:23:42.660Z</time>
      </trkpt>
      <trkpt lat="46.69905" lon="0.42545">
        <ele>64.481343</ele>
        <time>2020-07-09T19:23:26.876Z</time>
      </trkpt>
      <trkpt lat="46.69836" lon="0.42463">
        <ele>64.061341</ele>
        <time>2020-07-09T19:23:04.728Z</time>
      </trkpt>
      <trkpt lat="46.69796" lon="0.42386">
        <ele>63.749138</ele>
        <time>2020-07-09T19:22:49.168Z</time>
      </trkpt>
      <trkpt lat="46.69792" lon="0.42366">
        <ele>63.740643</ele>
        <time>2020-07-09T19:22:45.977Z</time>
      </trkpt>
      <trkpt lat="46.69791" lon="0.42223">
        <ele>63.948487</ele>
        <time>2020-07-09T19:22:24.553Z</time>
      </trkpt>
      <trkpt lat="46.69783" lon="0.42187">
        <ele>64.002665</ele>
        <time>2020-07-09T19:22:19.171Z</time>
      </trkpt>
      <trkpt lat="46.69643" lon="0.4222">
        <ele>64.369934</ele>
        <time>2020-07-09T19:21:49.808Z</time>
      </trkpt>
      <trkpt lat="46.69611" lon="0.42252">
        <ele>64.478119</ele>
        <time>2020-07-09T19:21:41.726Z</time>
      </trkpt>
      <trkpt lat="46.69605" lon="0.42259">
        <ele>64.5002</ele>
        <time>2020-07-09T19:21:40.154Z</time>
      </trkpt>
      <trkpt lat="46.69604" lon="0.42261">
        <ele>64.504408</ele>
        <time>2020-07-09T19:21:39.854Z</time>
      </trkpt>
      <trkpt lat="46.69577" lon="0.42202">
        <ele>64.559006</ele>
        <time>2020-07-09T19:21:28.452Z</time>
      </trkpt>
      <trkpt lat="46.69555" lon="0.42131">
        <ele>64.328091</ele>
        <time>2020-07-09T19:21:15.346Z</time>
      </trkpt>
      <trkpt lat="46.6953" lon="0.42064">
        <ele>64.102843</ele>
        <time>2020-07-09T19:21:02.225Z</time>
      </trkpt>
      <trkpt lat="46.6952" lon="0.42">
        <ele>63.909955</ele>
        <time>2020-07-09T19:20:50.464Z</time>
      </trkpt>
      <trkpt lat="46.695" lon="0.41941">
        <ele>63.70155</ele>
        <time>2020-07-09T19:20:38.545Z</time>
      </trkpt>
      <trkpt lat="46.69444" lon="0.41831">
        <ele>63.254328</ele>
        <time>2020-07-09T19:20:14.383Z</time>
      </trkpt>
      <trkpt lat="46.69409" lon="0.41746">
        <ele>62.987259</ele>
        <time>2020-07-09T19:19:58.295Z</time>
      </trkpt>
      <trkpt lat="46.69373" lon="0.41646">
        <ele>63.069984</ele>
        <time>2020-07-09T19:19:40.227Z</time>
      </trkpt>
      <trkpt lat="46.69363" lon="0.41612">
        <ele>63.09629</ele>
        <time>2020-07-09T19:19:34.639Z</time>
      </trkpt>
      <trkpt lat="46.69344" lon="0.41493">
        <ele>63.21037</ele>
        <time>2020-07-09T19:19:15.980Z</time>
      </trkpt>
      <trkpt lat="46.69296" lon="0.41167">
        <ele>64.052309</ele>
        <time>2020-07-09T19:18:24.874Z</time>
      </trkpt>
      <trkpt lat="46.69273" lon="0.41069">
        <ele>64.505323</ele>
        <time>2020-07-09T19:18:09.701Z</time>
      </trkpt>
      <trkpt lat="46.69259" lon="0.41038">
        <ele>64.670978</ele>
        <time>2020-07-09T19:18:04.216Z</time>
      </trkpt>
      <trkpt lat="46.69234" lon="0.41049">
        <ele>64.945882</ele>
        <time>2020-07-09T19:17:59.182Z</time>
      </trkpt>
      <trkpt lat="46.69162" lon="0.41104">
        <ele>66.514842</ele>
        <time>2020-07-09T19:17:43.941Z</time>
      </trkpt>
      <trkpt lat="46.69124" lon="0.41123">
        <ele>67.291922</ele>
        <time>2020-07-09T19:17:36.778Z</time>
      </trkpt>
      <trkpt lat="46.69098" lon="0.41128">
        <ele>67.801792</ele>
        <time>2020-07-09T19:17:32.113Z</time>
      </trkpt>
      <trkpt lat="46.69027" lon="0.41143">
        <ele>68.798507</ele>
        <time>2020-07-09T19:17:18.836Z</time>
      </trkpt>
      <trkpt lat="46.68976" lon="0.41182">
        <ele>69.451286</ele>
        <time>2020-07-09T19:17:07.696Z</time>
      </trkpt>
      <trkpt lat="46.68965" lon="0.41132">
        <ele>69.864209</ele>
        <time>2020-07-09T19:17:00.046Z</time>
      </trkpt>
      <trkpt lat="46.6896" lon="0.41083">
        <ele>70.245852</ele>
        <time>2020-07-09T19:16:52.686Z</time>
      </trkpt>
      <trkpt lat="46.68966" lon="0.41007">
        <ele>70.323156</ele>
        <time>2020-07-09T19:16:40.480Z</time>
      </trkpt>
      <trkpt lat="46.68982" lon="0.40914">
        <ele>70.364939</ele>
        <time>2020-07-09T19:16:23.861Z</time>
      </trkpt>
      <trkpt lat="46.6898" lon="0.40913">
        <ele>70.366392</ele>
        <time>2020-07-09T19:16:23.486Z</time>
      </trkpt>
      <trkpt lat="46.68927" lon="0.40898">
        <ele>70.400523</ele>
        <time>2020-07-09T19:16:11.175Z</time>
      </trkpt>
      <trkpt lat="46.68755" lon="0.40816">
        <ele>71.560765</ele>
        <time>2020-07-09T19:15:33.702Z</time>
      </trkpt>
      <trkpt lat="46.6854" lon="0.40681">
        <ele>72.753097</ele>
        <time>2020-07-09T19:14:43.939Z</time>
      </trkpt>
      <trkpt lat="46.68443" lon="0.40599">
        <ele>72.910991</ele>
        <time>2020-07-09T19:14:17.508Z</time>
      </trkpt>
      <trkpt lat="46.68392" lon="0.40562">
        <ele>73.127035</ele>
        <time>2020-07-09T19:14:04.495Z</time>
      </trkpt>
      <trkpt lat="46.68365" lon="0.4055">
        <ele>73.280574</ele>
        <time>2020-07-09T19:13:58.050Z</time>
      </trkpt>
      <trkpt lat="46.68336" lon="0.40541">
        <ele>73.439078</ele>
        <time>2020-07-09T19:13:51.497Z</time>
      </trkpt>
      <trkpt lat="46.68295" lon="0.40524">
        <ele>73.666322</ele>
        <time>2020-07-09T19:13:42.598Z</time>
      </trkpt>
      <trkpt lat="46.6825" lon="0.40488">
        <ele>74.032715</ele>
        <time>2020-07-09T19:13:32.143Z</time>
      </trkpt>
      <trkpt lat="46.68168" lon="0.40381">
        <ele>76.032059</ele>
        <time>2020-07-09T19:13:11.347Z</time>
      </trkpt>
      <trkpt lat="46.68074" lon="0.4028">
        <ele>78.663294</ele>
        <time>2020-07-09T19:12:50.219Z</time>
      </trkpt>
      <trkpt lat="46.68036" lon="0.40229">
        <ele>80.078384</ele>
        <time>2020-07-09T19:12:41.141Z</time>
      </trkpt>
      <trkpt lat="46.68027" lon="0.40214">
        <ele>80.467192</ele>
        <time>2020-07-09T19:12:38.737Z</time>
      </trkpt>
      <trkpt lat="46.67999" lon="0.40194">
        <ele>81.320524</ele>
        <time>2020-07-09T19:12:33.381Z</time>
      </trkpt>
      <trkpt lat="46.67782" lon="0.40007">
        <ele>89.981932</ele>
        <time>2020-07-09T19:11:50.967Z</time>
      </trkpt>
      <trkpt lat="46.67524" lon="0.39872">
        <ele>98.733836</ele>
        <time>2020-07-09T19:11:04.328Z</time>
      </trkpt>
      <trkpt lat="46.67437" lon="0.39807">
        <ele>100.970623</ele>
        <time>2020-07-09T19:10:46.703Z</time>
      </trkpt>
      <trkpt lat="46.67376" lon="0.39752">
        <ele>102.213825</ele>
        <time>2020-07-09T19:10:33.078Z</time>
      </trkpt>
      <trkpt lat="46.67353" lon="0.39734">
        <ele>102.671497</ele>
        <time>2020-07-09T19:10:27.925Z</time>
      </trkpt>
      <trkpt lat="46.6734" lon="0.39729">
        <ele>102.899691</ele>
        <time>2020-07-09T19:10:25.304Z</time>
      </trkpt>
      <trkpt lat="46.67334" lon="0.39727">
        <ele>103.008929</ele>
        <time>2020-07-09T19:10:24.056Z</time>
      </trkpt>
      <trkpt lat="46.67314" lon="0.3972">
        <ele>103.241819</ele>
        <time>2020-07-09T19:10:20.074Z</time>
      </trkpt>
      <trkpt lat="46.67272" lon="0.39712">
        <ele>103.601056</ele>
        <time>2020-07-09T19:10:11.548Z</time>
      </trkpt>
      <trkpt lat="46.67244" lon="0.39706">
        <ele>103.838877</ele>
        <time>2020-07-09T19:10:05.817Z</time>
      </trkpt>
      <trkpt lat="46.67229" lon="0.397">
        <ele>103.973405</ele>
        <time>2020-07-09T19:10:02.468Z</time>
      </trkpt>
      <trkpt lat="46.67166" lon="0.39676">
        <ele>104.520597</ele>
        <time>2020-07-09T19:09:48.818Z</time>
      </trkpt>
      <trkpt lat="46.67155" lon="0.3967">
        <ele>104.619699</ele>
        <time>2020-07-09T19:09:46.306Z</time>
      </trkpt>
      <trkpt lat="46.6715" lon="0.39665">
        <ele>104.653097</ele>
        <time>2020-07-09T19:09:45.124Z</time>
      </trkpt>
      <trkpt lat="46.67131" lon="0.39664">
        <ele>104.703331</ele>
        <time>2020-07-09T19:09:41.104Z</time>
      </trkpt>
      <trkpt lat="46.67015" lon="0.39629">
        <ele>105.022195</ele>
        <time>2020-07-09T19:09:15.117Z</time>
      </trkpt>
      <trkpt lat="46.66975" lon="0.39635">
        <ele>105.129089</ele>
        <time>2020-07-09T19:09:05.755Z</time>
      </trkpt>
      <trkpt lat="46.66955" lon="0.39631">
        <ele>105.100806</ele>
        <time>2020-07-09T19:09:00.755Z</time>
      </trkpt>
      <trkpt lat="46.66941" lon="0.39613">
        <ele>105.075339</ele>
        <time>2020-07-09T19:08:56.256Z</time>
      </trkpt>
      <trkpt lat="46.66935" lon="0.39607">
        <ele>105.065044</ele>
        <time>2020-07-09T19:08:54.291Z</time>
      </trkpt>
      <trkpt lat="46.669" lon="0.3959">
        <ele>105.01474</ele>
        <time>2020-07-09T19:08:45.547Z</time>
      </trkpt>
      <trkpt lat="46.6686" lon="0.39573">
        <ele>104.957234</ele>
        <time>2020-07-09T19:08:35.594Z</time>
      </trkpt>
      <trkpt lat="46.66844" lon="0.39564">
        <ele>104.933944</ele>
        <time>2020-07-09T19:08:31.638Z</time>
      </trkpt>
      <trkpt lat="46.66831" lon="0.39557">
        <ele>104.915444</ele>
        <time>2020-07-09T19:08:28.372Z</time>
      </trkpt>
      <trkpt lat="46.66786" lon="0.39538">
        <ele>104.914652</ele>
        <time>2020-07-09T19:08:17.259Z</time>
      </trkpt>
      <trkpt lat="46.66767" lon="0.39534">
        <ele>104.94214</ele>
        <time>2020-07-09T19:08:12.820Z</time>
      </trkpt>
      <trkpt lat="46.66665" lon="0.39527">
        <ele>105.084519</ele>
        <time>2020-07-09T19:07:50.566Z</time>
      </trkpt>
      <trkpt lat="46.66615" lon="0.39515">
        <ele>104.967684</ele>
        <time>2020-07-09T19:07:39.007Z</time>
      </trkpt>
      <trkpt lat="46.6659" lon="0.39508">
        <ele>104.701272</ele>
        <time>2020-07-09T19:07:32.973Z</time>
      </trkpt>
      <trkpt lat="46.6653" lon="0.39483">
        <ele>104.03029</ele>
        <time>2020-07-09T19:07:16.527Z</time>
      </trkpt>
      <trkpt lat="46.6644" lon="0.3944">
        <ele>102.688159</ele>
        <time>2020-07-09T19:06:47.943Z</time>
      </trkpt>
      <trkpt lat="46.66305" lon="0.39374">
        <ele>98.525031</ele>
        <time>2020-07-09T19:05:57.721Z</time>
      </trkpt>
      <trkpt lat="46.66185" lon="0.39323">
        <ele>93.976823</ele>
        <time>2020-07-09T19:05:10.071Z</time>
      </trkpt>
      <trkpt lat="46.66168" lon="0.39324">
        <ele>93.307882</ele>
        <time>2020-07-09T19:05:03.574Z</time>
      </trkpt>
      <trkpt lat="46.66156" lon="0.39328">
        <ele>92.863736</ele>
        <time>2020-07-09T19:04:58.574Z</time>
      </trkpt>
      <trkpt lat="46.66077" lon="0.3923">
        <ele>89.091866</ele>
        <time>2020-07-09T19:04:18.774Z</time>
      </trkpt>
      <trkpt lat="46.6601" lon="0.39138">
        <ele>85.887943</ele>
        <time>2020-07-09T19:03:45.282Z</time>
      </trkpt>
      <trkpt lat="46.65894" lon="0.39049">
        <ele>82.656152</ele>
        <time>2020-07-09T19:03:02.799Z</time>
      </trkpt>
      <trkpt lat="46.65785" lon="0.38968">
        <ele>80.483977</ele>
        <time>2020-07-09T19:02:27.726Z</time>
      </trkpt>
      <trkpt lat="46.65756" lon="0.38954">
        <ele>80.153132</ele>
        <time>2020-07-09T19:02:19.188Z</time>
      </trkpt>
      <trkpt lat="46.65631" lon="0.38927">
        <ele>78.891582</ele>
        <time>2020-07-09T19:01:47.422Z</time>
      </trkpt>
      <trkpt lat="46.65495" lon="0.38896">
        <ele>77.867806</ele>
        <time>2020-07-09T19:01:12.871Z</time>
      </trkpt>
      <trkpt lat="46.65366" lon="0.3886">
        <ele>77.267349</ele>
        <time>2020-07-09T19:00:39.330Z</time>
      </trkpt>
      <trkpt lat="46.64987" lon="0.38762">
        <ele>78.043613</ele>
        <time>2020-07-09T18:59:17.160Z</time>
      </trkpt>
      <trkpt lat="46.64951" lon="0.38745">
        <ele>78.208069</ele>
        <time>2020-07-09T18:59:10.491Z</time>
      </trkpt>
      <trkpt lat="46.6481" lon="0.38661">
        <ele>77.577945</ele>
        <time>2020-07-09T18:58:37.859Z</time>
      </trkpt>
      <trkpt lat="46.64778" lon="0.38643">
        <ele>77.410794</ele>
        <time>2020-07-09T18:58:25.725Z</time>
      </trkpt>
      <trkpt lat="46.6476" lon="0.38623">
        <ele>77.02672</ele>
        <time>2020-07-09T18:58:17.274Z</time>
      </trkpt>
      <trkpt lat="46.64752" lon="0.38607">
        <ele>76.789089</ele>
        <time>2020-07-09T18:58:13.641Z</time>
      </trkpt>
      <trkpt lat="46.64743" lon="0.38587">
        <ele>76.506978</ele>
        <time>2020-07-09T18:58:07.069Z</time>
      </trkpt>
      <trkpt lat="46.64727" lon="0.38495">
        <ele>75.377865</ele>
        <time>2020-07-09T18:57:47.467Z</time>
      </trkpt>
      <trkpt lat="46.64725" lon="0.38481">
        <ele>75.198141</ele>
        <time>2020-07-09T18:57:42.620Z</time>
      </trkpt>
      <trkpt lat="46.64722" lon="0.38461">
        <ele>74.961158</ele>
        <time>2020-07-09T18:57:39.776Z</time>
      </trkpt>
      <trkpt lat="46.64719" lon="0.3844">
        <ele>74.704834</ele>
        <time>2020-07-09T18:57:36.324Z</time>
      </trkpt>
      <trkpt lat="46.64707" lon="0.38349">
        <ele>75.004943</ele>
        <time>2020-07-09T18:57:22.508Z</time>
      </trkpt>
      <trkpt lat="46.64705" lon="0.38335">
        <ele>75.169863</ele>
        <time>2020-07-09T18:57:20.814Z</time>
      </trkpt>
      <trkpt lat="46.64703" lon="0.38327">
        <ele>75.276739</ele>
        <time>2020-07-09T18:57:18.550Z</time>
      </trkpt>
      <trkpt lat="46.64699" lon="0.38316">
        <ele>75.422964</ele>
        <time>2020-07-09T18:57:17.032Z</time>
      </trkpt>
      <trkpt lat="46.64694" lon="0.38302">
        <ele>75.602333</ele>
        <time>2020-07-09T18:57:15.446Z</time>
      </trkpt>
      <trkpt lat="46.64683" lon="0.38284">
        <ele>75.896828</ele>
        <time>2020-07-09T18:57:11.844Z</time>
      </trkpt>
      <trkpt lat="46.64674" lon="0.38273">
        <ele>76.097217</ele>
        <time>2020-07-09T18:57:09.870Z</time>
      </trkpt>
      <trkpt lat="46.64671" lon="0.38269">
        <ele>76.169121</ele>
        <time>2020-07-09T18:57:09.269Z</time>
      </trkpt>
      <trkpt lat="46.64649" lon="0.38246">
        <ele>76.629526</ele>
        <time>2020-07-09T18:57:04.956Z</time>
      </trkpt>
      <trkpt lat="46.64647" lon="0.38243">
        <ele>76.683874</ele>
        <time>2020-07-09T18:57:04.444Z</time>
      </trkpt>
      <trkpt lat="46.64639" lon="0.38235">
        <ele>76.8392</ele>
        <time>2020-07-09T18:57:03.048Z</time>
      </trkpt>
      <trkpt lat="46.64635" lon="0.38231">
        <ele>76.931142</ele>
        <time>2020-07-09T18:57:02.191Z</time>
      </trkpt>
      <trkpt lat="46.64607" lon="0.38197">
        <ele>77.484274</ele>
        <time>2020-07-09T18:56:56.033Z</time>
      </trkpt>
      <trkpt lat="46.64581" lon="0.38171">
        <ele>77.748292</ele>
        <time>2020-07-09T18:56:50.757Z</time>
      </trkpt>
      <trkpt lat="46.64457" lon="0.38058">
        <ele>78.981201</ele>
        <time>2020-07-09T18:56:18.746Z</time>
      </trkpt>
      <trkpt lat="46.64454" lon="0.38056">
        <ele>79.000575</ele>
        <time>2020-07-09T18:56:17.612Z</time>
      </trkpt>
      <trkpt lat="46.64266" lon="0.37951">
        <ele>80.115884</ele>
        <time>2020-07-09T18:55:37.252Z</time>
      </trkpt>
      <trkpt lat="46.64084" lon="0.37855">
        <ele>80.841945</ele>
        <time>2020-07-09T18:54:57.383Z</time>
      </trkpt>
      <trkpt lat="46.6397" lon="0.37768">
        <ele>80.803888</ele>
        <time>2020-07-09T18:54:27.963Z</time>
      </trkpt>
      <trkpt lat="46.63807" lon="0.37601">
        <ele>79.842868</ele>
        <time>2020-07-09T18:53:39.454Z</time>
      </trkpt>
      <trkpt lat="46.63746" lon="0.37531">
        <ele>79.380137</ele>
        <time>2020-07-09T18:53:20.052Z</time>
      </trkpt>
      <trkpt lat="46.63703" lon="0.37483">
        <ele>79.06036</ele>
        <time>2020-07-09T18:53:06.709Z</time>
      </trkpt>
      <trkpt lat="46.63412" lon="0.37248">
        <ele>77.148832</ele>
        <time>2020-07-09T18:51:46.600Z</time>
      </trkpt>
      <trkpt lat="46.63257" lon="0.37026">
        <ele>75.116476</ele>
        <time>2020-07-09T18:50:46.921Z</time>
      </trkpt>
      <trkpt lat="46.63253" lon="0.37021">
        <ele>75.062964</ele>
        <time>2020-07-09T18:50:45.485Z</time>
      </trkpt>
      <trkpt lat="46.63241" lon="0.37007">
        <ele>74.908411</ele>
        <time>2020-07-09T18:50:41.893Z</time>
      </trkpt>
      <trkpt lat="46.63198" lon="0.3696">
        <ele>75.160575</ele>
        <time>2020-07-09T18:50:30.541Z</time>
      </trkpt>
      <trkpt lat="46.63154" lon="0.36933">
        <ele>75.42974</ele>
        <time>2020-07-09T18:50:21.233Z</time>
      </trkpt>
      <trkpt lat="46.63136" lon="0.36927">
        <ele>75.533006</ele>
        <time>2020-07-09T18:50:17.577Z</time>
      </trkpt>
      <trkpt lat="46.63132" lon="0.36926">
        <ele>75.553101</ele>
        <time>2020-07-09T18:50:16.857Z</time>
      </trkpt>
      <trkpt lat="46.63121" lon="0.36923">
        <ele>75.615222</ele>
        <time>2020-07-09T18:50:14.721Z</time>
      </trkpt>
      <trkpt lat="46.63121" lon="0.36926">
        <ele>75.625066</ele>
        <time>2020-07-09T18:50:14.430Z</time>
      </trkpt>
      <trkpt lat="46.63113" lon="0.3693">
        <ele>75.672665</ele>
        <time>2020-07-09T18:50:12.784Z</time>
      </trkpt>
      <trkpt lat="46.63111" lon="0.36928">
        <ele>75.683558</ele>
        <time>2020-07-09T18:50:12.421Z</time>
      </trkpt>
      <trkpt lat="46.6311" lon="0.36926">
        <ele>75.696597</ele>
        <time>2020-07-09T18:50:11.896Z</time>
      </trkpt>
      <trkpt lat="46.6311" lon="0.36924">
        <ele>75.70299</ele>
        <time>2020-07-09T18:50:11.622Z</time>
      </trkpt>
      <trkpt lat="46.63105" lon="0.36926">
        <ele>75.73266</ele>
        <time>2020-07-09T18:50:10.631Z</time>
      </trkpt>
      <trkpt lat="46.63097" lon="0.36929">
        <ele>75.775128</ele>
        <time>2020-07-09T18:50:09.132Z</time>
      </trkpt>
      <trkpt lat="46.63091" lon="0.36932">
        <ele>75.808866</ele>
        <time>2020-07-09T18:50:08.019Z</time>
      </trkpt>
      <trkpt lat="46.63084" lon="0.36933">
        <ele>75.853075</ele>
        <time>2020-07-09T18:50:06.564Z</time>
      </trkpt>
      <trkpt lat="46.63068" lon="0.36936">
        <ele>75.895316</ele>
        <time>2020-07-09T18:50:03.367Z</time>
      </trkpt>
      <trkpt lat="46.63058" lon="0.36936">
        <ele>75.904822</ele>
        <time>2020-07-09T18:50:01.417Z</time>
      </trkpt>
      <trkpt lat="46.63051" lon="0.36933">
        <ele>75.911575</ele>
        <time>2020-07-09T18:50:00.058Z</time>
      </trkpt>
      <trkpt lat="46.63043" lon="0.36928">
        <ele>75.919821</ele>
        <time>2020-07-09T18:49:58.299Z</time>
      </trkpt>
      <trkpt lat="46.62986" lon="0.36886">
        <ele>75.979918</ele>
        <time>2020-07-09T18:49:45.181Z</time>
      </trkpt>
      <trkpt lat="46.62959" lon="0.36859">
        <ele>76.010969</ele>
        <time>2020-07-09T18:49:37.636Z</time>
      </trkpt>
      <trkpt lat="46.62826" lon="0.36675">
        <ele>75.544448</ele>
        <time>2020-07-09T18:48:50.441Z</time>
      </trkpt>
      <trkpt lat="46.62793" lon="0.36647">
        <ele>75.399686</ele>
        <time>2020-07-09T18:48:42.252Z</time>
      </trkpt>
      <trkpt lat="46.62752" lon="0.36635">
        <ele>76.032491</ele>
        <time>2020-07-09T18:48:34.314Z</time>
      </trkpt>
      <trkpt lat="46.62737" lon="0.36636">
        <ele>76.312554</ele>
        <time>2020-07-09T18:48:31.808Z</time>
      </trkpt>
      <trkpt lat="46.62726" lon="0.3664">
        <ele>76.514637</ele>
        <time>2020-07-09T18:48:29.794Z</time>
      </trkpt>
      <trkpt lat="46.62716" lon="0.36644">
        <ele>76.718724</ele>
        <time>2020-07-09T18:48:27.528Z</time>
      </trkpt>
      <trkpt lat="46.62708" lon="0.36648">
        <ele>76.867857</ele>
        <time>2020-07-09T18:48:26.207Z</time>
      </trkpt>
      <trkpt lat="46.62705" lon="0.36654">
        <ele>76.958075</ele>
        <time>2020-07-09T18:48:25.449Z</time>
      </trkpt>
      <trkpt lat="46.6269" lon="0.36661">
        <ele>77.245654</ele>
        <time>2020-07-09T18:48:22.581Z</time>
      </trkpt>
      <trkpt lat="46.6268" lon="0.36654">
        <ele>77.445332</ele>
        <time>2020-07-09T18:48:20.565Z</time>
      </trkpt>
      <trkpt lat="46.62677" lon="0.36647">
        <ele>77.548981</ele>
        <time>2020-07-09T18:48:19.692Z</time>
      </trkpt>
      <trkpt lat="46.62667" lon="0.36643">
        <ele>77.743725</ele>
        <time>2020-07-09T18:48:17.978Z</time>
      </trkpt>
      <trkpt lat="46.62656" lon="0.36639">
        <ele>77.951127</ele>
        <time>2020-07-09T18:48:15.695Z</time>
      </trkpt>
      <trkpt lat="46.62645" lon="0.36635">
        <ele>78.157098</ele>
        <time>2020-07-09T18:48:13.752Z</time>
      </trkpt>
      <trkpt lat="46.62631" lon="0.36633">
        <ele>78.416018</ele>
        <time>2020-07-09T18:48:11.500Z</time>
      </trkpt>
      <trkpt lat="46.62618" lon="0.3663">
        <ele>78.660409</ele>
        <time>2020-07-09T18:48:08.762Z</time>
      </trkpt>
      <trkpt lat="46.62602" lon="0.36625">
        <ele>78.767437</ele>
        <time>2020-07-09T18:48:06.239Z</time>
      </trkpt>
      <trkpt lat="46.62564" lon="0.36605">
        <ele>79.03025</ele>
        <time>2020-07-09T18:47:59.037Z</time>
      </trkpt>
      <trkpt lat="46.62525" lon="0.36579">
        <ele>79.303169</ele>
        <time>2020-07-09T18:47:50.688Z</time>
      </trkpt>
      <trkpt lat="46.62493" lon="0.36541">
        <ele>79.568949</ele>
        <time>2020-07-09T18:47:41.602Z</time>
      </trkpt>
      <trkpt lat="46.62464" lon="0.36474">
        <ele>79.637409</ele>
        <time>2020-07-09T18:47:27.649Z</time>
      </trkpt>
      <trkpt lat="46.62443" lon="0.36395">
        <ele>78.885528</ele>
        <time>2020-07-09T18:47:10.957Z</time>
      </trkpt>
      <trkpt lat="46.62424" lon="0.36358">
        <ele>78.477055</ele>
        <time>2020-07-09T18:47:01.875Z</time>
      </trkpt>
      <trkpt lat="46.62391" lon="0.36317">
        <ele>77.907925</ele>
        <time>2020-07-09T18:46:49.373Z</time>
      </trkpt>
      <trkpt lat="46.62267" lon="0.3623">
        <ele>76.535737</ele>
        <time>2020-07-09T18:46:13.071Z</time>
      </trkpt>
      <trkpt lat="46.6207" lon="0.36109">
        <ele>75.592081</ele>
        <time>2020-07-09T18:45:20.249Z</time>
      </trkpt>
      <trkpt lat="46.6206" lon="0.36102">
        <ele>75.571702</ele>
        <time>2020-07-09T18:45:17.863Z</time>
      </trkpt>
      <trkpt lat="46.6205" lon="0.36094">
        <ele>75.551318</ele>
        <time>2020-07-09T18:45:15.730Z</time>
      </trkpt>
      <trkpt lat="46.62006" lon="0.36054">
        <ele>76.28228</ele>
        <time>2020-07-09T18:45:05.733Z</time>
      </trkpt>
      <trkpt lat="46.61992" lon="0.36043">
        <ele>76.630525</ele>
        <time>2020-07-09T18:45:02.864Z</time>
      </trkpt>
      <trkpt lat="46.6198" lon="0.36034">
        <ele>76.934188</ele>
        <time>2020-07-09T18:45:00.339Z</time>
      </trkpt>
      <trkpt lat="46.61967" lon="0.36026">
        <ele>77.249735</ele>
        <time>2020-07-09T18:44:57.786Z</time>
      </trkpt>
      <trkpt lat="46.61934" lon="0.36006">
        <ele>78.061059</ele>
        <time>2020-07-09T18:44:51.398Z</time>
      </trkpt>
      <trkpt lat="46.61808" lon="0.3594">
        <ele>81.667539</ele>
        <time>2020-07-09T18:44:30.116Z</time>
      </trkpt>
      <trkpt lat="46.61764" lon="0.35923">
        <ele>83.108597</ele>
        <time>2020-07-09T18:44:22.703Z</time>
      </trkpt>
      <trkpt lat="46.61722" lon="0.35907">
        <ele>84.455088</ele>
        <time>2020-07-09T18:44:15.693Z</time>
      </trkpt>
      <trkpt lat="46.61532" lon="0.35845">
        <ele>88.211459</ele>
        <time>2020-07-09T18:43:41.370Z</time>
      </trkpt>
      <trkpt lat="46.61496" lon="0.35827">
        <ele>88.38431</ele>
        <time>2020-07-09T18:43:33.275Z</time>
      </trkpt>
      <trkpt lat="46.61244" lon="0.3564">
        <ele>89.513061</ele>
        <time>2020-07-09T18:42:28.141Z</time>
      </trkpt>
      <trkpt lat="46.61155" lon="0.35591">
        <ele>92.051202</ele>
        <time>2020-07-09T18:42:12.349Z</time>
      </trkpt>
      <trkpt lat="46.61183" lon="0.3564">
        <ele>94.009808</ele>
        <time>2020-07-09T18:42:05.703Z</time>
      </trkpt>
      <trkpt lat="46.61323" lon="0.3582">
        <ele>102.680546</ele>
        <time>2020-07-09T18:41:37.812Z</time>
      </trkpt>
      <trkpt lat="46.61358" lon="0.35885">
        <ele>105.344301</ele>
        <time>2020-07-09T18:41:29.089Z</time>
      </trkpt>
      <trkpt lat="46.61363" lon="0.35912">
        <ele>106.249236</ele>
        <time>2020-07-09T18:41:25.886Z</time>
      </trkpt>
      <trkpt lat="46.61363" lon="0.3593">
        <ele>106.625722</ele>
        <time>2020-07-09T18:41:23.943Z</time>
      </trkpt>
      <trkpt lat="46.61338" lon="0.35944">
        <ele>107.08193</ele>
        <time>2020-07-09T18:41:19.366Z</time>
      </trkpt>
      <trkpt lat="46.61316" lon="0.35965">
        <ele>107.522592</ele>
        <time>2020-07-09T18:41:14.962Z</time>
      </trkpt>
      <trkpt lat="46.6129" lon="0.35982">
        <ele>108.021572</ele>
        <time>2020-07-09T18:41:09.776Z</time>
      </trkpt>
      <trkpt lat="46.61274" lon="0.35988">
        <ele>108.299703</ele>
        <time>2020-07-09T18:41:06.558Z</time>
      </trkpt>
      <trkpt lat="46.61216" lon="0.36">
        <ele>109.304085</ele>
        <time>2020-07-09T18:40:55.489Z</time>
      </trkpt>
      <trkpt lat="46.61174" lon="0.35999">
        <ele>109.637081</ele>
        <time>2020-07-09T18:40:46.315Z</time>
      </trkpt>
      <trkpt lat="46.61146" lon="0.35995">
        <ele>109.705985</ele>
        <time>2020-07-09T18:40:39.751Z</time>
      </trkpt>
      <trkpt lat="46.6113" lon="0.35993">
        <ele>109.745963</ele>
        <time>2020-07-09T18:40:35.722Z</time>
      </trkpt>
      <trkpt lat="46.61115" lon="0.35991">
        <ele>109.78325</ele>
        <time>2020-07-09T18:40:32.148Z</time>
      </trkpt>
      <trkpt lat="46.61111" lon="0.35991">
        <ele>109.791324</ele>
        <time>2020-07-09T18:40:31.345Z</time>
      </trkpt>
      <trkpt lat="46.61109" lon="0.3599">
        <ele>109.797694</ele>
        <time>2020-07-09T18:40:30.806Z</time>
      </trkpt>
      <trkpt lat="46.60971" lon="0.35984">
        <ele>110.485864</ele>
        <time>2020-07-09T18:40:02.158Z</time>
      </trkpt>
      <trkpt lat="46.60948" lon="0.35986">
        <ele>110.702447</ele>
        <time>2020-07-09T18:39:57.841Z</time>
      </trkpt>
      <trkpt lat="46.60946" lon="0.35986">
        <ele>110.719541</ele>
        <time>2020-07-09T18:39:57.513Z</time>
      </trkpt>
      <trkpt lat="46.60912" lon="0.3607">
        <ele>111.357542</ele>
        <time>2020-07-09T18:39:44.860Z</time>
      </trkpt>
      <trkpt lat="46.60869" lon="0.36176">
        <ele>111.864219</ele>
        <time>2020-07-09T18:39:28.868Z</time>
      </trkpt>
      <trkpt lat="46.60865" lon="0.36186">
        <ele>111.888737</ele>
        <time>2020-07-09T18:39:27.278Z</time>
      </trkpt>
      <trkpt lat="46.60843" lon="0.36235">
        <ele>112.014377</ele>
        <time>2020-07-09T18:39:18.767Z</time>
      </trkpt>
      <trkpt lat="46.60836" lon="0.36255">
        <ele>112.061824</ele>
        <time>2020-07-09T18:39:15.478Z</time>
      </trkpt>
      <trkpt lat="46.60831" lon="0.36244">
        <ele>112.089811</ele>
        <time>2020-07-09T18:39:13.496Z</time>
      </trkpt>
      <trkpt lat="46.60817" lon="0.36222">
        <ele>112.1543</ele>
        <time>2020-07-09T18:39:08.740Z</time>
      </trkpt>
      <trkpt lat="46.60804" lon="0.36201">
        <ele>112.213982</ele>
        <time>2020-07-09T18:39:04.273Z</time>
      </trkpt>
      <trkpt lat="46.60755" lon="0.36118">
        <ele>111.8914</ele>
        <time>2020-07-09T18:38:45.653Z</time>
      </trkpt>
      <trkpt lat="46.60709" lon="0.36043">
        <ele>111.396973</ele>
        <time>2020-07-09T18:38:28.012Z</time>
      </trkpt>
      <trkpt lat="46.60688" lon="0.36013">
        <ele>111.187038</ele>
        <time>2020-07-09T18:38:20.233Z</time>
      </trkpt>
      <trkpt lat="46.60675" lon="0.35993">
        <ele>111.049887</ele>
        <time>2020-07-09T18:38:15.297Z</time>
      </trkpt>
      <trkpt lat="46.60674" lon="0.35996">
        <ele>111.035198</ele>
        <time>2020-07-09T18:38:14.820Z</time>
      </trkpt>
      <trkpt lat="46.60668" lon="0.36002">
        <ele>110.989797</ele>
        <time>2020-07-09T18:38:12.921Z</time>
      </trkpt>
      <trkpt lat="46.60662" lon="0.35999">
        <ele>110.993536</ele>
        <time>2020-07-09T18:38:11.472Z</time>
      </trkpt>
      <trkpt lat="46.60661" lon="0.35996">
        <ele>110.995444</ele>
        <time>2020-07-09T18:38:10.765Z</time>
      </trkpt>
      <trkpt lat="46.60638" lon="0.3601">
        <ele>111.011508</ele>
        <time>2020-07-09T18:38:04.992Z</time>
      </trkpt>
      <trkpt lat="46.6058" lon="0.36045">
        <ele>111.052913</ele>
        <time>2020-07-09T18:37:50.633Z</time>
      </trkpt>
      <trkpt lat="46.60549" lon="0.36065">
        <ele>111.075694</ele>
        <time>2020-07-09T18:37:43.372Z</time>
      </trkpt>
      <trkpt lat="46.60469" lon="0.36113">
        <ele>111.505621</ele>
        <time>2020-07-09T18:37:26.016Z</time>
      </trkpt>
      <trkpt lat="46.60446" lon="0.36124">
        <ele>111.76082</ele>
        <time>2020-07-09T18:37:21.223Z</time>
      </trkpt>
      <trkpt lat="46.60433" lon="0.36128">
        <ele>111.903466</ele>
        <time>2020-07-09T18:37:18.712Z</time>
      </trkpt>
      <trkpt lat="46.60423" lon="0.36131">
        <ele>112.013543</ele>
        <time>2020-07-09T18:37:16.749Z</time>
      </trkpt>
      <trkpt lat="46.60373" lon="0.36144">
        <ele>112.550936</ele>
        <time>2020-07-09T18:37:07.156Z</time>
      </trkpt>
      <trkpt lat="46.60364" lon="0.36146">
        <ele>112.654518</ele>
        <time>2020-07-09T18:37:05.396Z</time>
      </trkpt>
      <trkpt lat="46.60364" lon="0.36149">
        <ele>112.674501</ele>
        <time>2020-07-09T18:37:05.067Z</time>
      </trkpt>
      <trkpt lat="46.60361" lon="0.3616">
        <ele>112.758154</ele>
        <time>2020-07-09T18:37:03.613Z</time>
      </trkpt>
      <trkpt lat="46.60359" lon="0.36162">
        <ele>112.785668</ele>
        <time>2020-07-09T18:37:03.164Z</time>
      </trkpt>
      <trkpt lat="46.60356" lon="0.36163">
        <ele>112.818397</ele>
        <time>2020-07-09T18:37:02.564Z</time>
      </trkpt>
      <trkpt lat="46.60351" lon="0.36162">
        <ele>112.880596</ele>
        <time>2020-07-09T18:37:01.442Z</time>
      </trkpt>
      <trkpt lat="46.60349" lon="0.36161">
        <ele>112.902652</ele>
        <time>2020-07-09T18:37:01.043Z</time>
      </trkpt>
      <trkpt lat="46.60345" lon="0.36175">
        <ele>113.013594</ele>
        <time>2020-07-09T18:36:59.108Z</time>
      </trkpt>
      <trkpt lat="46.60313" lon="0.36295">
        <ele>113.7967</ele>
        <time>2020-07-09T18:36:41.832Z</time>
      </trkpt>
      <trkpt lat="46.60282" lon="0.3641">
        <ele>114.546943</ele>
        <time>2020-07-09T18:36:23.719Z</time>
      </trkpt>
      <trkpt lat="46.60218" lon="0.36374">
        <ele>114.629731</ele>
        <time>2020-07-09T18:36:07.454Z</time>
      </trkpt>
      <trkpt lat="46.60129" lon="0.36326">
        <ele>114.66357</ele>
        <time>2020-07-09T18:35:45.526Z</time>
      </trkpt>
      <trkpt lat="46.60123" lon="0.36325">
        <ele>114.66591</ele>
        <time>2020-07-09T18:35:43.942Z</time>
      </trkpt>
      <trkpt lat="46.6012" lon="0.36327">
        <ele>114.667179</ele>
        <time>2020-07-09T18:35:42.808Z</time>
      </trkpt>
      <trkpt lat="46.60116" lon="0.3633">
        <ele>114.668632</ele>
        <time>2020-07-09T18:35:41.881Z</time>
      </trkpt>
      <trkpt lat="46.60111" lon="0.36327">
        <ele>114.670615</ele>
        <time>2020-07-09T18:35:40.355Z</time>
      </trkpt>
      <trkpt lat="46.60094" lon="0.36314">
        <ele>114.746415</ele>
        <time>2020-07-09T18:35:34.822Z</time>
      </trkpt>
      <trkpt lat="46.60089" lon="0.3631">
        <ele>114.775211</ele>
        <time>2020-07-09T18:35:30.844Z</time>
      </trkpt>
      <trkpt lat="46.6005" lon="0.36336">
        <ele>114.986267</ele>
        <time>2020-07-09T18:35:22.058Z</time>
      </trkpt>
      <trkpt lat="46.60034" lon="0.36347">
        <ele>115.077101</ele>
        <time>2020-07-09T18:35:18.390Z</time>
      </trkpt>
      <trkpt lat="46.60006" lon="0.36366">
        <ele>115.229076</ele>
        <time>2020-07-09T18:35:12.206Z</time>
      </trkpt>
      <trkpt lat="46.59957" lon="0.36395">
        <ele>115.491305</ele>
        <time>2020-07-09T18:35:01.475Z</time>
      </trkpt>
      <trkpt lat="46.59951" lon="0.36392">
        <ele>115.521294</ele>
        <time>2020-07-09T18:35:00.356Z</time>
      </trkpt>
      <trkpt lat="46.59943" lon="0.36388">
        <ele>115.566561</ele>
        <time>2020-07-09T18:34:58.625Z</time>
      </trkpt>
      <trkpt lat="46.59922" lon="0.3638">
        <ele>115.69105</ele>
        <time>2020-07-09T18:34:54.174Z</time>
      </trkpt>
      <trkpt lat="46.5992" lon="0.36382">
        <ele>115.70661</ele>
        <time>2020-07-09T18:34:53.708Z</time>
      </trkpt>
      <trkpt lat="46.59913" lon="0.36392">
        <ele>115.762551</ele>
        <time>2020-07-09T18:34:51.835Z</time>
      </trkpt>
      <trkpt lat="46.59894" lon="0.36438">
        <ele>115.984126</ele>
        <time>2020-07-09T18:34:44.313Z</time>
      </trkpt>
      <trkpt lat="46.59862" lon="0.36459">
        <ele>116.188158</ele>
        <time>2020-07-09T18:34:37.293Z</time>
      </trkpt>
      <trkpt lat="46.59846" lon="0.36469">
        <ele>116.293696</ele>
        <time>2020-07-09T18:34:33.589Z</time>
      </trkpt>
      <trkpt lat="46.59841" lon="0.36475">
        <ele>116.329967</ele>
        <time>2020-07-09T18:34:32.336Z</time>
      </trkpt>
      <trkpt lat="46.59838" lon="0.3648">
        <ele>116.357194</ele>
        <time>2020-07-09T18:34:31.472Z</time>
      </trkpt>
      <trkpt lat="46.59835" lon="0.36484">
        <ele>116.378426</ele>
        <time>2020-07-09T18:34:30.739Z</time>
      </trkpt>
      <trkpt lat="46.59834" lon="0.36482">
        <ele>116.386789</ele>
        <time>2020-07-09T18:34:30.471Z</time>
      </trkpt>
      <trkpt lat="46.59833" lon="0.36481">
        <ele>116.398022</ele>
        <time>2020-07-09T18:34:30.079Z</time>
      </trkpt>
      <trkpt lat="46.59829" lon="0.36479">
        <ele>116.422709</ele>
        <time>2020-07-09T18:34:29.283Z</time>
      </trkpt>
      <trkpt lat="46.59827" lon="0.36478">
        <ele>116.435268</ele>
        <time>2020-07-09T18:34:28.859Z</time>
      </trkpt>
      <trkpt lat="46.59826" lon="0.36478">
        <ele>116.43942</ele>
        <time>2020-07-09T18:34:28.652Z</time>
      </trkpt>
      <trkpt lat="46.59812" lon="0.3649">
        <ele>116.53399</ele>
        <time>2020-07-09T18:34:25.288Z</time>
      </trkpt>
      <trkpt lat="46.59811" lon="0.36492">
        <ele>116.545543</ele>
        <time>2020-07-09T18:34:24.885Z</time>
      </trkpt>
      <trkpt lat="46.59805" lon="0.36489">
        <ele>116.582705</ele>
        <time>2020-07-09T18:34:23.520Z</time>
      </trkpt>
      <trkpt lat="46.59737" lon="0.36451">
        <ele>116.987066</ele>
        <time>2020-07-09T18:34:07.608Z</time>
      </trkpt>
      <trkpt lat="46.59709" lon="0.36437">
        <ele>117.155119</ele>
        <time>2020-07-09T18:34:01.172Z</time>
      </trkpt>
      <trkpt lat="46.59689" lon="0.36427">
        <ele>117.267009</ele>
        <time>2020-07-09T18:33:56.939Z</time>
      </trkpt>
      <trkpt lat="46.59674" lon="0.36421">
        <ele>117.354166</ele>
        <time>2020-07-09T18:33:53.554Z</time>
      </trkpt>
      <trkpt lat="46.59639" lon="0.36411">
        <ele>117.55022</ele>
        <time>2020-07-09T18:33:46.135Z</time>
      </trkpt>
      <trkpt lat="46.59598" lon="0.36397">
        <ele>117.964659</ele>
        <time>2020-07-09T18:33:37.008Z</time>
      </trkpt>
      <trkpt lat="46.59593" lon="0.36396">
        <ele>118.030459</ele>
        <time>2020-07-09T18:33:35.752Z</time>
      </trkpt>
      <trkpt lat="46.59591" lon="0.36395">
        <ele>118.05321</ele>
        <time>2020-07-09T18:33:35.348Z</time>
      </trkpt>
      <trkpt lat="46.59586" lon="0.36391">
        <ele>118.110513</ele>
        <time>2020-07-09T18:33:34.277Z</time>
      </trkpt>
      <trkpt lat="46.59583" lon="0.36388">
        <ele>118.15098</ele>
        <time>2020-07-09T18:33:33.555Z</time>
      </trkpt>
      <trkpt lat="46.59576" lon="0.3638">
        <ele>118.258882</ele>
        <time>2020-07-09T18:33:31.414Z</time>
      </trkpt>
      <trkpt lat="46.59552" lon="0.36359">
        <ele>118.581404</ele>
        <time>2020-07-09T18:33:25.860Z</time>
      </trkpt>
      <trkpt lat="46.59533" lon="0.3635">
        <ele>118.815006</ele>
        <time>2020-07-09T18:33:21.797Z</time>
      </trkpt>
      <trkpt lat="46.59504" lon="0.36345">
        <ele>119.149241</ele>
        <time>2020-07-09T18:33:16.138Z</time>
      </trkpt>
      <trkpt lat="46.59481" lon="0.3635">
        <ele>119.418353</ele>
        <time>2020-07-09T18:33:11.787Z</time>
      </trkpt>
      <trkpt lat="46.5947" lon="0.36354">
        <ele>119.547655</ele>
        <time>2020-07-09T18:33:09.477Z</time>
      </trkpt>
      <trkpt lat="46.59467" lon="0.36355">
        <ele>119.581014</ele>
        <time>2020-07-09T18:33:09.011Z</time>
      </trkpt>
      <trkpt lat="46.59458" lon="0.36356">
        <ele>119.684684</ele>
        <time>2020-07-09T18:33:07.333Z</time>
      </trkpt>
      <trkpt lat="46.59434" lon="0.36348">
        <ele>120.210213</ele>
        <time>2020-07-09T18:33:02.683Z</time>
      </trkpt>
      <trkpt lat="46.59415" lon="0.36343">
        <ele>120.618369</ele>
        <time>2020-07-09T18:32:59.284Z</time>
      </trkpt>
      <trkpt lat="46.59378" lon="0.36332">
        <ele>121.435264</ele>
        <time>2020-07-09T18:32:52.350Z</time>
      </trkpt>
      <trkpt lat="46.59375" lon="0.36331">
        <ele>121.505402</ele>
        <time>2020-07-09T18:32:51.745Z</time>
      </trkpt>
      <trkpt lat="46.59362" lon="0.36327">
        <ele>121.786528</ele>
        <time>2020-07-09T18:32:49.280Z</time>
      </trkpt>
      <trkpt lat="46.59361" lon="0.36332">
        <ele>121.857255</ele>
        <time>2020-07-09T18:32:48.724Z</time>
      </trkpt>
      <trkpt lat="46.59354" lon="0.3634">
        <ele>122.050848</ele>
        <time>2020-07-09T18:32:47.171Z</time>
      </trkpt>
      <trkpt lat="46.59352" lon="0.36341">
        <ele>122.098766</ele>
        <time>2020-07-09T18:32:46.811Z</time>
      </trkpt>
      <trkpt lat="46.59351" lon="0.36341">
        <ele>122.120285</ele>
        <time>2020-07-09T18:32:46.635Z</time>
      </trkpt>
      <trkpt lat="46.59341" lon="0.36327">
        <ele>122.416992</ele>
        <time>2020-07-09T18:32:44.017Z</time>
      </trkpt>
      <trkpt lat="46.59341" lon="0.36324">
        <ele>122.464362</ele>
        <time>2020-07-09T18:32:43.607Z</time>
      </trkpt>
      <trkpt lat="46.59321" lon="0.36315">
        <ele>122.905501</ele>
        <time>2020-07-09T18:32:40.272Z</time>
      </trkpt>
      <trkpt lat="46.59267" lon="0.3628">
        <ele>123.803063</ele>
        <time>2020-07-09T18:32:30.092Z</time>
      </trkpt>
      <trkpt lat="46.59257" lon="0.36274">
        <ele>123.899503</ele>
        <time>2020-07-09T18:32:28.149Z</time>
      </trkpt>
      <trkpt lat="46.59228" lon="0.36256">
        <ele>124.173496</ele>
        <time>2020-07-09T18:32:22.130Z</time>
      </trkpt>
      <trkpt lat="46.59191" lon="0.36233">
        <ele>124.514069</ele>
        <time>2020-07-09T18:32:14.437Z</time>
      </trkpt>
      <trkpt lat="46.59168" lon="0.36216">
        <ele>124.738473</ele>
        <time>2020-07-09T18:32:08.574Z</time>
      </trkpt>
      <trkpt lat="46.59158" lon="0.36209">
        <ele>124.835113</ele>
        <time>2020-07-09T18:32:06.315Z</time>
      </trkpt>
      <trkpt lat="46.59143" lon="0.36197">
        <ele>124.979612</ele>
        <time>2020-07-09T18:32:02.180Z</time>
      </trkpt>
      <trkpt lat="46.59063" lon="0.36112">
        <ele>124.52571</ele>
        <time>2020-07-09T18:31:37.487Z</time>
      </trkpt>
      <trkpt lat="46.59051" lon="0.36096">
        <ele>124.412483</ele>
        <time>2020-07-09T18:31:33.266Z</time>
      </trkpt>
      <trkpt lat="46.59043" lon="0.36086">
        <ele>124.341645</ele>
        <time>2020-07-09T18:31:30.614Z</time>
      </trkpt>
      <trkpt lat="46.59037" lon="0.36079">
        <ele>124.288861</ele>
        <time>2020-07-09T18:31:28.404Z</time>
      </trkpt>
      <trkpt lat="46.59017" lon="0.36057">
        <ele>124.118364</ele>
        <time>2020-07-09T18:31:21.919Z</time>
      </trkpt>
      <trkpt lat="46.59001" lon="0.36041">
        <ele>123.985746</ele>
        <time>2020-07-09T18:31:16.945Z</time>
      </trkpt>
      <trkpt lat="46.58984" lon="0.36025">
        <ele>123.839978</ele>
        <time>2020-07-09T18:31:12.122Z</time>
      </trkpt>
      <trkpt lat="46.58953" lon="0.36">
        <ele>123.546613</ele>
        <time>2020-07-09T18:31:03.410Z</time>
      </trkpt>
      <trkpt lat="46.58948" lon="0.35995">
        <ele>123.494356</ele>
        <time>2020-07-09T18:31:01.831Z</time>
      </trkpt>
      <trkpt lat="46.58943" lon="0.36013">
        <ele>123.384231</ele>
        <time>2020-07-09T18:30:58.243Z</time>
      </trkpt>
      <trkpt lat="46.58941" lon="0.36021">
        <ele>123.337265</ele>
        <time>2020-07-09T18:30:57.051Z</time>
      </trkpt>
      <trkpt lat="46.58933" lon="0.36044">
        <ele>123.185931</ele>
        <time>2020-07-09T18:30:52.457Z</time>
      </trkpt>
      <trkpt lat="46.58898" lon="0.36135">
        <ele>122.581083</ele>
        <time>2020-07-09T18:30:34.260Z</time>
      </trkpt>
      <trkpt lat="46.58896" lon="0.3614">
        <ele>122.55094</ele>
        <time>2020-07-09T18:30:33.093Z</time>
      </trkpt>
      <trkpt lat="46.58869" lon="0.36209">
        <ele>121.848394</ele>
        <time>2020-07-09T18:30:18.644Z</time>
      </trkpt>
      <trkpt lat="46.58862" lon="0.36226">
        <ele>121.638274</ele>
        <time>2020-07-09T18:30:15.387Z</time>
      </trkpt>
      <trkpt lat="46.58856" lon="0.36243">
        <ele>121.426434</ele>
        <time>2020-07-09T18:30:11.285Z</time>
      </trkpt>
      <trkpt lat="46.58822" lon="0.36329">
        <ele>120.350137</ele>
        <time>2020-07-09T18:29:51.428Z</time>
      </trkpt>
      <trkpt lat="46.58816" lon="0.36344">
        <ele>120.163562</ele>
        <time>2020-07-09T18:29:47.619Z</time>
      </trkpt>
      <trkpt lat="46.58788" lon="0.36415">
        <ele>119.203007</ele>
        <time>2020-07-09T18:29:30.790Z</time>
      </trkpt>
      <trkpt lat="46.58783" lon="0.36423">
        <ele>119.05423</ele>
        <time>2020-07-09T18:29:28.262Z</time>
      </trkpt>
      <trkpt lat="46.58765" lon="0.36453">
        <ele>118.502158</ele>
        <time>2020-07-09T18:29:20.608Z</time>
      </trkpt>
      <trkpt lat="46.58756" lon="0.36462">
        <ele>118.283524</ele>
        <time>2020-07-09T18:29:17.276Z</time>
      </trkpt>
      <trkpt lat="46.58754" lon="0.36464">
        <ele>118.240274</ele>
        <time>2020-07-09T18:29:16.620Z</time>
      </trkpt>
      <trkpt lat="46.5871" lon="0.36512">
        <ele>117.121015</ele>
        <time>2020-07-09T18:28:59.835Z</time>
      </trkpt>
      <trkpt lat="46.58699" lon="0.36524">
        <ele>116.856625</ele>
        <time>2020-07-09T18:28:55.894Z</time>
      </trkpt>
      <trkpt lat="46.58635" lon="0.36588">
        <ele>115.150288</ele>
        <time>2020-07-09T18:28:32.167Z</time>
      </trkpt>
      <trkpt lat="46.58627" lon="0.36594">
        <ele>114.93179</ele>
        <time>2020-07-09T18:28:29.261Z</time>
      </trkpt>
      <trkpt lat="46.58591" lon="0.36609">
        <ele>114.009495</ele>
        <time>2020-07-09T18:28:17.433Z</time>
      </trkpt>
      <trkpt lat="46.58573" lon="0.36617">
        <ele>113.527714</ele>
        <time>2020-07-09T18:28:11.223Z</time>
      </trkpt>
      <trkpt lat="46.58566" lon="0.3662">
        <ele>113.357473</ele>
        <time>2020-07-09T18:28:09.017Z</time>
      </trkpt>
      <trkpt lat="46.58546" lon="0.36628">
        <ele>112.842504</ele>
        <time>2020-07-09T18:28:01.945Z</time>
      </trkpt>
      <trkpt lat="46.58525" lon="0.36637">
        <ele>112.292917</ele>
        <time>2020-07-09T18:27:54.676Z</time>
      </trkpt>
      <trkpt lat="46.58512" lon="0.36643">
        <ele>111.976158</ele>
        <time>2020-07-09T18:27:50.280Z</time>
      </trkpt>
      <trkpt lat="46.58464" lon="0.36664">
        <ele>110.762594</ele>
        <time>2020-07-09T18:27:33.324Z</time>
      </trkpt>
      <trkpt lat="46.58448" lon="0.36671">
        <ele>110.384271</ele>
        <time>2020-07-09T18:27:28.092Z</time>
      </trkpt>
      <trkpt lat="46.58412" lon="0.36688">
        <ele>109.482675</ele>
        <time>2020-07-09T18:27:15.516Z</time>
      </trkpt>
      <trkpt lat="46.58409" lon="0.36689">
        <ele>109.417834</ele>
        <time>2020-07-09T18:27:14.350Z</time>
      </trkpt>
      <trkpt lat="46.58264" lon="0.36767">
        <ele>106.534223</ele>
        <time>2020-07-09T18:26:27.588Z</time>
      </trkpt>
      <trkpt lat="46.58246" lon="0.36776">
        <ele>106.304654</ele>
        <time>2020-07-09T18:26:22.226Z</time>
      </trkpt>
      <trkpt lat="46.58229" lon="0.36786">
        <ele>106.092549</ele>
        <time>2020-07-09T18:26:17.364Z</time>
      </trkpt>
      <trkpt lat="46.58215" lon="0.36794">
        <ele>105.917978</ele>
        <time>2020-07-09T18:26:13.379Z</time>
      </trkpt>
      <trkpt lat="46.58205" lon="0.368">
        <ele>105.796432</ele>
        <time>2020-07-09T18:26:10.686Z</time>
      </trkpt>
      <trkpt lat="46.58195" lon="0.36805">
        <ele>105.677038</ele>
        <time>2020-07-09T18:26:08.045Z</time>
      </trkpt>
      <trkpt lat="46.58186" lon="0.3681">
        <ele>105.565368</ele>
        <time>2020-07-09T18:26:05.641Z</time>
      </trkpt>
      <trkpt lat="46.5818" lon="0.36813">
        <ele>105.492753</ele>
        <time>2020-07-09T18:26:04.360Z</time>
      </trkpt>
      <trkpt lat="46.58124" lon="0.36841">
        <ele>105.254916</ele>
        <time>2020-07-09T18:25:50.509Z</time>
      </trkpt>
      <trkpt lat="46.58087" lon="0.36861">
        <ele>105.37124</ele>
        <time>2020-07-09T18:25:42.183Z</time>
      </trkpt>
      <trkpt lat="46.58077" lon="0.36866">
        <ele>105.405198</ele>
        <time>2020-07-09T18:25:40.032Z</time>
      </trkpt>
      <trkpt lat="46.58073" lon="0.36849">
        <ele>105.44373</ele>
        <time>2020-07-09T18:25:37.305Z</time>
      </trkpt>
      <trkpt lat="46.5807" lon="0.36839">
        <ele>105.465703</ele>
        <time>2020-07-09T18:25:35.624Z</time>
      </trkpt>
      <trkpt lat="46.58066" lon="0.36825">
        <ele>105.496217</ele>
        <time>2020-07-09T18:25:33.254Z</time>
      </trkpt>
      <trkpt lat="46.58063" lon="0.36825">
        <ele>105.504588</ele>
        <time>2020-07-09T18:25:32.767Z</time>
      </trkpt>
      <trkpt lat="46.57991" lon="0.36795">
        <ele>105.760482</ele>
        <time>2020-07-09T18:25:16.793Z</time>
      </trkpt>
      <trkpt lat="46.57981" lon="0.36783">
        <ele>105.839778</ele>
        <time>2020-07-09T18:25:13.898Z</time>
      </trkpt>
      <trkpt lat="46.57979" lon="0.36765">
        <ele>105.918787</ele>
        <time>2020-07-09T18:25:10.839Z</time>
      </trkpt>
      <trkpt lat="46.57982" lon="0.36728">
        <ele>106.076418</ele>
        <time>2020-07-09T18:25:05.473Z</time>
      </trkpt>
      <trkpt lat="46.57983" lon="0.36713">
        <ele>106.13658</ele>
        <time>2020-07-09T18:25:03.116Z</time>
      </trkpt>
      <trkpt lat="46.5799" lon="0.36661">
        <ele>106.360075</ele>
        <time>2020-07-09T18:24:55.438Z</time>
      </trkpt>
      <trkpt lat="46.58021" lon="0.36619">
        <ele>106.622126</ele>
        <time>2020-07-09T18:24:46.475Z</time>
      </trkpt>
      <trkpt lat="46.58027" lon="0.36602">
        <ele>106.704631</ele>
        <time>2020-07-09T18:24:43.694Z</time>
      </trkpt>
      <trkpt lat="46.58025" lon="0.36596">
        <ele>106.730978</ele>
        <time>2020-07-09T18:24:42.857Z</time>
      </trkpt>
      <trkpt lat="46.58025" lon="0.3659">
        <ele>106.757314</ele>
        <time>2020-07-09T18:24:41.988Z</time>
      </trkpt>
      <trkpt lat="46.58026" lon="0.36584">
        <ele>106.78336</ele>
        <time>2020-07-09T18:24:41.039Z</time>
      </trkpt>
      <trkpt lat="46.5802" lon="0.36578">
        <ele>106.855214</ele>
        <time>2020-07-09T18:24:39.579Z</time>
      </trkpt>
      <trkpt lat="46.58014" lon="0.36569">
        <ele>106.954428</ele>
        <time>2020-07-09T18:24:37.989Z</time>
      </trkpt>
      <trkpt lat="46.58" lon="0.36544">
        <ele>107.234667</ele>
        <time>2020-07-09T18:24:33.441Z</time>
      </trkpt>
      <trkpt lat="46.57995" lon="0.36534">
        <ele>107.331389</ele>
        <time>2020-07-09T18:24:31.933Z</time>
      </trkpt>
      <trkpt lat="46.57984" lon="0.36515">
        <ele>107.5396</ele>
        <time>2020-07-09T18:24:28.673Z</time>
      </trkpt>
      <trkpt lat="46.5798" lon="0.36509">
        <ele>107.610276</ele>
        <time>2020-07-09T18:24:27.621Z</time>
      </trkpt>
      <trkpt lat="46.57977" lon="0.36504">
        <ele>107.668318</ele>
        <time>2020-07-09T18:24:26.685Z</time>
      </trkpt>
      <trkpt lat="46.57975" lon="0.365">
        <ele>107.706238</ele>
        <time>2020-07-09T18:24:26.065Z</time>
      </trkpt>
      <trkpt lat="46.5797" lon="0.36492">
        <ele>107.799696</ele>
        <time>2020-07-09T18:24:24.499Z</time>
      </trkpt>
      <trkpt lat="46.57938" lon="0.36442">
        <ele>108.377223</ele>
        <time>2020-07-09T18:24:15.314Z</time>
      </trkpt>
      <trkpt lat="46.57917" lon="0.36411">
        <ele>108.741574</ele>
        <time>2020-07-09T18:24:09.532Z</time>
      </trkpt>
      <trkpt lat="46.57904" lon="0.36395">
        <ele>108.956255</ele>
        <time>2020-07-09T18:24:06.303Z</time>
      </trkpt>
      <trkpt lat="46.57896" lon="0.36386">
        <ele>109.009338</ele>
        <time>2020-07-09T18:24:04.455Z</time>
      </trkpt>
      <trkpt lat="46.57891" lon="0.36378">
        <ele>109.009338</ele>
        <time>2020-07-09T18:24:02.853Z</time>
      </trkpt>
      <trkpt lat="46.57885" lon="0.36368">
        <ele>109.009338</ele>
        <time>2020-07-09T18:24:01.167Z</time>
      </trkpt>
      <trkpt lat="46.5788" lon="0.36359">
        <ele>109.009338</ele>
        <time>2020-07-09T18:23:59.612Z</time>
      </trkpt>
      <trkpt lat="46.57874" lon="0.36348">
        <ele>109.009338</ele>
        <time>2020-07-09T18:23:57.764Z</time>
      </trkpt>
      <trkpt lat="46.57848" lon="0.36296">
        <ele>109.009338</ele>
        <time>2020-07-09T18:23:49.029Z</time>
      </trkpt>
      <trkpt lat="46.57844" lon="0.36302">
        <ele>109.009338</ele>
        <time>2020-07-09T18:23:47.582Z</time>
      </trkpt>
      <trkpt lat="46.57844" lon="0.36302">
        <ele>109.009338</ele>
        <time>2020-07-09T18:23:47.582Z</time>
      </trkpt>
    </trkseg>
  </trk>
</gpx>